[[{"header":{"parameterUnit":"m.s-1","parameterCategory":1,"la1":30.6,"la2":28.766,"lo1":-90.7593,"lo2":-88.6598,"dy":0.0162,"dx":0.0183,"nx":116,"ny":114,"refTime":"2023-09-05T12:00:00:Z","depth":0,"parameterNumber":2,"parameterNumberName":"U-component_of_WINDS"},"data":[0.0,0.0,0.0,0.0,0.0,0.0,0.0,0.0,0.0,0.0,0.0,0.0,0.0,0.0,0.0,0.0,0.0,0.0,0.0,0.0,0.0,0.0,0.0,0.0,0.0,0.0,0.0,0.0,0.0,0.0,0.0,0.0,0.0,0.0,0.0,0.0,0.0,0.0,0.0,0.0,0.0,0.0,0.0,0.0,0.0,0.0,0.0,0.0,0.0,0.0,0.0,0.0,0.0,0.0,0.0,0.0,0.0,0.0,0.0,0.0,0.0,0.0,0.0,0.0,0.0,0.0,0.0,0.0,0.0,0.0,0.0,0.0,0.0,0.0,0.0,0.0,0.0,0.0,0.0,0.0,0.0,0.0,0.0,0.0,0.0,0.0,0.0,0.0,0.0,0.0,0.0,0.0,0.0,0.0,0.0,0.0,0.0,0.0,0.0,0.0,0.0,0.0,0.0,0.0,0.0,0.0,0.0,0.0,0.0,0.0,0.0,0.0,0.0,0.0,0.0,0.0,0.0,0.0,0.0,0.0,0.0,0.0,0.0,0.0,0.0,0.0,0.0,0.0,0.0,0.0,0.0,0.0,0.0,0.0,0.0,0.0,0.0,0.0,0.0,0.0,0.0,0.0,0.0,0.0,0.0,0.0,0.0,0.0,0.0,0.0,0.0,0.0,0.0,0.0,0.0,0.0,0.0,0.0,0.0,0.0,0.0,0.0,0.0,0.0,0.0,0.0,0.0,0.0,0.0,0.0,0.0,0.0,0.0,0.0,0.0,0.0,0.0,0.0,0.0,0.0,0.0,0.0,0.0,0.0,0.0,0.0,0.0,0.0,0.0,0.0,0.0,0.0,0.0,0.0,0.0,0.0,0.0,0.0,0.0,0.0,0.0,0.0,0.0,0.0,0.0,0.0,0.0,0.0,0.0,0.0,0.0,0.0,0.0,0.0,0.0,0.0,0.0,0.0,0.0,0.0,0.0,0.0,0.0,0.0,0.0,0.0,0.0,0.0,0.0,0.0,0.0,0.0,0.0,0.0,0.0,0.0,0.0,0.0,0.0,0.0,0.0,0.0,0.0,0.0,0.0,0.0,0.0,0.0,0.0,0.0,0.0,0.0,0.0,0.0,0.0,0.0,0.0,0.0,0.0,0.0,0.0,0.0,0.0,0.0,0.0,0.0,0.0,0.0,0.0,0.0,0.0,0.0,0.0,0.0,0.0,0.0,0.0,0.0,0.0,0.0,0.0,0.0,0.0,0.0,0.0,0.0,0.0,0.0,0.0,0.0,0.0,0.0,0.0,0.0,0.0,0.0,0.0,0.0,0.0,0.0,0.0,0.0,0.0,0.0,0.0,0.0,0.0,0.0,0.0,0.0,0.0,0.0,0.0,0.0,0.0,0.0,0.0,0.0,0.0,0.0,0.0,0.0,0.0,0.0,0.0,0.0,0.0,0.0,0.0,0.0,0.0,0.0,0.0,0.0,0.0,0.0,0.0,0.0,0.0,0.0,0.0,0.0,0.0,0.0,0.0,0.0,0.0,0.0,0.0,0.0,0.0,0.0,0.0,0.0,0.0,0.0,0.0,0.0,0.0,0.0,0.0,0.0,0.0,0.0,0.0,0.0,0.0,0.0,0.0,0.0,0.0,0.0,0.0,0.0,0.0,0.0,0.0,0.0,0.0,0.0,0.0,0.0,0.0,0.0,0.0,0.0,0.0,0.0,0.0,0.0,0.0,0.0,0.0,0.0,0.0,0.0,0.0,0.0,0.0,0.0,0.0,0.0,0.0,0.0,0.0,0.0,0.0,0.0,0.0,0.0,0.0,0.0,0.0,0.0,0.0,0.0,0.0,0.0,0.0,0.0,0.0,0.0,0.0,0.0,0.0,0.0,0.0,0.0,0.0,0.0,0.0,0.0,0.0,0.0,0.0,0.0,0.0,0.0,0.0,0.0,0.0,0.0,0.0,0.0,0.0,0.0,0.0,0.0,0.0,0.0,0.0,0.0,0.0,0.0,0.0,0.0,0.0,0.0,0.0,0.0,0.0,0.0,0.0,0.0,0.0,0.0,0.0,0.0,0.0,0.0,0.0,0.0,0.0,0.0,0.0,0.0,0.0,0.0,0.0,0.0,0.0,0.0,0.0,0.0,0.0,0.0,0.0,0.0,0.0,0.0,0.0,0.0,0.0,0.0,0.0,0.0,0.0,0.0,0.0,0.0,0.0,0.0,0.0,0.0,0.0,0.0,0.0,0.0,0.0,0.0,0.0,0.0,0.0,0.0,0.0,0.0,0.0,0.0,0.0,0.0,0.0,0.0,0.0,0.0,0.0,0.0,0.0,0.0,0.0,0.0,0.0,0.0,0.0,0.0,0.0,0.0,0.0,0.0,0.0,0.0,0.0,0.0,0.0,0.0,0.0,0.0,0.0,0.0,0.0,0.0,0.0,0.0,0.0,0.0,0.0,0.0,0.0,0.0,0.0,0.0,0.0,0.0,0.0,0.0,0.0,0.0,0.0,0.0,0.0,0.0,0.0,0.0,0.0,0.0,0.0,0.0,0.0,0.0,0.0,0.0,0.0,0.0,0.0,0.0,0.0,0.0,0.0,0.0,0.0,0.0,0.0,0.0,0.0,0.0,0.0,0.0,0.0,0.0,0.0,0.0,0.0,0.0,0.0,0.0,0.0,0.0,0.0,0.0,0.0,0.0,0.0,0.0,0.0,0.0,0.0,0.0,0.0,0.0,0.0,0.0,0.0,0.0,0.0,0.0,0.0,0.0,0.0,0.0,0.0,0.0,0.0,0.0,0.0,0.0,0.0,0.0,0.0,0.0,0.0,0.0,0.0,0.0,0.0,0.0,0.0,0.0,0.0,0.0,0.0,0.0,0.0,0.0,0.0,0.0,0.0,0.0,0.0,0.0,0.0,0.0,0.0,0.0,0.0,0.0,0.0,0.0,0.0,0.0,0.0,0.0,0.0,0.0,0.0,0.0,0.0,0.0,0.0,0.0,0.0,0.0,0.0,0.0,0.0,0.0,0.0,0.0,0.0,0.0,0.0,0.0,0.0,0.0,0.0,0.0,0.0,0.0,0.0,0.0,0.0,0.0,0.0,0.0,0.0,0.0,0.0,0.0,0.0,0.0,0.0,0.0,0.0,0.0,0.0,0.0,0.0,0.0,0.0,0.0,0.0,0.0,0.0,0.0,0.0,0.0,0.0,0.0,0.0,0.0,0.0,0.0,0.0,0.0,0.0,0.0,0.0,0.0,0.0,0.0,0.0,0.0,0.0,0.0,0.0,0.0,0.0,0.0,0.0,0.0,0.0,0.0,0.0,0.0,0.0,0.0,0.0,0.0,0.0,0.0,0.0,0.0,0.0,0.0,0.0,0.0,0.0,0.0,0.0,0.0,0.0,0.0,0.0,0.0,0.0,0.0,0.0,0.0,0.0,0.0,0.0,0.0,0.0,0.0,0.0,0.0,0.0,0.0,0.0,0.0,0.0,0.0,0.0,0.0,0.0,0.0,0.0,0.0,0.0,0.0,0.0,0.0,0.0,0.0,0.0,0.0,0.0,0.0,0.0,0.0,0.0,0.0,0.0,0.0,0.0,0.0,0.0,0.0,0.0,0.0,0.0,0.0,0.0,0.0,0.0,0.0,0.0,0.0,0.0,0.0,0.0,0.0,0.0,0.0,0.0,0.0,0.0,0.0,0.0,0.0,0.0,0.0,0.0,0.0,0.0,0.0,0.0,0.0,0.0,0.0,0.0,0.0,0.0,0.0,0.0,0.0,0.0,0.0,0.0,0.0,0.0,0.0,0.0,0.0,0.0,0.0,0.0,0.0,0.0,0.0,0.0,0.0,0.0,0.0,0.0,0.0,0.0,0.0,0.0,0.0,0.0,0.0,0.0,0.0,0.0,0.0,0.0,0.0,0.0,0.0,0.0,0.0,0.0,0.0,0.0,0.0,0.0,0.0,0.0,0.0,0.0,0.0,0.0,0.0,0.0,0.0,0.0,0.0,0.0,0.0,0.0,0.0,0.0,0.0,0.0,0.0,0.0,0.0,0.0,0.0,0.0,0.0,0.0,0.0,0.0,0.0,0.0,0.0,0.0,0.0,0.0,0.0,0.0,0.0,0.0,0.0,0.0,0.0,0.0,0.0,0.0,0.0,0.0,0.0,0.0,0.0,0.0,0.0,0.0,0.0,0.0,0.0,0.0,0.0,0.0,0.0,0.0,0.0,0.0,0.0,0.0,0.0,0.0,0.0,0.0,0.0,0.0,0.0,0.0,0.0,0.0,0.0,0.0,0.0,0.0,0.0,0.0,0.0,0.0,0.0,0.0,0.0,0.0,0.0,0.0,0.0,0.0,0.0,0.0,0.0,0.0,0.0,0.0,0.0,0.0,0.0,0.0,0.0,0.0,0.0,0.0,0.0,0.0,0.0,0.0,0.0,0.0,0.0,0.0,0.0,0.0,0.0,0.0,0.0,0.0,0.0,0.0,0.0,0.0,0.0,0.0,0.0,0.0,0.0,0.0,0.0,0.0,0.0,0.0,0.0,0.0,0.0,0.0,0.0,0.0,0.0,0.0,0.0,0.0,0.0,0.0,0.0,0.0,0.0,0.0,0.0,0.0,0.0,0.0,0.0,0.0,0.0,0.0,0.0,0.0,0.0,0.0,0.0,0.0,0.0,0.0,0.0,0.0,0.0,0.0,0.0,0.0,0.0,0.0,0.0,0.0,0.0,0.0,0.0,0.0,0.0,0.0,0.0,0.0,0.0,0.0,0.0,0.0,0.0,0.0,0.0,0.0,0.0,0.0,0.0,0.0,0.0,0.0,0.0,0.0,0.0,0.0,0.0,0.0,0.0,0.0,0.0,0.0,0.0,0.0,0.0,0.0,0.0,0.0,0.0,0.0,0.0,0.0,0.0,0.0,0.0,0.0,0.0,0.0,0.0,0.0,0.0,0.0,0.0,0.0,0.0,0.0,0.0,0.0,0.0,0.0,0.0,0.0,0.0,0.0,0.0,0.0,0.0,0.0,0.0,0.0,0.0,0.0,0.0,0.0,0.0,0.0,0.0,0.0,0.0,0.0,0.0,0.0,0.0,0.0,0.0,0.0,0.0,0.0,0.0,0.0,0.0,0.0,0.0,0.0,0.0,0.0,0.0,0.0,0.0,0.0,0.0,0.0,0.0,0.0,0.0,0.0,0.0,0.0,0.0,0.0,0.0,0.0,0.0,0.0,0.0,0.0,0.0,0.0,0.0,0.0,0.0,0.0,0.0,0.0,0.0,0.0,0.0,0.0,0.0,0.0,0.0,0.0,0.0,0.0,0.0,0.0,0.0,0.0,0.0,0.0,0.0,0.0,0.0,0.0,0.0,0.0,0.0,0.0,0.0,0.0,0.0,0.0,0.0,0.0,0.0,0.0,0.0,0.0,0.0,0.0,0.0,0.0,0.0,0.0,0.0,0.0,0.0,0.0,0.0,0.0,0.0,0.0,0.0,0.0,0.0,0.0,0.0,0.0,0.0,0.0,0.0,0.0,0.0,0.0,0.0,0.0,0.0,0.0,0.0,0.0,0.0,0.0,0.0,0.0,0.0,0.0,0.0,0.0,0.0,0.0,0.0,0.0,0.0,0.0,0.0,0.0,0.0,0.0,0.0,0.0,0.0,0.0,0.0,0.0,0.0,0.0,0.0,0.0,0.0,0.0,0.0,0.0,0.0,0.0,0.0,0.0,0.0,0.0,0.0,0.0,0.0,0.0,0.0,0.0,0.0,0.0,0.0,0.0,0.0,0.0,0.0,0.0,0.0,0.0,0.0,0.0,0.0,0.0,0.0,0.0,0.0,0.0,0.0,0.0,0.0,0.0,0.0,0.0,0.0,0.0,0.0,0.0,0.0,0.0,0.0,0.0,0.0,0.0,0.0,0.0,0.0,0.0,0.0,0.0,0.0,0.0,0.0,0.0,0.0,0.0,0.0,0.0,0.0,0.0,0.0,0.0,0.0,0.0,0.0,0.0,0.0,0.0,0.0,0.0,0.0,0.0,0.0,0.0,0.0,0.0,0.0,0.0,0.0,0.0,0.0,0.0,0.0,0.0,0.0,0.0,0.0,-2.9516,0.0,0.0,0.0,0.0,0.0,0.0,0.0,0.0,0.0,0.0,0.0,0.0,0.0,0.0,0.0,0.0,0.0,0.0,0.0,0.0,0.0,0.0,0.0,0.0,0.0,0.0,0.0,0.0,0.0,0.0,0.0,0.0,0.0,0.0,0.0,0.0,0.0,0.0,-0.0114,-0.0945,-0.2221,-0.3789,-0.3667,-0.3468,-0.3159,0.0,0.0,0.0,0.0,0.0,0.0,0.0,0.0,0.0,0.0,0.0,0.0,0.0,0.0,0.0,0.0,0.0,0.0,0.0,0.0,0.0,0.0,0.0,0.0,0.0,0.0,0.0,0.0,0.0,0.0,0.0,0.0,0.0,0.0,0.0,0.0,0.0,0.0,0.0,0.0,0.0,0.0,0.0,0.0,0.0,0.0,0.0,0.0,0.0,0.0,0.0,0.0,0.0,0.0,0.0,0.0,0.0,0.0,0.0,0.0,0.0,0.0,0.0,0.0,0.0,0.0,0.0,0.0,0.0,0.0,0.0,-3.1173,0.0,0.0,0.0,0.0,0.0,0.0,0.0,0.0,0.0,0.0,0.0,0.0,0.0,0.0,0.0,0.0,0.0,0.0,0.0,0.0,0.0,0.0,0.0,1.6918,1.6046,1.4949,1.3301,1.2101,0.0,0.0,0.0,0.0,0.0,0.0,0.2747,0.0662,-0.1014,-0.2335,-0.3142,-0.5039,-0.7857,-0.7918,-0.7655,-0.6956,-0.5842,0.0,0.0,0.0,0.0,0.0,0.0,0.0,0.0,0.0,0.0,0.0,0.0,0.0,0.0,0.0,0.0,0.0,0.0,0.0,0.0,0.0,0.0,0.0,0.0,0.0,0.0,0.0,0.0,0.0,0.0,0.0,0.0,0.0,0.0,0.0,0.0,0.0,0.0,0.0,0.0,0.0,0.0,0.0,0.0,0.0,0.0,0.0,0.0,0.0,0.0,0.0,0.0,0.0,0.0,0.0,0.0,0.0,0.0,0.0,0.0,0.0,0.0,0.0,-3.5334,-3.5791,-3.64,-3.64,-3.64,-3.6349,-3.5605,-3.5047,-3.459,0.0,0.0,0.0,0.0,0.0,0.0,0.0,0.0,0.0,0.0,0.0,0.0,0.0,0.0,0.0,0.0,0.0,0.0,0.0,0.0,0.0,0.0,1.776,1.6676,1.5516,1.4744,1.3348,1.1057,0.0,0.0,0.0,0.0,0.0,0.0499,-0.1107,-0.2709,-0.441,-0.5638,-0.668,-0.757,-0.9207,-0.9487,-0.8667,-0.7633,-0.6805,-0.6068,0.0,0.0,0.0,0.0,0.0,0.0,0.0,0.0,0.0,0.0,0.0,0.0,0.0,0.0,0.0,0.0,0.0,0.0,0.0,0.0,0.0,0.0,0.0,0.0,0.0,0.0,0.0,0.0,0.0,0.0,0.0,0.0,0.0,0.0,0.0,0.0,0.0,0.0,0.0,0.0,0.0,-2.2589,-2.4345,0.0,0.0,0.0,0.0,0.0,0.0,0.0,0.0,0.0,0.0,0.0,0.0,0.0,-3.4757,-3.4861,-3.6468,-3.7364,-3.7466,-3.8734,-3.9394,-3.9495,-3.9495,-3.9495,-3.9462,-3.8717,0.0,-3.5408,-3.4638,0.0,0.0,0.0,0.0,0.0,0.0,0.0,0.0,0.0,0.0,0.0,0.0,0.0,0.0,0.0,0.0,0.0,0.0,0.0,0.0,0.0,1.8182,1.7233,1.6096,1.4812,1.3277,1.1423,0.9841,0.0,0.0,0.0,0.0824,-0.16,-0.3607,-0.5384,-0.6934,-0.7727,-0.8691,-0.9636,-1.0653,-1.093,-1.0575,-1.0285,-0.9412,-0.8064,-0.6586,0.0,0.0,0.0,0.0,0.0,0.0,0.0,0.0,0.0,0.0,0.0,0.0,0.0,0.0,0.0,0.0,0.0,0.0,0.0,0.0,0.0,0.0,0.0,0.0,0.0,0.0,0.0,0.0,0.0,0.0,0.0,0.0,0.0,0.0,0.0,0.0,0.0,0.0,0.0,-2.1864,-2.4162,-2.4439,-2.5664,-2.6281,0.0,0.0,0.0,0.0,0.0,0.0,0.0,0.0,0.0,-3.5173,-3.585,-3.6593,-3.7432,-3.854,-3.9123,-3.914,-3.9766,-3.9868,-3.9462,-3.9462,-3.9242,-3.8853,-3.8514,-3.7821,-3.681,-3.5643,-3.4693,-3.3887,0.0,0.0,0.0,0.0,-3.0784,-3.0806,0.0,0.0,0.0,0.0,0.0,0.0,0.0,0.0,0.0,0.0,0.0,0.0,1.9492,1.8806,1.7942,1.685,1.5145,1.3518,1.2046,0.9555,0.7835,0.7203,0.2747,-0.1107,-0.4027,-0.5846,-0.7415,-0.8711,-0.9113,-1.0039,-1.1466,-1.1897,-1.2003,-1.1907,-1.2428,-1.153,-0.9527,-0.8317,-0.7358,-0.6506,0.0,0.0,0.0,0.0,0.0,0.0,0.0,0.0,0.0,0.0,0.0,0.0,0.0,0.0,0.0,0.0,0.0,0.0,0.0,0.0,0.0,0.0,0.0,0.0,0.0,0.0,0.0,0.0,0.0,0.0,0.0,0.0,0.0,0.0,0.0,0.0,0.0,-2.4365,-2.6067,-2.5351,-2.7547,-2.8599,0.0,0.0,0.0,0.0,0.0,0.0,-3.5897,-3.6258,-3.6952,-3.8077,-3.7902,-3.8231,-3.911,-3.9421,-3.9529,-3.9529,-3.9529,-3.9242,-3.8717,-3.8717,-3.8413,-3.7889,-3.7702,-3.7511,-3.7236,-3.5908,-3.5221,-3.4851,-3.3271,-3.2709,-3.2715,-3.2755,-3.2569,-3.2332,0.0,0.0,0.0,0.0,0.0,0.0,0.0,0.0,0.0,0.0,0.0,2.0926,2.0894,2.0062,1.9046,1.7816,1.63,1.4631,1.285,1.0789,0.8729,0.6732,0.3049,-0.1555,-0.7172,-0.7531,-0.8086,-0.8973,-0.9196,-1.0142,-1.1804,-1.2565,-1.2687,-1.2243,-1.3304,-1.2364,-0.9892,-0.9805,-0.8746,-0.7009,-0.6702,0.0,0.0,0.0,0.0,0.0,0.0,0.0,0.0,0.0,0.0,0.0,0.0,0.0,0.0,0.0,0.0,0.0,0.0,0.0,0.0,0.0,0.0,0.0,0.0,0.0,0.0,0.0,0.0,0.0,0.0,0.0,0.0,0.0,0.0,0.0,0.0,0.0,0.0,-2.9281,-3.2033,0.0,0.0,0.0,0.0,-3.4651,-3.634,-3.7991,-3.957,-4.0349,-4.0826,-4.0918,-4.0643,-4.0159,-3.9481,-3.8511,-3.8024,-3.8024,-3.8024,-3.799,-3.7973,-3.7973,-3.7939,-3.7872,-3.7144,-3.6489,-3.5754,-3.5048,-3.5461,-3.6362,-3.425,-3.3444,-3.3444,-3.3419,-3.2627,-3.1584,0.0,0.0,0.0,0.0,0.0,0.0,0.0,0.0,2.0926,2.0748,2.0894,2.0991,2.0991,2.0434,1.9768,1.9031,1.7142,1.5043,1.2698,1.0898,0.8239,0.4382,0.1756,-0.2085,-0.7395,-0.8486,-0.9417,-1.0382,-0.9833,-1.0555,-1.2529,-1.2348,-1.2313,-1.2324,-1.2921,-1.2355,-1.0811,-0.9927,-0.8985,-0.8072,-0.6696,-0.565,0.0,0.0,0.0,0.0,0.0,0.0,0.0,0.0,0.0,0.0,0.0,0.0,0.0,0.0,0.0,0.0,0.0,0.0,0.0,0.0,0.0,0.0,0.0,0.0,0.0,0.0,0.0,0.0,0.0,0.0,0.0,0.0,0.0,0.0,0.0,0.0,0.0,-3.103,-3.311,0.0,-3.3221,-3.4971,-3.6505,-3.7331,-3.9368,-4.0836,-4.1405,-4.1338,-4.0926,-4.0109,-3.9617,-3.906,-3.847,-3.8108,-3.7905,-3.7905,-3.7415,-3.6924,-3.6417,-3.5926,-3.5256,-3.4389,-3.4139,-3.3658,-3.3024,-3.2313,-3.3099,-3.4554,-3.377,-3.3516,-3.3516,-3.3516,-3.3216,-3.2676,0.0,0.0,0.0,0.0,0.0,0.0,0.0,0.0,2.146,2.1529,2.1546,2.1622,2.1736,2.124,2.0718,2.0242,1.7918,1.5587,1.3432,1.1288,0.8277,0.4273,0.0393,-0.3472,-0.73,-0.8705,-0.9794,-1.0659,-0.9897,-1.047,-1.2189,-1.1668,-1.1584,-1.1903,-1.1931,-1.1466,-1.0619,-0.9159,-0.8655,-0.873,-0.7021,-0.588,-0.522,0.0,0.0,0.0,0.0,0.0,0.0,0.0,0.0,0.0,0.0,0.0,0.0,0.0,0.0,0.0,0.0,0.0,0.0,0.0,0.0,0.0,0.0,0.0,0.0,0.0,0.0,0.0,0.0,0.0,0.0,0.0,0.0,0.0,0.0,0.0,-3.2098,-3.1747,-3.3868,-3.5083,-3.4275,-3.645,-3.823,-3.9038,-4.0836,-4.1901,-4.1901,-4.1342,-4.0398,-3.9058,-3.8292,-3.7611,-3.7058,-3.6593,-3.6518,-3.6738,-3.5994,-3.5368,-3.4861,-3.4353,-3.3527,-3.2496,-3.2496,-3.2022,-3.1244,-3.0763,-3.1098,-3.1884,-3.2317,-3.2482,-3.2482,-3.2482,-3.2214,-3.1604,0.0,0.0,0.0,0.0,0.0,0.0,0.0,2.2226,2.2381,2.2591,2.2669,2.2848,2.3165,2.2539,2.19,2.1391,1.8665,1.6471,1.5234,1.2029,0.8981,0.645,-0.0868,-0.5522,-0.6976,-0.8164,-0.9083,-0.9666,-0.9316,-0.9688,-1.0805,-1.0544,-1.0567,-1.0785,-1.0432,-0.9901,-0.9215,-0.7726,-0.7915,-0.902,-0.7932,-0.6612,-0.5449,0.0,0.0,0.0,0.0,0.0,0.0,0.0,0.0,0.0,0.0,0.0,0.0,0.0,0.0,0.0,0.0,0.0,0.0,0.0,0.0,0.0,0.0,0.0,0.0,0.0,0.0,0.0,0.0,0.0,0.0,0.0,0.0,0.0,-2.9175,-3.2067,-3.3465,-3.1626,-3.4485,-3.6204,-3.5117,-3.7209,-3.8982,-3.9753,-4.0579,-4.0987,-4.0969,-4.0488,-3.9481,-3.7928,-3.6932,-3.6047,-3.5238,-3.4038,-3.3761,-3.4455,-3.3694,-3.3339,-3.3339,-3.3288,-3.294,-3.2364,-3.2364,-3.1596,-3.0437,-3.0437,-2.969,-2.8637,-2.9939,-3.0447,-3.0391,-3.0391,-2.9484,-2.8068,0.0,0.0,0.0,0.0,0.0,0.0,0.0,2.2582,2.2686,2.2986,2.3052,2.3153,2.3378,2.2849,2.2357,2.2131,2.021,1.8201,1.623,1.3002,0.923,0.5011,-0.0794,-0.4381,-0.5396,-0.7223,-0.8253,-0.8564,-0.7715,-0.7991,-0.9305,-0.8705,-0.8565,-0.8895,-0.9389,-0.94,-0.908,-0.8148,-0.8189,-0.8764,-0.7062,-0.6187,-0.5861,0.0,0.0,0.0,0.0,0.0,0.0,0.0,0.0,0.0,0.0,0.0,0.0,0.0,0.0,0.0,0.0,0.0,0.0,0.0,0.0,0.0,0.0,0.0,0.0,0.0,0.0,0.0,0.0,0.0,0.0,0.0,0.0,-3.1729,-3.2124,-3.3005,-3.3774,-3.4161,-3.4611,-3.5049,-3.5403,-3.6585,-3.7567,-3.812,-3.8909,-3.8949,-3.802,-3.7832,-3.6986,-3.5307,-3.5004,-3.4565,-3.3945,-3.3575,-3.3508,-3.3694,-3.2408,-3.1799,-3.1765,-3.0683,-2.9676,-2.8747,-2.8747,-2.805,-2.6952,-2.6952,-2.6766,-2.6617,-2.8427,-2.8779,-2.8298,-2.8298,-2.713,-2.5418,0.0,0.0,0.0,0.0,0.0,0.0,0.0,2.2968,2.3211,2.3684,2.371,2.3757,2.4008,2.3603,2.3275,2.3203,2.1523,1.9718,1.7978,1.3861,0.9962,0.653,0.2047,-0.1132,-0.2794,-0.4872,-0.6454,-0.7478,-0.6872,-0.6945,-0.7518,-0.7298,-0.7404,-0.7825,-0.8055,-0.7777,-0.7094,-0.6006,-0.5445,-0.5129,-0.4114,-0.4084,-0.4759,-0.4675,-0.4504,-0.4276,-0.4255,-0.4159,-0.3951,-0.3979,0.0,0.0,0.0,0.0,0.0,0.0,0.0,0.0,0.0,0.0,0.0,0.0,0.0,0.0,0.0,0.0,0.0,0.0,0.0,0.0,0.0,0.0,0.0,0.0,-3.1609,-3.3412,-3.3811,-3.3863,-3.3853,-3.3883,-3.3453,-3.3423,-3.4055,-3.4677,-3.5353,-3.6158,-3.6472,-3.6331,-3.5582,-3.5041,-3.4146,-3.2837,-3.2576,-3.2342,-3.2019,-3.1715,-3.1715,-3.2002,-3.0835,-3.0277,-3.0243,-2.916,-2.8174,0.0,-2.7084,-2.645,-2.5615,-2.5615,-2.5295,0.0,0.0,0.0,0.0,0.0,-2.4545,-2.3188,0.0,0.0,0.0,0.0,0.0,0.0,0.0,2.3396,2.3777,2.4425,2.4416,2.4476,2.4804,2.4545,2.434,2.4348,2.2745,2.1187,1.99,1.4999,1.1482,0.9995,0.6473,0.3314,0.0744,-0.1284,-0.3452,-0.5751,-0.5751,-0.5575,-0.5229,-0.5638,-0.6095,-0.6549,-0.6087,-0.5102,-0.3826,-0.2325,-0.1022,-0.0,0.0127,-0.1054,-0.2785,-0.2567,-0.2339,-0.2159,-0.2075,-0.2094,-0.2087,-0.2045,0.0,0.0,0.0,0.0,0.0,0.0,0.0,0.0,0.0,0.0,0.0,0.0,0.0,0.0,0.0,0.0,0.0,0.0,0.0,0.0,0.0,0.0,0.0,0.0,-3.2658,-3.4244,-3.4162,-3.4124,-3.3539,-3.199,-3.1562,-3.1445,-3.1649,-3.1961,-3.2606,-3.3718,-3.3573,-3.3344,-3.3222,0.0,0.0,0.0,0.0,-2.9888,-2.9989,-2.9313,-2.9313,-2.988,-2.9053,-2.8648,-2.8558,-2.7914,-2.7297,-2.6732,-2.6228,-2.5693,-2.5073,-2.5073,-2.4317,-2.3245,-2.4066,-2.4324,-2.4105,-2.2787,-2.1957,-2.1287,0.0,0.0,0.0,0.0,0.0,0.0,0.0,2.3605,2.4044,2.4442,2.462,2.4785,2.5018,2.4844,2.4689,2.4626,2.4142,2.2885,2.0655,1.7777,1.5285,1.3276,0.9702,0.7104,0.5666,0.3851,0.1863,-0.0381,-0.0381,-0.0656,-0.1156,-0.1212,-0.1322,-0.1432,-0.1327,-0.1111,-0.0727,0.0729,0.1496,0.1847,0.3049,0.1693,-0.0941,0.061,0.1221,0.1288,0.153,0.1685,0.1689,0.1933,0.1943,0.1791,0.0627,-0.007,0.0,0.0,0.0,0.0,0.0,0.0,0.0,0.0,0.0,0.0,0.0,0.0,0.0,0.0,0.0,0.0,0.0,0.0,0.0,-3.0239,-3.1897,-3.2708,-3.2089,-3.1926,-3.1704,-3.1397,-2.9714,-2.875,-2.9155,-2.926,-2.9544,-3.0172,-3.067,-3.0543,-2.9577,-2.9306,-2.8936,-2.8406,-2.8283,-2.8569,-2.9194,-2.9059,-2.8841,-2.8566,0.0,0.0,-2.5951,-2.4709,-2.385,-2.3327,-2.3227,-2.2677,-2.1813,-2.1813,-2.1095,-2.0151,-2.1619,-2.1941,-2.1475,-2.0617,-1.9978,-1.9445,0.0,0.0,0.0,0.0,0.0,0.0,0.0,2.3987,2.4452,2.4639,2.4902,2.5137,2.5241,2.5182,2.5139,2.5101,2.4793,2.3958,2.2464,2.045,1.8637,1.7103,1.3822,1.1324,0.9859,0.7659,0.6333,0.5976,0.4552,0.3482,0.2887,0.3182,0.2636,0.1532,0.2751,0.3312,0.3366,0.4103,0.4543,0.4896,0.5659,0.4742,0.3047,0.329,0.3357,0.337,0.3533,0.3806,0.4067,0.4194,0.4437,0.4596,0.3798,0.2783,0.139,0.0,0.0,0.0,0.0,0.0,0.0,0.0,0.0,0.0,0.0,0.0,0.0,0.0,0.0,-2.286,-2.5282,0.0,-2.8409,-3.0213,-3.1374,-3.1654,-3.0612,-2.9486,-2.886,-2.8955,-2.7943,-2.7113,-2.6818,-2.694,-2.721,-2.7666,-2.7866,-2.767,-2.7103,-2.6708,-2.6375,-2.615,-2.615,-2.6236,-2.6452,-2.6452,-2.6208,-2.5672,-2.4971,-2.4522,-2.4221,-2.3263,-2.264,-2.2359,-2.1864,-2.1366,-2.0864,-2.0245,-1.9653,-1.9165,-1.9707,-1.9729,-1.9436,-1.9093,-1.8668,-1.8166,0.0,0.0,0.0,0.0,0.0,0.0,0.0,2.4335,2.4804,2.4804,2.516,2.5409,2.5416,2.5485,2.5512,2.552,2.5156,2.4705,2.4168,2.2699,2.1396,2.045,1.7644,1.5375,1.3738,1.1287,1.0446,1.137,0.8906,0.7419,0.679,0.7184,0.6212,0.4264,0.6294,0.7117,0.702,0.702,0.7246,0.7645,0.7645,0.7408,0.69,0.5755,0.5133,0.4918,0.4935,0.5259,0.5709,0.577,0.6109,0.6496,0.6264,0.5069,0.3403,0.1955,0.0935,0.0,0.0,0.0,0.0,0.0,0.0,0.0,0.0,-1.6848,-1.8299,-2.1155,-2.226,-2.3477,-2.6129,-2.7705,-2.8797,-2.9437,-3.0251,-3.027,-2.8701,-2.7185,-2.6086,-2.5832,-2.5899,-2.5622,-2.4844,-2.5012,-2.5326,-2.5626,-2.5476,-2.5321,-2.5186,-2.4515,-2.4146,-2.4146,-2.4084,-2.3962,-2.3769,-2.3753,-2.3534,-2.3035,-2.2923,-2.2824,-2.2718,-2.2144,-2.1809,-2.1644,-2.0648,-2.0187,-2.0104,-1.9051,-1.8608,-1.8532,-1.8037,-1.7877,-1.789,-1.8003,-1.7689,-1.7212,0.0,0.0,0.0,0.0,0.0,0.0,0.0,0.0,2.4804,2.4804,2.516,2.5415,2.5471,2.5557,2.5589,2.5581,2.5496,2.5193,2.4664,2.4034,2.3151,2.1927,2.0045,1.849,1.7351,1.5578,1.4255,1.3444,1.2312,1.1363,1.0672,1.027,0.9638,0.8857,0.9154,0.8992,0.8469,0.8469,0.8528,0.8528,0.8528,0.8528,0.8423,0.8309,0.7464,0.6396,0.6539,0.6687,0.6768,0.7011,0.7112,0.703,0.6294,0.5901,0.5689,0.5657,0.2949,-0.0486,-0.3115,-0.4884,-0.6391,-0.8246,-0.9716,-1.1853,0.0,-1.8885,-2.0997,-2.2752,-2.4178,-2.5266,-2.5544,-2.605,-2.6552,-2.6877,-2.7476,-2.7197,-2.5237,-2.5219,-2.4724,-2.2846,-2.2932,-2.3248,-2.3541,-2.3608,-2.3676,-2.3689,-2.4269,-2.4323,-2.368,-2.3162,-2.2892,-2.2892,-2.2573,-2.265,-2.3262,-2.3262,-2.3016,-2.2493,-2.1967,-2.145,-2.0971,-2.0315,-1.9723,-1.9246,-1.8179,-1.7704,-1.7676,-1.7016,-1.6784,-1.6784,-1.6697,-1.671,-1.6773,-1.7287,-1.7112,-1.6523,0.0,0.0,0.0,0.0,0.0,0.0,0.0,0.0,0.0,2.4804,2.516,2.5423,2.5498,2.5585,2.5665,2.5664,2.5638,2.5489,2.5191,2.4872,2.4353,2.3584,2.2468,2.1395,2.0375,1.8845,1.7663,1.6826,1.5205,1.4291,1.3972,1.3128,1.2589,1.2328,1.1997,1.1737,1.1465,1.1184,1.0781,1.0463,1.0463,1.0226,0.99,0.99,0.9548,0.8954,0.8199,0.8015,0.0,0.7717,0.774,0.7762,0.7012,0.649,0.6163,0.5896,0.4036,0.1496,-0.13,-0.39,-0.6092,-0.7088,-0.8365,-1.0437,-1.4603,-1.6818,-1.8744,-2.1481,-2.2836,-2.3649,-2.4225,-2.462,-2.476,0.0,-2.4812,-2.4734,-2.3165,-2.2741,-2.2366,-2.1714,-2.1446,-2.1504,-2.1966,-2.2212,-2.2242,-2.2028,-2.2291,-2.234,-2.2013,-2.1824,-2.1713,-2.1713,-2.1553,-2.1501,-2.15,-2.1516,-2.1272,-2.0801,-2.0257,-1.9708,-1.9185,-1.8585,-1.7837,-1.7019,-1.6566,-1.6192,-1.585,-1.5315,-1.5264,-1.5472,-1.5215,-1.5085,-1.5188,-1.6021,-1.6203,-1.5908,0.0,0.0,0.0,0.0,0.0,0.0,0.0,0.0,0.0,0.0,2.5184,2.5468,2.5543,2.5637,2.5703,2.5703,2.5703,2.5641,2.5542,2.5398,2.5143,2.4752,2.4276,2.3603,2.2731,2.1515,2.0635,2.0083,1.8238,1.729,1.719,1.6263,1.564,1.5258,1.4836,1.4518,1.4261,1.386,1.3429,1.2958,1.2958,1.2713,1.2356,1.2136,1.21,1.1872,0.9951,0.9351,0.9328,0.8843,0.8845,0.8851,0.8241,0.7604,0.6898,0.5926,0.4795,0.315,0.0068,-0.2539,-0.4789,-0.6071,-0.7164,-0.8713,-1.2011,-1.4104,-1.6246,-1.9325,-2.052,-2.1229,-2.1722,-2.2339,-2.2543,-2.1927,-2.2278,-2.2346,-2.1455,-2.0841,-2.0639,-2.1078,-2.0798,-2.0677,-2.0897,-2.1231,-2.1306,-2.1023,-2.0991,-2.0991,-2.0991,-2.0862,-2.0797,-2.0797,-2.0509,-2.0184,-1.9882,-1.958,-1.9265,-1.8995,-1.8484,-1.802,-1.7648,-1.7093,-1.6417,-1.5694,-1.5559,-1.5184,-1.4658,-1.4268,-1.4215,-1.4385,-1.4036,-1.3919,-1.3996,-1.4554,-1.4856,-1.49,0.0,0.0,0.0,0.0,0.0,0.0,0.0,0.0,0.0,0.0,0.0,0.0,0.0,2.5703,2.5703,2.5703,2.5703,2.5664,2.5605,2.5583,2.5437,2.5101,2.5071,2.4803,2.4253,2.3558,2.3066,2.2776,2.1547,2.0821,2.0544,1.9993,1.9004,1.771,1.7671,1.7143,1.6186,1.6198,1.6186,1.6149,1.6149,1.617,1.6148,1.5594,1.5356,1.4941,1.1872,1.072,1.0728,1.0728,1.0736,1.0605,1.0111,0.9467,0.8577,0.6711,0.5389,0.3766,0.0446,-0.0722,-0.1836,-0.5051,-0.6222,-0.7073,-0.8727,-1.1851,-1.4871,-1.6486,-1.7806,-1.838,-1.7694,-1.8747,-1.9758,-1.9758,-1.9979,-2.0089,-1.9981,-1.9955,-2.0138,-2.0669,-2.1027,-2.1105,0.0,-2.092,-2.0991,-2.0991,-2.0991,-2.0991,-2.0991,-2.0583,-2.0314,-2.0314,-1.9307,-1.8766,-1.8732,-1.7739,-1.72,-1.718,-1.6788,-1.6564,-1.6536,-1.6001,-1.5745,-1.5657,-1.5159,-1.4607,-1.4137,-1.4098,-1.383,-1.3429,-1.3429,-1.3429,-1.3346,-1.2816,-1.2942,-1.3369,0.0,0.0,0.0,0.0,0.0,0.0,0.0,0.0,0.0,0.0,0.0,0.0,0.0,0.0,0.0,0.0,2.5703,2.5664,2.5605,2.5607,2.5531,2.5376,2.5376,2.5203,2.4846,2.4435,2.4095,2.3841,2.3336,2.3059,2.2944,2.2921,2.2475,2.1774,2.1397,2.0752,1.9852,1.9514,1.9144,1.8825,1.8403,1.8215,1.8116,1.7076,1.6701,1.6455,0.0,1.3663,1.3243,1.2425,1.2132,1.1963,1.0877,1.003,0.913,0.7575,0.5901,0.427,0.3152,0.1598,-0.0192,-0.2307,-0.3549,-0.4716,-0.6697,-0.8822,-1.0958,-1.3121,-1.4297,-1.516,-1.5911,-1.6576,-1.7168,-1.7472,-1.8244,-1.8645,-1.8208,-1.8464,-1.8899,-1.9429,-1.9626,0.0,0.0,0.0,0.0,-2.017,-2.0139,-2.0139,-2.0139,-1.998,-1.9592,-1.8882,-1.8499,-1.7981,-1.7268,-1.6866,-1.6697,-1.6683,-1.5792,-1.5229,-1.4908,-1.4317,-1.3854,-1.3555,-1.3399,-1.3019,-1.2559,-1.2195,-1.2123,-1.2227,-1.1901,-1.1737,-1.1686,-1.1103,-1.0877,-1.0874,0.0,0.0,0.0,0.0,0.0,0.0,0.0,0.0,0.0,0.0,0.0,0.0,0.0,0.0,0.0,0.0,0.0,2.5684,2.5644,2.5644,2.5602,2.5548,2.5829,2.5906,2.5716,2.5774,2.5715,2.5508,2.5375,2.5223,2.5067,2.5405,2.5205,2.4546,2.4414,2.3845,2.2987,2.2668,2.196,2.1032,2.085,2.0388,1.9674,1.889,1.8578,0.0,1.7511,1.676,1.6001,1.4097,1.349,1.3301,1.219,1.1232,1.0148,0.8743,0.7211,0.5869,0.5208,0.3873,0.2362,0.1084,-0.0198,-0.1897,-0.476,-0.6227,-0.7642,-0.9876,-1.1397,-1.2492,-1.3208,-1.4304,-1.5206,-1.53,-1.6371,-1.7131,-1.7002,-1.7272,-1.7882,-1.8832,-1.8977,-1.9108,0.0,0.0,0.0,-1.9487,-1.9789,-1.9766,-1.9081,-1.9102,-1.8685,-1.778,-1.736,-1.6837,-1.6152,-1.5772,-1.549,-1.5302,-1.4406,-1.3829,-1.3519,-1.2949,-1.2544,-1.2246,-1.2246,-1.1957,-1.1468,-1.0922,-1.0791,-1.0865,-1.0299,-1.0095,-1.0054,-0.9724,-0.945,-0.931,0.0,0.0,0.0,0.0,0.0,0.0,0.0,0.0,0.0,0.0,0.0,0.0,0.0,0.0,0.0,0.0,0.0,0.0,2.5703,2.5742,2.5742,2.5664,2.6504,2.6945,2.6875,2.7493,2.7798,2.7729,2.7567,2.7271,2.6912,2.7524,2.7164,2.6057,2.663,2.637,2.5519,2.5486,2.446,2.2873,2.3519,2.2688,2.1147,2.1091,2.1091,2.1035,2.0367,1.9754,1.8768,1.5855,1.4801,1.4652,1.405,1.2938,1.1598,1.0242,0.9334,0.8336,0.6543,0.6018,0.5764,0.4886,0.353,0.1383,-0.2645,-0.4062,-0.5029,-0.6818,-0.8882,-1.0198,-0.987,-1.1952,-1.369,-1.3428,-1.4437,-1.5508,-1.6194,-1.6336,-1.6995,-1.8741,-1.899,-1.9031,0.0,0.0,0.0,-1.8822,0.0,-1.9767,-1.7978,-1.7993,-1.7725,-1.7026,-1.6008,-1.5452,-1.5391,-1.4366,-1.3602,-1.3163,-1.2685,-1.2473,-1.2437,-1.1993,-1.1774,-1.1774,-1.1774,-1.1431,-1.0857,-1.0379,-0.9884,-0.9399,-0.8918,-0.8716,-0.8675,-0.8683,-0.8635,-0.8594,0.0,0.0,0.0,0.0,0.0,0.0,0.0,0.0,0.0,0.0,0.0,0.0,0.0,0.0,0.0,0.0,0.0,0.0,2.5703,2.6309,2.666,2.6641,2.748,2.7909,2.7846,2.8012,2.8037,2.7923,2.8326,2.8447,2.8302,2.8765,2.8633,2.8064,2.8013,2.7631,2.7002,2.645,2.6155,2.6088,2.574,2.5639,2.5474,2.4109,2.3593,2.3393,2.1398,2.057,2.0117,1.8035,1.6404,1.5217,1.4641,1.3595,1.2473,1.2113,1.0789,0.9238,0.8243,0.758,0.7079,0.6754,0.5313,0.34,0.141,-0.0298,-0.2117,-0.4278,-0.5541,-0.6967,-0.9101,-1.0352,-1.1477,-1.2733,-1.3767,-1.4569,-1.5062,-1.5531,-1.6139,-1.6995,-1.7497,-1.7936,-1.8327,-1.8823,0.0,0.0,-1.8363,-1.8359,-1.7497,-1.7506,-1.6856,-1.542,-1.5106,-1.4584,-1.3801,-1.3166,-1.2814,-1.2685,-1.221,-1.1993,-1.1957,-1.1847,-1.159,-1.1207,-1.1207,-1.0705,-0.9864,-0.9746,-0.939,-0.8878,-0.8756,-0.8716,-0.8635,-0.8234,-0.7807,-0.737,0.0,0.0,0.0,0.0,0.0,0.0,0.0,0.0,0.0,0.0,0.0,0.0,0.0,0.0,0.0,0.0,0.0,0.0,0.0,2.6738,2.7168,2.7559,2.8418,2.8848,2.8828,2.9199,2.9125,2.8611,2.9313,2.9402,2.8938,2.9815,2.9943,2.9411,2.9527,2.9158,2.8408,2.7981,2.7408,0.0,0.0,2.6661,2.5886,2.5473,2.5102,2.4647,2.3039,2.21,2.1427,1.9559,1.7723,1.6145,1.5596,1.4767,1.3964,1.3716,1.2387,1.0998,1.0596,0.9783,0.8829,0.8143,0.7149,0.5955,0.4386,0.2834,0.1256,-0.0519,-0.2347,-0.4307,-0.6354,-0.8398,-1.0198,-1.155,-1.2768,-1.379,-1.4462,-1.4729,-1.5129,-1.5959,-1.6361,-1.6799,-1.734,-1.7728,-1.7697,0.0,-1.795,-1.797,-1.6566,-1.6586,-1.5933,-1.4451,-1.4219,-1.3813,-1.3198,-1.272,-1.2508,-1.2508,-1.1557,-1.1111,-1.1073,-1.0647,-1.0273,-1.0001,0.0,-0.9658,-0.9119,-0.8878,-0.8464,-0.7915,-0.7675,-0.746,-0.7155,-0.6881,-0.6537,-0.6216,0.0,0.0,0.0,0.0,0.0,0.0,0.0,0.0,0.0,0.0,0.0,0.0,0.0,0.0,0.0,0.0,0.0,0.0,0.0,0.0,2.7676,2.8437,2.9316,2.9766,2.9766,3.0508,3.0401,2.9392,3.0202,3.0094,2.9121,3.0486,3.0765,3.0174,3.0659,3.0368,2.9499,2.9395,2.8202,2.6528,2.774,2.6796,2.4802,0.0,2.6028,2.5388,2.4728,2.3887,2.2798,2.103,1.916,1.7449,1.6815,1.6213,1.5636,1.5163,1.4136,1.3137,1.3032,1.2113,1.0839,0.9445,0.903,0.8495,0.6796,0.5617,0.4525,0.3353,0.0658,-0.1869,-0.2964,-0.6183,-0.9003,-1.0117,-1.1464,-1.2779,-1.3801,-1.3769,-1.4086,-1.5118,-1.5398,-1.5732,-1.6337,-1.638,-1.638,-1.638,-1.7723,-1.7585,-1.5437,-1.5319,-1.4784,-1.3648,-1.3242,-1.3012,-1.3012,-1.2544,-1.2318,-1.2282,-1.0826,-1.0108,-1.007,-0.9142,-0.8716,-0.8716,0.0,0.0,-0.8553,-0.7987,-0.7433,-0.6826,-0.6301,-0.5744,-0.5303,-0.5272,-0.5219,-0.5142,0.0,0.0,0.0,0.0,0.0,0.0,0.0,0.0,0.0,0.0,2.5153,2.5688,0.0,0.0,0.0,0.0,0.0,0.0,0.0,0.0,0.0,2.9375,3.0215,3.0664,3.0664,3.082,3.0401,2.9392,3.0219,3.0089,2.9121,2.9868,3.0086,2.9794,2.9712,2.9654,2.9543,2.8873,2.8347,2.8028,2.827,2.7896,2.7155,2.7003,0.0,0.0,2.5468,2.4948,2.4703,2.3771,2.1652,1.9228,1.8124,1.7396,1.6876,1.6793,1.5917,1.4902,1.4348,1.3736,1.2869,1.1545,1.0772,1.0144,0.9247,0.7905,0.6411,0.4584,0.3063,0.1097,-0.187,-0.3677,-0.5836,-0.9064,-0.9742,-1.0225,-1.1302,-1.2325,-1.3062,-1.3243,-1.4204,-1.5107,-1.5688,-1.5776,0.0,0.0,0.0,-1.5307,-1.4411,-1.3575,-1.2852,-1.2174,-1.2102,-1.2029,-1.2029,-1.1505,-1.1282,-1.1234,-1.0167,-0.9628,-0.9588,-0.8999,-0.8716,-0.8716,-0.8716,0.0,-0.7995,-0.7384,-0.6839,-0.6258,-0.5696,-0.5394,-0.5283,-0.5178,-0.4825,-0.4354,0.0,0.0,0.0,0.0,0.0,0.0,0.0,2.4375,2.4559,2.4775,2.5031,2.5576,2.66,2.6761,2.7175,0.0,0.0,0.0,0.0,0.0,0.0,0.0,3.0234,3.0449,3.0898,3.0469,2.9951,2.941,0.0,2.9646,2.9121,2.9864,3.0095,2.9845,2.9662,2.9421,2.9119,2.8164,2.7924,2.8119,2.8089,2.7889,2.7553,0.0,0.0,0.0,2.595,2.5691,2.566,2.4569,2.3022,2.1333,1.9912,1.8825,1.8011,1.7733,1.7055,1.6303,1.5997,1.5509,1.4755,1.345,1.2902,1.232,1.1022,0.9592,0.8182,0.6956,0.5524,0.3678,0.1149,-0.0954,-0.3354,-0.6599,-0.8343,-0.9738,-1.0938,-1.1772,-1.2541,-1.3226,-1.3852,-1.4468,-1.505,-1.5141,-1.5037,-1.4827,0.0,-1.3675,-1.3628,-1.2719,-1.2058,-1.1822,-1.1811,-1.1653,-1.1313,-1.0836,-1.0384,-0.9967,-0.9086,-0.8568,-0.8378,-0.8011,-0.7682,-0.7391,-0.7391,0.0,-0.6543,-0.624,-0.5771,-0.5216,-0.4957,-0.4642,-0.4388,-0.4335,-0.4036,-0.3612,0.0,0.0,0.0,0.0,0.0,0.0,0.0,2.4321,2.4528,2.4775,2.4891,2.5461,2.6801,2.6963,2.7439,0.0,0.0,0.0,0.0,0.0,0.0,0.0,0.0,0.0,3.0605,0.0,0.0,2.9416,2.9524,0.0,0.0,0.0,0.0,0.0,2.9531,2.9045,2.8331,2.7445,2.7327,0.0,0.0,2.7578,0.0,0.0,0.0,0.0,0.0,2.6759,2.6693,2.5431,2.4441,2.35,2.2058,2.0569,1.9273,1.8835,1.8218,1.7732,1.7732,1.7208,1.6422,1.5354,1.5077,1.4676,1.3027,1.1634,1.0424,0.9679,0.8136,0.6391,0.4541,0.2,-0.0675,-0.3479,-0.6211,-0.8622,-1.0303,-1.1217,-1.2049,-1.2812,-1.3464,-1.3956,-1.4272,-1.456,0.0,-1.3542,0.0,0.0,-1.2378,-1.1718,-1.1234,-1.1148,-1.1159,-1.0912,-1.0416,-1.005,-0.9551,-0.8945,-0.8085,-0.7551,-0.7295,-0.6859,-0.6422,-0.6007,-0.6007,0.0,0.0,-0.5226,-0.4923,-0.4578,-0.4314,-0.3972,-0.3576,-0.3297,-0.3033,-0.28,0.0,0.0,0.0,0.0,0.0,0.0,0.0,2.4209,2.4357,2.4746,2.4818,2.5576,2.758,2.783,2.8525,0.0,0.0,0.0,0.0,0.0,0.0,0.0,0.0,0.0,0.0,0.0,0.0,2.9491,3.0164,0.0,0.0,0.0,0.0,0.0,0.0,2.8048,2.7064,2.6767,0.0,0.0,0.0,0.0,0.0,0.0,0.0,0.0,0.0,2.8793,2.8631,2.7836,2.6801,2.5668,2.4804,2.2815,2.0797,2.0748,2.0097,1.9375,1.9375,1.8669,1.7786,1.7124,1.6933,1.6754,1.6058,1.4921,1.3701,1.2405,1.1149,0.9613,0.7423,0.5288,0.288,-0.0,-0.2193,-0.447,-0.7344,-0.9956,-1.1192,-1.0207,-1.2289,-1.3569,-1.3014,-1.4018,-1.3814,0.0,0.0,0.0,-0.9836,-0.9753,-0.9469,-0.899,-0.899,-0.895,-0.891,-0.8869,-0.8812,-0.8706,-0.7612,-0.7064,-0.6996,-0.593,-0.5432,-0.5394,-0.5394,0.0,0.0,-0.5038,-0.4925,-0.5111,-0.4087,-0.3636,-0.3465,-0.2368,-0.1949,-0.189,0.0,0.0,0.0,0.0,0.0,0.0,2.419,2.4303,2.4645,2.5435,2.5167,2.5685,2.7676,2.7928,2.8629,3.0352,0.0,0.0,0.0,0.0,0.0,0.0,0.0,0.0,0.0,0.0,2.9805,3.0215,2.995,0.0,0.0,0.0,0.0,0.0,0.0,2.8077,2.7039,2.6358,0.0,0.0,0.0,0.0,0.0,0.0,0.0,0.0,0.0,0.0,2.8894,2.8163,2.7293,2.637,2.5516,2.4249,2.2824,2.1645,2.1053,2.0718,2.0518,2.0131,1.9718,1.9141,1.9002,1.8677,1.749,1.6535,1.5581,1.4417,1.3212,1.1996,1.0672,0.9011,0.6976,0.4243,0.2913,0.0636,-0.3993,-0.6119,-0.8114,-1.0486,-1.1859,-1.2492,0.0,0.0,-1.1616,0.0,0.0,0.0,-0.8031,-0.8444,-0.872,-0.8707,-0.8198,-0.7991,-0.8193,-0.7487,-0.7059,-0.6868,-0.6289,-0.5905,-0.5721,-0.5695,-0.5382,-0.4937,-0.5179,0.0,0.0,-0.3384,-0.3046,-0.3168,-0.2702,-0.2975,-0.3525,-0.3048,-0.1964,-0.0553,0.0,0.0,0.0,0.0,0.0,2.419,2.419,2.4506,2.4978,2.5567,2.5432,2.5869,2.7349,2.7755,2.8506,2.9987,2.9848,0.0,0.0,0.0,0.0,0.0,0.0,0.0,0.0,0.0,2.9844,3.0371,2.9679,2.9617,0.0,0.0,2.9698,2.9083,0.0,0.0,0.0,0.0,0.0,0.0,0.0,0.0,0.0,0.0,0.0,0.0,0.0,0.0,0.0,0.0,0.0,2.658,2.5739,2.5112,2.4343,2.2525,2.1916,2.1773,2.1543,2.1379,2.1147,2.0686,2.0589,2.0278,1.9023,1.8182,1.7366,1.6481,1.5384,1.4317,1.3429,1.2234,1.0759,0.882,0.7377,0.5042,0.0891,-0.1658,-0.4995,-1.0051,0.0,-1.1688,0.0,-1.0425,0.0,0.0,0.0,0.0,0.0,-0.7048,-0.7465,-0.7694,-0.7104,-0.6895,-0.714,-0.6307,-0.5756,-0.5575,-0.5227,-0.4971,-0.4841,-0.5101,-0.4727,-0.3877,0.0,0.0,0.0,-0.2695,-0.1927,-0.1206,-0.0665,-0.0973,-0.1782,-0.204,-0.1074,0.057,0.0,0.0,0.0,0.0,0.0,0.0,2.419,2.4888,2.5245,2.4859,2.5491,2.6148,2.657,2.7371,2.8236,2.9151,3.0063,0.0,0.0,0.0,0.0,0.0,0.0,0.0,0.0,0.0,2.9609,2.9609,2.9475,2.9368,2.9317,2.9187,2.9102,2.9063,0.0,0.0,0.0,0.0,0.0,0.0,0.0,0.0,0.0,0.0,0.0,0.0,0.0,0.0,0.0,0.0,0.0,0.0,0.0,2.5401,2.5098,2.3624,2.2902,2.2599,2.2574,2.2243,2.1844,2.1553,2.1497,2.1409,2.1039,2.0249,1.9381,1.8685,1.7809,1.677,1.5519,1.4658,1.405,1.3757,1.0889,0.8376,0.7607,0.312,-0.2202,-0.8053,-1.0388,-1.1312,-1.0855,-0.8574,0.0,0.0,0.0,0.0,0.0,-0.5339,-0.5318,-0.5341,-0.5346,-0.5303,-0.5346,-0.5303,-0.5303,-0.5303,-0.4691,-0.453,-0.4683,-0.3932,-0.2948,0.0,0.0,0.0,0.0,-0.3581,-0.2191,0.0167,0.1943,0.2646,0.2516,0.1577,0.1273,0.1305,0.0,0.0,0.0,0.0,0.0,0.0,0.0,2.4649,2.5142,2.5563,2.5564,2.6033,2.7341,2.7736,2.8285,2.925,2.9562,0.0,0.0,0.0,0.0,0.0,0.0,0.0,0.0,0.0,2.9609,2.9609,2.8903,2.8822,2.9297,2.9206,2.9148,2.9083,2.8768,2.8083,0.0,0.0,0.0,0.0,0.0,0.0,0.0,0.0,0.0,0.0,0.0,0.0,0.0,0.0,0.0,0.0,0.0,0.0,0.0,2.4591,2.3852,2.3293,2.3082,2.2902,2.276,2.2677,2.2651,2.2557,2.2194,2.1849,2.1453,2.0719,2.0189,1.9614,1.879,1.8165,1.7576,1.6954,1.5856,1.4297,1.2128,0.8489,0.4771,0.1419,-0.6113,-1.0867,0.0,0.0,0.0,0.0,0.0,0.0,0.0,-0.5318,-0.5437,-0.5696,-0.5037,-0.49,-0.5295,-0.4508,-0.4517,-0.5281,-0.3193,-0.226,-0.2262,-0.1507,0.0,0.0,0.0,0.0,0.0,0.0693,0.0785,0.0947,0.1524,0.2141,0.2665,0.2371,0.2253,0.232,0.0,0.0,0.0,0.0,0.0,0.0,0.0,2.4721,2.5227,2.5506,2.5622,2.6124,2.7283,2.7698,2.8305,2.93,2.9629,0.0,0.0,0.0,0.0,0.0,0.0,0.0,3.0078,3.0098,2.9766,2.9101,2.8496,2.8262,2.8385,2.83,2.8579,2.9129,2.8794,2.8461,0.0,0.0,0.0,0.0,0.0,0.0,2.9533,0.0,0.0,0.0,0.0,0.0,0.0,0.0,0.0,0.0,0.0,0.0,0.0,0.0,2.447,2.4043,2.3785,2.3684,2.3663,2.3538,2.3494,2.3414,2.3127,2.2876,2.2613,2.2211,2.1824,2.1416,2.1176,2.0826,2.048,2.0031,1.9496,1.8808,1.7891,1.4464,0.0,0.5278,0.0,0.0,0.0,0.0,0.0,0.0,0.0,0.0,0.0,-0.3296,-0.3422,-0.3672,-0.3074,-0.2899,-0.3274,-0.2581,-0.2586,-0.3296,-0.1551,-0.0576,-0.0266,0.0221,0.0,0.0,0.0,0.0,0.0,0.2556,0.2363,0.1843,0.1816,0.2317,0.2992,0.2955,0.3051,0.3253,0.0,0.0,0.0,0.0,0.0,0.0,0.0,2.5023,2.5437,2.4869,2.5625,2.6326,2.6561,2.7313,2.8228,2.9319,0.0,0.0,0.0,0.0,0.0,0.0,0.0,0.0,3.0879,3.0781,2.9922,2.8301,2.8105,2.7637,2.6894,2.6772,2.7599,2.9164,2.836,2.839,0.0,0.0,0.0,0.0,0.0,0.0,0.0,0.0,0.0,0.0,0.0,0.0,0.0,0.0,0.0,0.0,0.0,0.0,0.0,0.0,0.0,0.0,0.0,2.4528,2.4459,2.4137,2.4044,2.4008,2.3916,2.343,0.0,2.3259,2.2815,2.2449,2.2652,2.2738,2.2764,2.2773,2.1903,2.1886,2.385,2.0423,0.0,0.0,-0.4992,0.0,0.0,0.0,0.0,0.0,0.0,0.0,0.0,0.0398,0.0398,0.0397,0.0397,0.0308,0.0221,0.0221,0.022,0.022,0.0264,0.0705,0.1411,0.146,0.0,0.0,0.0,0.0,0.0,0.2462,0.2805,0.2782,0.2785,0.3092,0.3517,0.3397,0.3626,0.3993,0.0,0.0,0.0,0.0,0.0,0.0,0.0,0.0,0.0,0.0,2.5227,2.58,2.6514,2.6774,2.7582,0.0,0.0,0.0,0.0,0.0,0.0,0.0,0.0,0.0,3.0898,2.959,2.8711,2.8301,2.6953,2.6504,2.6894,2.6866,2.7684,2.9198,2.8983,2.8964,0.0,0.0,0.0,0.0,0.0,0.0,0.0,0.0,0.0,0.0,2.5991,2.5381,0.0,0.0,0.0,0.0,0.0,0.0,0.0,0.0,2.5258,2.5214,2.5018,0.0,2.4697,2.4632,2.4598,2.4598,0.0,2.4444,2.4295,2.4154,2.4173,2.4076,2.3672,2.3979,2.4141,2.3682,2.3441,2.3106,2.2547,2.1445,0.0,1.149,0.7021,0.0,0.0,0.0,0.0,0.0,0.0,0.0,0.0,0.4061,0.4066,0.4061,0.4057,0.3514,0.239,0.239,0.2389,0.2389,0.3042,0.3462,0.3681,0.414,0.0,0.0,0.0,0.0,0.37,0.3913,0.389,0.3704,0.3686,0.3765,0.3868,0.3858,0.3891,0.4058,0.0,0.0,0.0,0.0,0.0,0.0,0.0,0.0,0.0,0.0,0.0,2.563,2.6505,2.6629,0.0,0.0,0.0,0.0,0.0,0.0,0.0,0.0,0.0,3.0898,3.0898,2.957,2.8691,2.8301,2.6953,2.6309,2.6348,2.6318,2.6955,2.8187,2.8875,2.9406,0.0,0.0,0.0,0.0,2.9775,0.0,0.0,0.0,0.0,0.0,2.5586,2.5133,0.0,2.4879,2.5057,2.5198,0.0,0.0,0.0,0.0,2.5428,2.5418,2.5275,2.5111,2.4987,2.4979,2.4988,2.5012,2.5101,2.5063,2.4967,2.4889,2.4892,2.4869,2.463,2.5176,2.5373,2.4471,2.509,0.0,0.0,0.0,2.2324,1.8335,1.6385,0.0,0.0,0.0,0.0,0.0,0.0,0.0,0.0,0.6008,0.5674,0.5475,0.5471,0.4867,0.3698,0.3694,0.3691,0.3714,0.4156,0.4403,0.4408,0.4895,0.4784,0.0,0.0,0.0,0.4464,0.4301,0.4199,0.4164,0.4062,0.4118,0.428,0.428,0.4409,0.4666,0.0,0.0,0.0,0.0,0.0,0.0,0.0,0.0,0.0,0.0,0.0,0.0,0.0,0.0,0.0,0.0,0.0,0.0,0.0,0.0,0.0,0.0,3.0762,3.0703,3.0703,2.9726,2.8848,2.8105,2.7226,2.6426,2.5703,2.5644,2.6149,2.7161,2.8578,2.969,0.0,0.0,2.9756,0.0,2.9621,0.0,0.0,0.0,0.0,0.0,0.0,0.0,0.0,2.5126,2.5267,2.5418,2.5438,0.0,0.0,0.0,0.0,0.0,2.5419,2.5324,2.524,2.5214,2.5227,2.526,2.5436,2.5343,2.5251,2.5379,2.5269,2.5208,2.5366,2.605,2.6129,2.4854,0.0,0.0,2.3441,2.4614,2.5263,2.4022,0.0,0.0,0.0,0.0,0.0,0.0,0.0,0.0,0.0,0.7172,0.6508,0.6066,0.6009,0.5577,0.4818,0.4639,0.4533,0.4428,0.4607,0.466,0.4595,0.5058,0.5075,0.0,0.0,0.0,0.4692,0.4379,0.4398,0.4591,0.4389,0.4532,0.4877,0.4877,0.5137,0.5522,0.0,0.0,0.0,0.0,0.0,0.0,0.0,0.0,0.0,0.0,0.0,0.0,0.0,0.0,0.0,0.0,0.0,0.0,0.0,0.0,0.0,3.0898,3.0195,2.9805,2.9805,2.8223,2.7324,2.7207,2.6328,2.582,2.5703,2.5684,2.6502,2.8036,2.8904,2.9773,3.0583,3.0429,3.0448,3.0564,3.0429,0.0,0.0,0.0,0.0,0.0,0.0,0.0,0.0,2.5354,2.5468,2.5492,2.5551,0.0,0.0,0.0,0.0,0.0,2.539,2.5425,2.5429,2.531,2.5273,2.5295,2.5322,2.5302,2.5305,2.5389,2.5387,2.5359,2.5391,2.5697,2.5504,2.4174,0.0,2.3154,0.0,0.0,2.3486,0.0,0.0,0.0,0.0,0.0,0.0,0.0,0.0,0.0,0.0,0.8916,0.8298,0.7676,0.7646,0.7291,0.6609,0.5691,0.5012,0.4591,0.5544,0.5834,0.5551,0.6572,0.665,0.0,0.0,0.5992,0.519,0.5377,0.5518,0.5666,0.5624,0.5844,0.6206,0.6206,0.6244,0.6336,0.0,0.0,0.0,0.0,0.0,0.0,0.0,0.0,0.0,0.0,0.0,0.0,0.0,0.0,0.0,0.0,0.0,0.0,0.0,0.0,2.998,2.9512,2.9101,2.9121,2.959,2.7891,2.6992,2.6992,2.6133,2.5703,2.5703,2.5703,2.6602,2.8262,2.8561,2.9425,3.0656,3.0614,3.0604,3.0604,0.0,0.0,0.0,0.0,0.0,0.0,0.0,0.0,0.0,0.0,2.5508,2.5508,2.5531,0.0,0.0,0.0,0.0,0.0,2.5286,2.5254,2.5239,2.5076,2.5215,2.541,2.541,2.541,2.5379,2.5259,2.5117,2.5051,2.5152,2.5437,2.5744,2.6079,0.0,2.2992,2.4729,2.3333,0.0,0.0,0.0,0.0,0.0,0.0,0.0,0.0,0.0,0.0,0.0,0.0,0.9442,0.8735,0.8712,0.8346,0.7646,0.7388,0.6693,0.5636,0.6167,0.6433,0.6487,0.6927,0.6987,0.6735,0.0,0.6589,0.6176,0.6146,0.6243,0.6442,0.6285,0.6336,0.6488,0.6488,0.6631,0.6811,0.0,0.0,0.0,0.0,0.0,0.0,0.0,0.0,0.0,0.0,0.0,0.0,0.0,0.0,0.0,0.0,0.0,0.0,0.0,0.0,2.8983,2.8301,2.8086,2.8291,2.8984,2.748,2.6699,2.6699,2.6035,2.5703,2.5703,2.5703,2.6621,2.8301,2.8242,2.916,3.0742,3.0667,3.0618,3.0625,0.0,0.0,0.0,0.0,0.0,0.0,0.0,0.0,0.0,0.0,0.0,0.0,0.0,0.0,0.0,2.536,2.5313,2.5233,2.498,2.4865,2.4771,2.461,2.4942,2.5335,2.5335,2.5335,2.526,2.4966,2.4749,2.4636,2.4714,2.4821,0.0,2.7138,2.4892,2.332,2.4471,0.0,0.0,0.0,0.0,0.0,0.0,0.0,0.0,0.0,0.0,0.0,0.0,0.0,1.0355,0.9785,0.9705,0.9312,0.8585,0.8962,0.8402,0.6892,0.6901,0.7029,0.7236,0.7117,0.7085,0.7085,0.7048,0.6942,0.6779,0.6655,0.6782,0.7051,0.6741,0.67,0.679,0.679,0.6978,0.7237,0.0,0.0,0.0,0.0,0.0,0.0,0.0,0.0,0.0,0.0,0.0,0.0,0.0,0.0,0.0,0.0,0.0,0.0,0.0,0.0,2.8332,2.821,2.744,2.7058,2.7187,2.6269,2.5781,2.5781,2.5723,2.5703,2.5703,2.5703,2.6621,2.8301,2.8281,2.9258,3.0878,3.0754,3.0694,3.0698,3.0637,0.0,0.0,0.0,0.0,0.0,0.0,0.0,0.0,0.0,0.0,0.0,0.0,0.0,2.537,2.518,2.4898,2.462,2.4404,2.4132,2.3879,2.3879,2.4358,2.4847,2.4847,2.4847,2.4771,2.4425,2.4323,2.4238,2.3934,2.35,2.3649,2.5084,2.385,2.311,0.0,0.0,0.0,0.0,0.0,0.0,0.0,0.0,0.0,0.0,0.0,0.0,0.0,0.0,0.0,1.1159,1.0916,1.0432,0.9703,1.002,0.9484,0.8065,0.8145,0.8004,0.7666,0.7636,0.745,0.7122,0.734,0.7098,0.6546,0.6787,0.7172,0.7608,0.7216,0.7285,0.7608,0.7608,0.7637,0.7725,0.0,0.0,0.0,0.0,0.0,0.0,0.0,0.0,0.0,0.0,0.0,0.0,0.0,0.0,0.0,0.0,0.0,0.0,0.0,2.6954,2.7179,2.6603,2.6757,2.6599,2.6081,2.5734,2.559,2.559,2.559,2.559,2.559,2.6168,2.6797,2.7441,2.8047,2.8672,2.9315,2.9752,2.9944,2.9936,2.9893,2.911,0.0,0.0,0.0,0.0,0.0,0.0,0.0,0.0,2.5512,2.5466,2.5447,2.531,2.5138,2.5056,2.4733,2.4318,2.3805,2.3649,2.3464,2.2794,2.3016,2.3562,2.4062,2.3768,2.3391,2.3415,2.3246,2.2944,2.2339,2.3241,2.3987,2.3833,2.3946,2.4207,0.0,0.0,0.0,0.0,0.0,0.0,0.0,0.0,0.0,0.0,0.0,0.0,0.0,0.0,0.0,1.1549,1.1281,1.0926,1.0494,1.0616,1.0407,0.9869,0.923,0.8895,0.8827,0.851,0.8474,0.8579,0.8376,0.8164,0.7925,0.8028,0.8212,0.8361,0.821,0.8248,0.8382,0.8382,0.8592,0.8896,0.0,0.0,0.0,0.0,0.0,0.0,0.0,0.0,0.0,0.0,0.0,0.0,0.0,0.0,0.0,0.0,0.0,0.0,2.5593,2.6156,2.6198,2.5563,2.6063,2.6083,2.5447,2.5449,2.546,2.5499,2.5499,2.5499,2.5518,2.6182,2.6644,2.6934,2.7598,2.8047,2.8339,2.8863,2.9081,2.9041,2.8978,2.8392,0.0,0.0,0.0,0.0,0.0,0.0,0.0,0.0,2.5453,2.5399,2.5301,2.5149,2.4955,2.4761,2.4388,2.3878,2.3133,2.2912,2.2681,2.1832,2.1632,2.1866,2.2705,2.2481,2.2123,2.2408,2.2192,2.1844,2.1457,2.2681,0.0,0.0,2.3681,0.0,0.0,0.0,0.0,0.0,0.0,0.0,0.0,0.0,0.0,0.0,0.0,0.0,0.0,0.0,0.0,0.0,1.1637,1.131,1.1024,1.1118,1.1085,1.0897,1.0233,0.9823,0.9574,0.9145,0.908,0.9251,0.8934,0.8789,0.8789,0.8789,0.8789,0.8828,0.9124,0.9062,0.8811,0.8996,0.9293,0.9604,0.0,0.0,0.0,0.0,0.0,0.0,0.0,0.0,0.0,0.0,0.0,0.0,0.0,0.0,0.0,0.0,0.0,0.0,2.5608,2.5611,2.5543,2.5409,2.5409,2.537,2.5303,2.5303,2.537,2.5505,2.5505,2.5505,2.5505,2.5582,2.6068,2.6894,2.6973,2.7461,2.8262,2.8203,2.8158,2.8074,2.8003,2.7426,2.6601,0.0,0.0,0.0,0.0,0.0,0.0,0.0,2.5466,2.534,2.5077,2.501,2.4873,2.4207,2.3757,2.328,2.2346,2.1857,2.1491,2.1086,2.0283,1.9869,2.0781,2.1032,2.1141,2.1417,2.1227,2.1118,2.1491,2.1582,0.0,2.2209,0.0,0.0,0.0,0.0,0.0,0.0,0.0,0.0,0.0,0.0,0.0,0.0,0.0,0.0,0.0,0.0,0.0,0.0,1.2092,1.1659,1.1318,1.1637,1.1505,1.092,1.1173,1.079,0.9805,0.947,0.9123,0.8816,0.8816,0.8816,0.8816,0.8816,0.8816,0.8916,0.9826,0.9624,0.8872,0.9424,0.9604,0.9675,0.0,0.0,0.0,0.0,0.0,0.0,0.0,0.0,0.0,0.0,0.0,0.0,0.0,0.0,0.0,0.0,0.0,0.0,2.5593,2.5556,2.5505,2.5466,2.539,2.5322,2.5303,2.5303,2.5322,2.537,2.537,2.537,2.537,2.6063,2.62,2.5931,2.6637,2.6758,2.6504,2.7008,2.7206,2.7187,2.7055,2.6841,2.6524,0.0,0.0,0.0,0.0,0.0,0.0,0.0,0.0,0.0,2.5077,2.4943,2.478,2.4456,2.385,2.3077,2.2207,2.1761,2.1368,2.033,2.0089,1.9989,1.96,1.9243,1.9118,1.9521,2.01,2.0317,1.9758,2.0701,0.0,0.0,0.0,0.0,0.0,0.0,0.0,0.0,0.0,0.0,0.0,0.0,0.0,0.0,0.0,0.0,0.0,0.0,0.0,0.0,1.2533,1.23,1.2204,1.2128,1.1982,1.1796,1.1688,1.1273,1.0567,1.047,1.0371,1.0272,1.0272,1.0134,0.9932,0.9932,0.9932,0.9945,1.0225,1.0161,0.9906,0.9845,1.0326,1.1045,0.0,0.0,0.0,0.0,0.0,0.0,0.0,0.0,0.0,0.0,2.4809,2.4937,0.0,0.0,0.0,0.0,0.0,0.0,0.0,2.5519,2.547,2.5409,2.5341,2.5303,2.5303,2.5303,2.5303,2.5303,2.5303,2.5303,2.5303,2.59,2.5944,2.5525,2.6117,2.6133,2.5722,2.6155,2.6301,2.6268,2.6168,2.612,2.6024,0.0,0.0,0.0,0.0,0.0,0.0,0.0,0.0,0.0,2.4993,2.4869,2.4697,2.4137,2.3599,2.2961,2.1838,2.1453,2.107,1.998,1.9717,1.9477,1.8482,1.8341,1.8444,1.8517,1.9156,1.9728,1.9682,2.0423,0.0,0.0,0.0,0.0,0.0,0.0,0.0,0.0,0.0,0.0,0.0,0.0,0.0,0.0,0.0,0.0,0.0,0.0,0.0,0.0,1.2741,1.261,1.261,1.2435,1.2372,1.2372,1.2195,1.193,1.1549,1.1219,1.1001,1.0897,1.0897,1.0801,1.0605,1.0605,1.0605,1.0608,1.0836,1.0796,1.0597,1.0611,1.1056,1.1694,0.0,0.0,0.0,0.0,0.0,0.0,0.0,0.0,0.0,0.0,2.467,2.4855,0.0,0.0,0.0,0.0,0.0,0.0,0.0,0.0,2.5447,2.5313,2.5303,2.5303,2.5303,2.5303,2.5303,2.5303,2.5303,2.5303,2.5303,2.537,2.5428,2.5486,2.5561,2.5625,2.5683,2.5615,2.5563,2.5486,2.5428,2.5341,2.5303,2.5303,0.0,0.0,0.0,0.0,0.0,0.0,0.0,0.0,2.4896,2.479,2.4567,2.3538,2.3212,2.2888,2.1442,2.1023,2.0797,1.9925,1.9244,1.8574,1.7544,1.8066,1.8612,1.8145,1.8496,1.931,2.0649,2.0473,2.0448,0.0,0.0,0.0,0.0,0.0,0.0,0.0,0.0,0.0,0.0,0.0,0.0,0.0,0.0,0.0,0.0,0.0,0.0,1.3086,1.2836,1.2689,1.2689,1.2649,1.263,0.0,1.261,1.261,1.2572,1.1745,1.1242,1.0991,1.0944,1.0944,1.0944,1.0944,1.0944,1.0976,1.1479,1.138,1.099,1.1468,1.165,1.1799,0.0,0.0,0.0,0.0,0.0,0.0,0.0,0.0,0.0,0.0,0.0,0.0,0.0,0.0,0.0,0.0,0.0,0.0,0.0,0.0,2.5465,2.539,2.5322,2.5303,2.5303,2.5303,2.5303,2.5303,2.5303,2.5303,2.5303,2.5303,2.537,2.5418,2.5496,2.5564,2.5625,2.555,2.5515,2.5486,2.537,2.5303,2.5303,2.537,2.5428,0.0,0.0,0.0,0.0,0.0,0.0,0.0,2.4855,2.4685,2.4442,2.3783,2.3414,2.2937,2.1703,2.1195,2.0797,1.9925,1.8968,1.8106,1.7463,1.7463,1.7626,1.7504,1.8224,1.9103,1.9798,1.9931,0.0,0.0,0.0,0.0,0.0,0.0,0.0,0.0,0.0,0.0,0.0,0.0,0.0,0.0,0.0,0.0,0.0,0.0,0.0,1.3706,1.3506,1.3376,1.3376,1.3071,1.2906,0.0,1.2687,1.261,1.2591,1.2195,1.1876,1.1593,1.1333,1.1219,1.1219,1.1219,1.1219,1.1233,1.1338,1.131,1.1187,1.1107,1.1344,1.177,0.0,0.0,0.0,0.0,0.0,0.0,0.0,0.0,0.0,0.0,0.0,0.0,0.0,0.0,0.0,0.0,0.0,0.0,0.0,0.0,2.5466,2.537,2.5233,2.5152,2.5152,2.5152,2.5152,2.5152,2.5253,2.5303,2.5303,2.5303,2.5341,2.539,2.5445,2.5503,2.5605,2.5533,2.5507,2.5486,2.539,2.5322,2.5303,2.537,2.5444,2.5507,2.5591,0.0,0.0,0.0,0.0,0.0,0.0,0.0,2.4491,2.3681,2.3346,2.2912,2.1602,2.1118,2.0797,1.9925,1.9281,1.865,1.7867,1.7867,1.7987,1.7747,1.8145,1.8823,1.9851,0.0,0.0,0.0,0.0,0.0,0.0,0.0,0.0,0.0,0.0,0.0,0.0,0.0,0.0,0.0,0.0,0.0,0.0,1.4221,1.411,1.3913,1.3795,1.3736,1.3736,1.3443,1.3295,1.3278,1.3087,1.2908,1.2778,1.2372,1.2107,1.1961,1.1681,1.1534,1.1534,1.1534,1.1534,1.1534,1.1534,1.1534,1.1512,1.137,1.1517,1.1832,0.0,0.0,0.0,0.0,0.0,0.0,0.0,0.0,0.0,0.0,0.0,0.0,0.0,0.0,0.0,0.0,0.0,0.0,0.0,0.0,0.0,2.5303,2.5099,2.501,2.501,2.4974,2.4962,2.4962,2.513,2.5233,2.5253,2.5253,2.5302,2.539,2.537,2.5434,2.5556,2.5526,2.5506,2.5506,2.5438,2.539,2.5322,2.539,2.5453,2.5488,2.558,2.5556,2.5479,2.55,0.0,0.0,0.0,0.0,2.457,2.3559,2.3253,2.2912,2.1546,2.1039,2.0665,1.9803,1.9566,1.9332,1.8341,1.8458,1.8688,1.8405,1.8288,1.8722,2.0297,0.0,0.0,0.0,0.0,0.0,0.0,0.0,0.0,0.0,0.0,0.0,0.0,0.0,0.0,0.0,0.0,0.0,1.4464,1.4344,1.4201,1.4011,1.3969,1.3955,1.3955,1.3751,1.3648,1.3634,1.3479,1.3278,1.3049,1.2549,1.2312,1.2251,1.2045,1.194,1.194,1.1876,1.1869,1.1854,1.1826,1.1805,1.1805,1.1805,1.1805,1.188,0.0,0.0,0.0,0.0,0.0,0.0,0.0,0.0,0.0,0.0,2.4478,2.462,0.0,0.0,0.0,0.0,0.0,0.0,2.5507,0.0,0.0,2.5303,2.5099,2.501,2.501,2.4877,2.4832,2.4832,2.4842,2.4936,2.5034,2.5034,2.5141,2.5303,2.5187,2.5245,2.5429,2.5483,2.5507,2.5494,2.5488,2.5447,2.539,2.5466,2.5459,2.5426,2.5559,2.5525,2.5418,2.547,2.5299,0.0,0.0,0.0,2.4425,2.3821,2.3414,2.3028,2.219,2.1194,2.0177,1.9251,1.9006,1.8855,1.8263,1.8185,1.843,0.0,1.9089,1.9244,0.0,0.0,0.0,0.0,0.0,0.0,0.0,0.0,0.0,0.0,0.0,0.0,0.0,0.0,0.0,0.0,0.0,0.0,1.4678,1.4637,1.4563,1.4411,1.4257,1.4162,1.4162,1.3969,1.3801,1.3669,1.3479,1.3379,1.3346,1.3015,1.2759,1.2533,1.2514,1.2494,1.2475,1.2251,1.2164,1.2107,1.1876,1.1805,1.1805,1.1805,1.1805,1.1805,0.0,0.0,0.0,0.0,0.0,0.0,0.0,0.0,0.0,0.0,0.0,2.4459,0.0,0.0,0.0,2.5466,2.5499,2.5502,2.5498,2.5407,2.5292,2.5141,2.4968,2.4836,2.4723,2.4651,2.4623,2.4623,2.4746,2.4828,2.4877,2.478,2.4877,2.5122,2.5064,2.5107,2.5245,2.5383,2.546,2.5508,2.5506,2.5465,2.541,2.5466,2.5456,2.541,2.5544,2.554,2.5466,2.5484,2.5388,2.5198,2.4987,0.0,0.0,0.0,2.3406,2.2954,2.1811,2.0911,2.0143,1.95,1.9369,1.9207,1.865,1.8779,1.9103,1.9513,1.9656,0.0,0.0,0.0,0.0,0.0,0.0,0.0,0.0,0.0,0.0,0.0,0.0,0.0,0.0,0.0,0.0,0.0,0.0,1.4958,1.4863,1.4831,1.4785,1.4736,1.4574,1.4478,1.4478,1.4208,1.3969,1.3801,1.3711,1.3665,1.3665,1.3444,1.3158,1.2815,1.2668,1.261,1.2591,1.2475,1.2416,1.2416,1.2296,1.2256,1.2256,1.2256,1.2256,1.2298,0.0,0.0,0.0,0.0,0.0,0.0,0.0,0.0,0.0,0.0,0.0,0.0,0.0,0.0,0.0,0.0,2.5499,2.5504,2.5503,2.5428,2.5252,2.501,2.4864,2.47,2.4512,2.4444,2.4409,2.4409,2.4559,2.467,2.4716,2.4528,2.4588,2.4885,2.4924,2.4996,2.5079,2.5312,2.5446,2.5505,2.5525,2.5492,2.5454,2.5481,2.5466,2.5428,2.5524,2.5537,2.5488,2.5502,2.547,2.534,2.5034,2.4872,0.0,0.0,0.0,2.2888,2.1532,2.091,2.0516,1.9965,1.9839,1.9732,1.9207,1.95,1.9823,0.0,2.0215,0.0,0.0,0.0,0.0,0.0,0.0,0.0,0.0,0.0,0.0,0.0,0.0,0.0,0.0,0.0,0.0,0.0,0.0,1.5068,1.5023,1.497,1.4944,1.4904,1.4804,1.4737,1.4707,1.4362,1.4123,1.3983,1.3927,1.3913,1.3881,1.3736,1.3523,1.321,1.2928,1.2799,1.2799,1.2724,1.2687,1.2687,1.263,1.261,1.261,1.261,1.261,1.2668,0.0,0.0,0.0,0.0,0.0,0.0,0.0,0.0,0.0,0.0,0.0,0.0,2.4775,2.4917,2.5134,2.5476,2.5499,2.5492,2.5498,2.5379,2.5214,2.501,2.4864,0.0,2.4512,2.4321,2.4209,2.4209,2.4228,2.4339,2.4512,2.4321,2.4339,2.4526,2.4731,2.4877,2.5022,2.5301,2.5438,2.5502,2.5579,2.5586,2.5582,2.5515,2.5466,2.5409,2.5486,2.5466,2.5417,2.5546,2.5517,2.534,2.4948,2.4807,2.4716,0.0,0.0,0.0,2.1874,2.1552,2.1321,2.0467,2.028,2.0143,1.9732,0.0,2.028,2.0265,0.0,0.0,0.0,0.0,0.0,0.0,0.0,0.0,0.0,0.0,0.0,0.0,0.0,0.0,0.0,0.0,0.0,0.0,0.0,1.5228,1.5107,1.5081,1.5023,1.4913,1.4895,1.4822,1.4707,1.4362,1.4188,1.4175,1.3997,1.3913,1.3899,1.3899,1.3867,1.3824,1.351,1.3363,1.3346,1.3085,1.2995,1.2942,1.2687,1.261,1.261,1.261,1.261,1.2707,0.0,0.0,0.0,0.0,0.0,0.0,0.0,0.0,0.0,0.0,0.0,0.0,0.0,2.464,2.4987,2.5283,2.5508,2.5531,2.532,2.5388,2.5267,2.4896,2.4832,2.47,2.4512,2.4097,2.3876,2.3876,2.3876,2.3919,2.3983,2.3919,2.3919,2.4002,2.4424,2.462,2.4693,2.4915,2.5103,2.5255,2.5309,2.5416,2.5526,2.5508,2.5464,2.5409,2.5428,2.5456,2.5469,2.5523,2.5526,2.5495,2.525,2.5025,2.4636,2.3801,2.3253,2.2678,2.1832,2.1582,2.146,2.0878,2.0764,2.0731,2.0581,2.0632,2.0813,2.1102,0.0,0.0,0.0,0.0,0.0,0.0,0.0,0.0,0.0,0.0,0.0,0.0,0.0,0.0,0.0,0.0,0.0,0.0,0.0,0.0,1.5226,1.5226,1.5204,1.5164,1.503,1.4873,1.4707,1.4585,1.4474,1.4387,1.4307,1.4282,1.4282,1.4149,1.4078,1.4065,1.3678,1.3524,1.3508,1.3329,1.326,1.326,1.3139,1.3104,1.3104,1.3104,1.3104,1.3186,0.0,0.0,0.0,0.0,0.0,0.0,0.0,0.0,0.0,2.3069,0.0,0.0,0.0,0.0,2.4758,2.5048,2.5265,2.539,2.535,2.5362,2.5227,2.4905,2.4842,2.47,2.4512,2.4155,2.3881,2.3692,2.3692,2.3692,2.3692,2.3588,2.3588,2.3714,2.3945,2.41,2.4173,2.4516,2.4653,2.4708,2.5034,2.5212,2.5312,2.5444,2.5479,2.5466,2.5764,2.5702,2.5517,2.583,2.5753,2.551,2.5391,2.5063,2.4578,2.372,2.3177,2.2746,2.213,2.1907,2.1735,2.1323,2.1213,2.115,2.1023,2.1086,2.1275,2.1552,0.0,0.0,0.0,0.0,0.0,0.0,0.0,0.0,0.0,0.0,0.0,0.0,0.0,0.0,0.0,0.0,0.0,0.0,0.0,0.0,1.5788,1.5745,1.5583,1.5272,1.5094,1.4946,1.4794,1.4728,1.4656,1.4578,1.4522,1.4488,1.4506,1.4362,1.4295,1.4282,1.3955,1.3721,1.3601,1.3462,1.3396,1.3396,1.3396,1.3396,1.3396,1.3396,1.3396,1.3464,0.0,0.0,0.0,0.0,0.0,0.0,0.0,0.0,2.3045,2.2721,0.0,0.0,0.0,0.0,0.0,2.4748,2.4803,2.5046,2.5566,2.5284,2.5106,2.509,2.4905,2.4716,2.451,2.4495,2.4229,2.3714,2.3692,2.3692,2.3671,2.3346,2.3346,2.3649,2.3282,2.3234,2.3437,2.4008,2.4098,2.3971,2.4727,2.4975,2.4941,2.5351,2.5524,2.5649,2.6523,2.6254,0.0,2.6533,0.0,0.0,2.5294,2.4954,2.4523,2.4117,2.3627,2.3141,0.0,0.0,0.0,2.1718,2.1628,2.1521,2.1118,0.0,2.1642,2.1642,0.0,0.0,0.0,0.0,0.0,0.0,0.0,0.0,0.0,0.0,0.0,0.0,0.0,0.0,0.0,0.0,0.0,0.0,0.0,1.7613,1.6753,1.6609,1.6153,1.5234,1.5082,1.5014,1.4995,1.4803,1.4717,1.4688,1.4578,1.4499,1.4511,1.4499,1.4517,1.4488,1.4295,1.3983,1.3617,1.3462,1.3413,1.3413,1.3396,1.3396,1.3396,1.3396,1.3396,1.3515,0.0,0.0,0.0,0.0,0.0,2.2296,2.2398,2.2395,2.2289,0.0,0.0,0.0,2.218,2.2914,2.3676,2.4044,2.4924,2.5436,2.5391,2.5437,2.5371,2.5169,2.4936,2.4848,2.4927,2.4278,2.3925,2.3928,2.3512,2.3346,2.3346,2.2996,2.2712,2.2539,2.218,2.1699,2.1196,2.2494,2.3285,2.3619,2.3596,2.4057,2.4851,2.5576,2.6064,0.0,0.0,2.7505,2.7332,0.0,2.7535,2.7193,2.6342,2.5558,2.4834,2.419,2.3891,2.3608,2.2888,0.0,0.0,0.0,0.0,0.0,0.0,0.0,0.0,0.0,0.0,0.0,0.0,0.0,0.0,0.0,0.0,0.0,0.0,0.0,0.0,0.0,0.0,0.0,0.0,0.0,0.0,0.0,1.8008,1.7617,1.6755,1.6075,1.5592,1.5272,1.5229,1.5159,1.5063,1.4973,1.489,1.4832,1.4707,1.4697,1.4794,1.4687,1.4645,1.4635,1.4437,1.4228,1.4011,1.3678,1.354,1.3524,1.3429,1.3396,1.3396,1.3396,1.3396,1.3515,0.0,0.0,0.0,0.0,0.0,2.1919,2.1986,2.1936,2.1757,0.0,0.0,0.0,2.1808,1.8961,1.6439,1.4794,1.8513,2.0986,2.1074,2.3848,2.5441,2.5373,2.5107,2.5027,2.513,2.458,2.4153,2.3826,2.3623,2.3338,2.2996,2.2797,2.2495,2.2096,2.1744,2.1085,2.0258,2.1017,2.1652,2.215,2.2495,2.3174,2.4105,2.5111,2.596,0.0,0.0,0.0,2.7822,2.7695,2.7297,0.0,0.0,2.5418,2.5014,2.4582,2.4238,2.3912,2.3491,2.328,2.3141,2.2855,0.0,0.0,2.2527,2.2704,0.0,0.0,0.0,0.0,0.0,0.0,0.0,0.0,0.0,0.0,0.0,0.0,0.0,0.0,0.0,0.0,0.0,1.9795,0.0,1.9121,1.9082,1.8691,1.7793,1.659,1.5901,1.5835,1.5482,1.5255,1.517,1.5089,1.5021,1.4933,1.4822,1.4822,1.4904,1.4813,1.4756,1.4688,1.4587,1.4456,1.4295,1.3983,1.3795,1.3724,1.3575,1.3511,1.3478,1.343,1.3396,1.3464,0.0,0.0,2.126,2.2077,2.1794,2.1444,2.1411,2.135,2.1149,0.0,2.0257,1.9891,1.9741,1.2384,0.5915,0.2038,0.816,1.2684,1.3794,2.0094,2.3932,2.4259,2.484,2.5163,2.5214,2.5128,2.4745,2.4055,2.4052,2.3671,2.2927,2.273,2.2415,2.1955,2.1609,2.0911,1.9932,1.9453,1.9489,2.0008,2.1344,2.2289,2.2986,0.0,2.5455,2.6536,2.7281,2.7557,2.7497,2.7191,2.6176,0.0,0.0,0.0,0.0,2.5095,2.4617,2.4133,2.4271,2.3856,2.3388,2.3494,2.3418,0.0,2.288,2.3028,2.3165,0.0,0.0,0.0,0.0,0.0,0.0,0.0,0.0,0.0,0.0,0.0,0.0,0.0,0.0,0.0,2.0704,2.0617,2.0605,2.0605,2.0508,2.0098,1.9258,1.7617,1.6676,1.6603,1.5777,1.5313,1.5303,1.5188,1.5101,1.5028,1.495,1.4919,1.4938,1.493,1.485,1.4728,1.4728,1.4637,1.4511,1.4332,1.4118,1.3913,1.3774,1.3682,1.3617,1.3478,1.3481,1.3565,0.0,2.1055,2.115,2.1658,2.107,2.0489,2.0238,1.963,1.9104,1.8869,1.3882,0.8932,0.5368,0.2555,0.083,0.0559,-0.0236,0.1027,0.5268,1.1008,1.4787,1.5965,2.16,2.4917,2.5348,2.508,2.5572,2.6912,2.5181,2.4354,2.4356,2.3007,2.1969,2.118,2.0701,1.9743,1.844,1.7464,1.7356,1.8023,1.9848,2.1084,2.2046,2.3815,2.5113,2.6068,2.6565,2.6962,2.7191,2.6673,2.5648,2.4726,0.0,0.0,0.0,2.5035,0.0,2.4732,2.4456,2.4428,2.4364,0.0,0.0,0.0,2.3426,2.3494,2.3588,0.0,0.0,0.0,0.0,0.0,0.0,0.0,0.0,0.0,0.0,0.0,0.0,0.0,0.0,0.0,2.1552,2.0968,2.0605,2.0605,1.9941,1.9473,1.9297,1.7637,1.6699,1.6678,1.5838,1.5387,1.5381,1.5302,1.5247,1.5248,1.5114,1.5082,1.514,1.5033,1.497,1.4935,1.4935,1.482,1.4666,1.4616,1.4421,1.4123,1.3927,1.3856,1.3827,1.3632,1.3969,1.459,1.9334,1.9241,1.9486,2.0686,1.9637,1.8972,2.0068,1.6756,1.3568,1.2037,0.5298,-0.0319,-0.2822,-0.7772,-1.0864,-1.068,-0.8486,-0.5953,-0.322,0.3357,0.8541,1.1553,1.6123,2.051,2.4555,2.4623,2.5274,2.6652,2.6263,2.5548,2.4569,2.3632,2.2524,2.1275,2.032,1.9177,1.7875,1.6847,1.6262,1.6164,1.7924,0.0,2.0619,2.2394,2.3431,2.4134,2.5574,2.6044,2.5825,2.5062,2.4164,0.0,2.3978,2.406,2.4072,0.0,2.4801,2.4734,0.0,0.0,0.0,2.4507,0.0,0.0,0.0,2.3929,2.4002,2.3756,2.3976,2.4247,0.0,0.0,0.0,0.0,0.0,0.0,0.0,0.0,0.0,0.0,0.0,0.0,2.1822,2.1415,2.0997,2.0545,2.0098,1.9842,1.9842,1.8649,1.7949,1.7949,1.7129,1.6484,1.6055,1.6029,1.576,1.5298,1.5229,1.5214,1.5247,1.5153,1.5056,1.4995,1.4995,1.4923,1.4794,1.4737,1.4606,1.4421,1.4144,1.4038,1.4024,1.381,1.4259,1.4995,1.7143,1.7074,1.7397,1.9233,1.7984,1.7113,1.8178,1.2447,0.6551,0.2649,-0.4673,-0.961,-0.9818,-1.6784,-2.1537,-2.181,-1.5825,-1.1976,-1.1774,-0.5384,0.0694,0.5862,0.8856,1.3958,2.1545,2.3291,2.491,2.6627,2.7128,2.6541,2.4935,2.4353,2.3163,2.1437,2.0138,1.8852,1.7612,1.6536,1.5579,1.4913,0.0,1.7435,1.8789,2.0464,2.1351,2.2075,2.4377,2.4803,2.4127,2.3265,2.253,2.2027,2.2364,2.2728,0.0,0.0,0.0,0.0,0.0,0.0,0.0,0.0,0.0,2.4743,0.0,0.0,0.0,2.3984,2.4116,0.0,0.0,0.0,0.0,0.0,0.0,0.0,0.0,0.0,0.0,0.0,0.0,0.0,0.0,2.2088,2.1724,2.0968,2.0896,2.0823,2.0648,1.9885,1.9346,1.9196,1.8398,1.7559,1.6699,1.6699,1.6246,1.5314,1.5323,1.5308,1.5291,1.5234,1.5159,1.5035,1.5035,1.4985,1.4911,1.4804,1.4738,1.4658,1.4362,1.4257,1.4245,1.4217,1.4695,1.5386,1.5025,1.555,1.5879,1.705,1.6672,1.4808,1.0779,0.5528,-0.0656,-0.8237,-1.5956,-2.0599,-2.0172,-2.187,-2.2924,-2.2605,-2.1143,-2.0342,-2.0532,-1.8384,-1.4048,-0.7279,-0.0902,0.608,1.3711,2.0092,2.561,3.0316,2.7543,2.642,2.6841,2.491,2.2963,2.1026,1.9922,1.8595,1.7099,1.5541,1.5037,0.0,1.5028,1.5564,0.0,1.8247,1.9729,2.1156,2.279,2.3114,2.266,0.0,2.1493,2.1301,0.0,2.2434,2.2782,2.4275,0.0,0.0,0.0,0.0,0.0,0.0,2.5212,0.0,0.0,0.0,2.476,2.4697,0.0,0.0,0.0,0.0,0.0,0.0,0.0,0.0,0.0,0.0,0.0,0.0,0.0,0.0,0.0,2.3267,2.281,2.272,2.27,2.2362,2.1586,2.0718,1.9914,1.9149,1.8331,1.748,1.6621,1.668,1.6269,1.539,1.5388,1.5368,1.5291,1.5291,1.5247,1.5177,1.5177,1.5114,1.4992,1.4966,1.4865,1.4668,1.4533,1.4464,1.4526,1.5049,1.5692,1.6438,1.1661,1.2348,1.3113,1.4721,1.218,0.8959,0.6117,-0.3753,-1.2568,-1.7309,-2.1342,-2.399,-2.4626,-2.5081,-2.5205,-2.4869,-2.4574,-2.4198,0.0,-2.1947,-1.9126,-1.5133,-0.8435,-0.1746,0.4696,1.1979,1.8054,2.2781,2.6843,2.7887,2.6021,2.5367,2.3819,2.1577,2.0152,1.8714,1.73,1.6065,1.486,0.0,0.0,1.3841,0.0,1.6658,1.8996,2.0873,2.1312,2.1921,2.2455,0.0,2.1448,0.0,0.0,0.0,0.0,2.3028,0.0,0.0,0.0,0.0,0.0,0.0,0.0,0.0,2.5096,0.0,2.5005,0.0,0.0,0.0,0.0,0.0,0.0,0.0,2.5087,0.0,0.0,0.0,0.0,0.0,0.0,0.0,0.0,0.0,0.0,0.0,2.2879,2.2725,2.2367,2.204,2.1456,2.0585,2.0254,1.9461,1.8125,1.7637,1.6973,1.6152,1.5644,1.5385,1.5365,1.5328,1.5272,1.5253,1.5253,1.5197,1.5101,1.5035,1.4943,1.4865,1.4678,1.4578,1.4524,1.4794,1.5377,1.6133,0.6947,0.8687,1.0354,1.0934,0.6509,0.1487,-0.2571,-1.2647,-2.0676,-2.313,-2.4686,-2.5891,-2.6819,-2.7044,-2.6878,-2.631,-2.6162,-2.57,0.0,0.0,-2.1083,-1.9136,-1.4063,0.0,-0.426,0.4218,1.0719,1.5042,2.4369,2.8006,2.6288,2.587,2.4275,2.1682,2.0348,1.8752,1.7047,1.6216,1.4821,1.3134,1.3368,1.2893,1.2406,1.5629,1.8309,2.0397,2.0619,2.1596,2.2773,2.2569,2.1724,0.0,2.0959,0.0,0.0,0.0,0.0,0.0,2.3995,0.0,0.0,0.0,0.0,0.0,0.0,0.0,0.0,0.0,0.0,0.0,0.0,0.0,2.5312,2.5463,0.0,2.4878,0.0,0.0,0.0,0.0,0.0,0.0,0.0,0.0,0.0,2.3485,2.3485,2.3389,2.3167,2.3195,2.2829,2.1952,2.1768,2.0971,1.9524,1.8669,1.7715,1.668,1.6055,1.5625,1.5391,1.5349,1.5318,1.5292,1.5303,1.5253,1.5189,1.5095,1.5035,1.4999,1.4839,1.4688,1.4574,1.4768,1.5197,1.5839,0.0495,0.488,0.7882,0.5083,0.0052,-0.7314,-1.8265,-2.022,-2.1547,-2.4544,-2.6649,-2.7753,-2.7333,0.0,0.0,0.0,0.0,-2.4954,-2.3983,0.0,-2.1126,0.0,0.0,-1.536,0.0,-0.1483,0.6269,1.0299,1.9374,2.5624,2.9035,2.6555,2.3769,2.083,2.0383,1.8558,1.574,1.5311,1.4958,1.4668,1.376,1.3145,1.3032,0.0,1.7491,1.9546,2.1097,0.0,0.0,2.2741,2.231,0.0,0.0,0.0,0.0,0.0,0.0,0.0,0.0,0.0,0.0,2.4642,0.0,0.0,0.0,0.0,2.5292,0.0,0.0,0.0,0.0,0.0,2.5421,2.5488,2.5525,0.0,0.0,0.0,0.0,0.0,0.0,0.0,0.0,0.0,0.0,2.5226,2.5226,2.4889,2.411,2.4052,2.3667,2.2802,2.201,2.117,2.0269,1.9536,1.8301,1.6602,1.6641,1.6211,1.5391,1.539,1.5353,1.5299,1.5292,1.5253,1.5189,1.5209,1.5127,1.4995,1.4988,1.4873,1.478,1.5422,1.5674,1.5931,-0.4278,-0.3547,-0.2302,-0.0691,-0.3226,-0.8738,-1.8493,-2.1843,0.0,0.0,-2.8109,0.0,0.0,-2.8572,-2.7904,0.0,0.0,-2.4663,-2.3943,-2.2541,0.0,0.0,0.0,-1.5706,0.0,0.0,-0.2833,0.5116,1.3596,2.0939,2.711,2.5678,2.419,2.2645,2.0857,1.8923,1.695,1.6305,1.5275,0.0,0.0,1.2531,1.2337,0.0,0.0,1.7461,1.9397,2.108,0.0,2.3034,2.2835,2.2254,2.1549,2.118,2.0975,2.0863,2.1173,0.0,0.0,0.0,2.3106,2.3668,0.0,0.0,0.0,0.0,0.0,0.0,0.0,0.0,0.0,2.535,2.5473,2.5503,2.5524,2.5534,0.0,0.0,0.0,0.0,0.0,0.0,0.0,0.0,0.0,2.5303,2.5303,2.5168,2.4909,2.4889,2.4524,2.3687,2.3407,2.2579,2.1163,2.034,1.9351,1.8242,1.7144,1.6484,1.6172,1.5644,1.5389,1.5356,1.5327,1.5291,1.5253,1.5214,1.5177,1.5127,1.5035,1.495,1.49,1.4997,1.5328,1.5931,-0.7065,-0.7948,-0.7949,-0.6027,-0.8152,-1.2483,0.0,0.0,0.0,0.0,-2.8895,0.0,-2.9683,0.0,-2.7542,0.0,-2.5306,-2.3933,-2.3356,-2.1739,0.0,-1.7961,-1.6862,0.0,0.0,0.0,0.0,0.1672,0.8752,1.6376,2.4293,2.4182,2.3752,2.2994,2.1108,1.9265,1.7523,1.6528,1.5578,0.0,0.0,1.2925,0.0,0.0,1.4924,1.6411,0.0,2.0517,2.2079,2.3357,2.3388,2.2737,2.1782,2.1272,2.0862,2.0261,2.0452,2.0927,2.1176,2.1608,0.0,2.2663,2.3231,0.0,2.4056,0.0,0.0,0.0,0.0,0.0,0.0,0.0,2.5252,2.5248,2.5307,2.5389,0.0,2.5554,0.0,0.0,0.0,0.0,0.0,0.0,2.539,2.5341,2.5303,2.5303,0.0,0.0,2.5063,2.4543,2.4245,2.358,2.2491,2.1347,2.0352,1.9516,1.8146,1.7187,1.6582,1.6055,1.5664,1.539,1.534,1.5323,1.5291,1.5253,1.5214,1.5189,1.5101,1.5042,1.5004,1.5094,1.5732,1.6702,-0.7999,-0.8497,-0.9163,0.0,-1.4499,0.0,0.0,0.0,-2.6551,0.0,-2.9058,-2.9059,-2.9013,-2.7465,-2.6355,-2.6148,-2.4189,-2.2708,-2.2107,-2.0395,0.0,0.0,-1.432,-1.2841,-1.0443,0.0,0.0,0.0,0.5308,1.2363,2.1069,2.238,2.2666,2.203,2.1274,1.9761,1.7709,1.6224,1.5938,1.6336,1.5478,1.4246,1.2956,1.4215,1.5292,1.6408,1.8885,2.0827,2.2421,2.3678,2.3877,2.3394,2.1973,2.1287,2.0829,1.996,1.969,1.9859,2.0572,2.0767,2.0956,2.1714,0.0,0.0,0.0,0.0,2.3879,0.0,0.0,0.0,0.0,0.0,0.0,2.4809,2.4965,2.5178,2.5447,0.0,0.0,0.0,0.0,0.0,0.0,2.5485,2.5399,2.5409,2.538,2.5341,0.0,0.0,2.5331,2.5293,2.4534,2.4139,2.4082,2.2472,2.122,2.035,1.9492,1.8241,1.6659,1.6621,1.6152,1.5391,1.5391,1.5355,1.5291,1.5291,1.5253,1.5189,1.5189,1.5146,1.5137,1.5693,1.6812,1.8074,-0.8084,-1.0957,-1.3708,0.0,-1.7885,-2.0436,0.0,0.0,0.0,0.0,-2.8237,-2.8571,-2.777,-2.634,-2.5445,-2.5386,-2.2649,0.0,0.0,0.0,0.0,-1.3914,-1.3694,-1.2205,-0.9233,-0.6527,-0.2857,0.1913,0.0,1.3819,2.157,2.3589,2.4503,2.4392,2.344,2.2048,2.0319,1.8976,1.727,1.5542,1.5807,1.4924,0.0,0.0,1.5118,1.6022,1.8381,2.0639,2.2656,2.3688,2.3976,2.3691,2.2436,2.1541,2.0829,1.996,1.969,1.9747,1.9949,2.0181,2.0619,2.1404,2.1956,2.2444,0.0,0.0,0.0,0.0,0.0,0.0,0.0,0.0,0.0,2.4762,2.493,2.5083,2.5197,0.0,0.0,2.5584,0.0,0.0,2.5464,2.5498,2.5432,2.5322,2.5909,2.5986,2.5322,0.0,0.0,2.5107,2.4878,2.4476,2.3872,2.2968,2.2051,2.1177,1.9761,1.8542,1.7462,1.6875,1.6152,1.5391,1.5391,1.5394,1.5368,1.5311,1.5291,1.5272,1.5214,1.5471,1.5885,1.5908,1.652,1.7435,-0.9291,-1.2807,0.0,-1.74,0.0,0.0,-2.2631,-2.5464,0.0,-2.7123,-2.7434,0.0,-2.6841,-2.5321,-2.4135,-2.3606,-2.1043,0.0,-1.8712,0.0,0.0,-1.3103,-1.1924,-0.9256,-0.5022,-0.2948,0.0,0.5304,0.0,1.4073,1.967,2.189,2.3642,2.4813,2.3863,2.2901,2.1825,2.0224,1.8184,1.6076,1.6977,1.635,0.0,1.5867,1.6641,1.749,1.94,2.0861,2.2203,2.3802,2.4188,2.3847,2.2975,2.2024,2.1102,2.0369,2.023,2.0208,2.0035,2.0261,2.0699,2.1164,2.1576,2.2,2.2398,2.2815,2.3056,0.0,0.0,0.0,0.0,0.0,0.0,2.4604,2.4814,2.4949,0.0,0.0,0.0,0.0,2.5143,0.0,0.0,2.4856,2.4687,2.5341,2.5793,2.5782,0.0,0.0,0.0,2.4936,2.4917,2.4727,2.4331,2.3225,2.247,2.2043,2.0411,1.9177,1.8337,1.7501,1.6691,1.5898,1.5547,1.54,1.5407,1.5366,1.533,1.5291,1.5234,1.5421,1.5727,1.5572,1.6436,1.7763,-1.1032,-1.4127,0.0,0.0,0.0,0.0,0.0,-2.54,0.0,-2.7256,0.0,-2.6074,-2.5862,-2.4355,-2.2836,-2.1596,0.0,-1.8159,-1.7342,-1.4066,-1.2165,-1.2043,-0.8968,-0.5048,-0.0132,0.073,0.3704,0.0,0.0,1.4038,1.7128,1.9596,2.2096,2.4509,2.396,2.3399,2.2743,2.0957,1.9131,1.7495,1.8565,1.8092,1.6818,1.7853,1.8786,1.9645,2.1019,2.1513,2.1812,2.407,2.4494,2.3971,2.3497,2.2586,2.1549,2.1036,2.0943,2.0926,2.0516,2.0682,2.0991,2.1055,2.1337,2.1628,2.1688,2.2044,2.2398,2.2599,2.2695,2.2947,0.0,0.0,0.0,2.4373,0.0,0.0,0.0,0.0,0.0,0.0,0.0,0.0,0.0,0.0,2.3934,2.538,2.5582,2.5454,0.0,0.0,0.0,2.4823,2.4775,0.0,2.4974,0.0,2.2592,2.2774,2.11,1.9873,1.9062,1.8322,1.753,1.6719,1.5918,1.5566,1.5566,1.5458,1.5367,1.5291,1.5234,1.5189,1.5183,1.5075,1.6455,1.8375,-1.2373,-1.4644,0.0,0.0,0.0,-2.0628,-2.1496,-2.3706,-2.5299,-2.5431,-2.5694,-2.5374,-2.41,-2.343,-2.2461,-2.1,-1.9415,0.0,0.0,0.0,0.0,-0.8575,-0.4003,-0.1137,-0.0374,0.4583,0.8058,0.0,0.0,1.5679,1.8148,2.1784,2.436,2.5914,2.6925,2.6255,2.4359,2.327,0.0,1.9466,2.0019,1.9525,1.8422,1.898,1.9431,2.0013,2.1644,2.2754,2.3637,2.4633,2.4727,2.4308,2.3732,2.2847,2.1927,2.1497,2.121,2.0991,2.0894,2.0926,2.1086,2.1399,2.1552,2.1688,2.2106,2.2419,2.2573,2.2415,2.2773,2.3141,2.3277,0.0,0.0,0.0,0.0,0.0,0.0,0.0,0.0,0.0,0.0,2.4748,0.0,0.0,0.0,2.5407,2.6679,0.0,0.0,0.0,0.0,0.0,2.4639,0.0,0.0,0.0,2.2592,2.2774,2.11,1.9873,1.91,1.8939,1.8435,1.7617,1.6758,1.6426,1.6426,1.5701,1.536,1.5291,1.5234,1.5189,1.5209,1.5177,1.6291,1.7791,-1.1432,0.0,0.0,0.0,0.0,0.0,0.0,-1.9556,0.0,-2.3543,-2.4279,-2.4102,-2.286,-2.2197,-2.0891,-1.8475,-1.7328,-1.5642,-1.3057,-1.1149,-0.8821,-0.598,-0.1083,0.2116,0.3312,0.7933,1.0355,1.0341,0.0,0.0,1.7843,2.1227,2.393,2.6056,2.7324,2.7083,0.0,0.0,0.0,2.1383,2.2,2.1121,1.9566,2.007,2.0396,2.0807,2.2293,2.3159,2.3744,2.4807,2.4924,2.4594,2.4304,2.3469,2.2496,2.2177,2.1869,2.1615,2.1385,2.1477,2.1721,2.1899,2.1957,2.2032,2.2254,2.2415,2.25,2.25,2.2738,2.2996,2.3165,2.3628,0.0,0.0,0.0,0.0,0.0,0.0,0.0,0.0,0.0,0.0,0.0,0.0,0.0,0.0,0.0,0.0,0.0,0.0,0.0,0.0,0.0,0.0,0.0,0.0,0.0,2.2632,2.1048,2.0092,1.9711,1.9292,1.8892,1.8489,1.7648,1.7305,1.7305,1.6439,1.5773,1.5291,1.5253,1.5234,1.5247,1.5715,1.6657,1.7649,0.0,-1.1311,0.0,0.0,-1.3706,0.0,-1.5421,-1.5477,-1.6907,-2.1337,-2.2197,-2.2102,-2.1331,-2.0449,-1.8847,-1.6212,-1.5377,-1.3928,-1.1387,-0.8482,-0.5558,-0.2667,0.1873,0.5423,0.7783,1.0737,1.1905,0.0,0.0,0.0,1.8265,2.0562,2.3301,0.0,0.0,0.0,0.0,0.0,2.4877,2.306,2.3701,2.2652,2.0783,2.1271,2.1595,2.1953,2.303,2.349,2.371,2.4713,2.4827,2.4591,2.4755,2.4026,2.3111,2.2891,2.2617,2.2315,2.1936,2.2073,2.231,2.231,2.231,2.2293,2.236,2.2388,2.248,2.2764,2.2822,2.2923,2.3236,2.3459,0.0,0.0,0.0,0.0,0.0,0.0,0.0,0.0,0.0,0.0,2.5556,0.0,0.0,0.0,0.0,0.0,0.0,0.0,0.0,0.0,0.0,2.4598,2.4756,0.0,2.2431,0.0,2.1139,2.0414,2.0285,1.9635,1.9358,1.9335,1.8507,1.7987,1.7676,1.6973,1.6169,1.5318,1.5314,1.5272,1.533,1.6176,1.7003,1.7708,0.0,0.0,0.0,0.0,0.0,0.0,-1.4174,-1.3321,-1.4052,-1.841,-1.9059,-1.908,-1.8841,-1.774,-1.6716,-1.6061,-1.5165,-1.2272,-0.6706,-0.2867,0.0322,0.2822,0.6492,0.9326,1.1318,1.2538,1.3525,0.0,0.0,1.9267,0.0,0.0,0.0,0.0,0.0,0.0,0.0,2.7458,2.5964,2.4025,2.4487,2.377,2.2427,2.2845,2.3194,2.3538,2.4026,2.4425,2.4688,2.4335,2.4024,2.3922,2.4596,2.4264,2.3631,2.361,2.3141,2.2643,2.2617,2.2446,2.231,2.231,2.231,2.236,2.2599,2.2643,2.2764,2.3093,2.3141,2.3277,2.3588,2.3414,2.3346,0.0,0.0,0.0,0.0,0.0,2.4818,2.4828,0.0,0.0,0.0,2.5613,0.0,0.0,0.0,0.0,0.0,0.0,0.0,2.5894,0.0,2.5557,2.5595,2.394,0.0,2.2498,2.1564,2.0833,2.0312,2.0227,2.0227,2.0223,1.9367,1.8157,1.6816,1.6738,1.6171,1.5385,1.5313,1.5291,1.5388,1.6195,1.7003,1.7811,0.0,0.0,0.0,0.0,0.0,0.0,0.0,-0.5939,-0.6447,-0.8894,-1.5006,-1.8824,-1.8022,-1.434,-1.1322,-0.9826,-0.7643,-0.4985,-0.1642,0.0985,0.4175,0.8119,1.127,1.2812,1.2425,1.5018,1.6354,0.0,0.0,0.0,0.0,0.0,0.0,0.0,0.0,2.9598,2.9321,2.8594,2.7301,2.5664,2.5229,2.4283,2.3145,2.3334,2.3587,2.3928,2.4369,2.4467,2.441,2.4755,2.4832,2.461,2.3714,2.3386,2.3198,2.2574,2.1989,2.1669,2.2141,2.2185,2.2243,2.2728,2.2849,2.2857,2.2972,2.2996,2.3093,2.3414,2.35,2.3477,2.3414,2.3437,2.3477,0.0,0.0,0.0,0.0,0.0,0.0,2.4775,0.0,2.5187,0.0,0.0,0.0,0.0,0.0,0.0,0.0,0.0,0.0,2.6752,0.0,2.515,2.5522,2.3984,2.2911,2.2313,2.1555,2.0881,2.0312,2.0312,2.0332,2.038,2.0119,1.9037,1.748,1.748,1.6947,1.611,1.6083,1.6356,1.683,1.7683,1.8196,1.8593,0.157,0.0,0.0594,0.0,0.0755,0.0802,0.15,0.1679,0.1571,0.1137,-0.509,-1.0356,-1.2709,-0.895,-0.5178,-0.2598,-0.0099,0.2434,0.5081,0.7008,0.9317,1.2194,1.4392,0.0,1.4738,1.74,1.8894,1.9057,2.1321,0.0,0.0,0.0,0.0,0.0,2.9549,2.9998,3.0183,2.9506,2.8346,2.687,2.6098,2.5023,2.3876,2.3876,2.4026,2.4298,2.4676,2.4629,2.4419,2.4885,2.5254,2.5197,2.343,2.2867,2.2682,2.1869,2.1333,2.1123,2.1647,2.1702,2.1852,2.2652,2.2852,2.2929,2.327,2.3346,2.3437,2.3774,2.3774,2.3628,2.3392,2.3459,2.3522,2.3369,0.0,0.0,0.0,0.0,0.0,0.0,2.4815,2.503,2.5383,2.6088,0.0,0.0,0.0,0.0,0.0,0.0,0.0,0.0,0.0,0.0,0.0,2.4259,2.3154,2.2287,2.1744,2.107,2.0312,2.0331,2.0354,2.0414,2.054,1.9766,1.8379,1.8379,1.7844,1.7018,1.6986,1.731,1.7848,1.8696,1.9158,1.9496,0.4835,0.3798,0.351,0.6459,0.669,0.6949,0.8339,0.8574,0.9058,1.0452,1.2512,0.9815,-0.0918,-0.0893,0.1293,0.4784,0.5952,0.8776,1.4095,1.6182,1.6495,0.0,0.0,1.6532,1.9178,1.9521,2.0768,2.3016,0.0,0.0,2.5205,0.0,2.8056,2.9296,2.9787,3.0115,3.0294,3.0075,2.8951,2.7291,2.7214,2.6223,2.4771,2.4771,2.479,2.4818,2.5018,2.5134,2.5097,2.4432,2.4782,2.5312,2.4148,2.3057,2.2187,2.2036,2.1758,2.1461,2.133,2.1072,2.1017,2.1794,2.2011,2.2313,2.3448,2.3692,2.3795,2.4113,2.3917,2.3692,2.3692,2.3414,2.3305,2.3649,0.0,0.0,0.0,0.0,0.0,2.4512,2.486,2.513,2.5187,0.0,0.0,0.0,0.0,0.0,0.0,0.0,0.0,2.6365,2.6282,0.0,2.5988,2.4987,2.3825,2.2486,2.23,2.1514,2.0312,2.0369,2.0392,2.0414,2.054,2.0098,1.9277,1.9277,1.8769,1.7986,1.7912,1.7884,1.7987,1.8732,1.9535,2.0408,0.912,0.856,0.8106,0.8808,0.8848,0.9172,1.0277,1.0921,1.1504,1.2311,1.3522,1.3265,1.0505,1.0695,1.1426,0.0,1.2549,1.3354,0.0,1.6591,1.7269,1.7317,1.7896,1.8747,1.9872,2.1287,2.2378,2.3096,0.0,0.0,0.0,2.7274,2.8294,2.92,2.9855,3.0247,3.0369,2.9194,2.8372,2.772,2.6331,2.547,2.5011,2.4943,2.4943,2.4968,2.5283,2.5397,2.5371,2.5151,2.4502,2.3716,2.3266,2.2811,2.2232,2.1005,2.0425,2.0307,2.0834,2.0782,2.0789,2.1642,2.2277,2.2768,2.3139,2.3652,2.4074,2.417,2.4132,2.3976,2.3735,2.3795,2.3837,2.3714,2.3896,0.0,0.0,0.0,0.0,2.467,2.4823,2.5018,0.0,2.5995,0.0,0.0,0.0,0.0,0.0,0.0,0.0,0.0,2.6032,0.0,2.6004,2.455,2.3356,2.2498,2.184,2.1079,2.0312,2.0331,2.0354,2.0395,2.0481,2.0059,1.9297,1.9297,1.9102,1.8828,1.8789,1.91,1.9558,1.9804,2.0408,2.1158,1.202,1.1867,1.1654,1.1395,1.1395,1.1764,1.2679,1.3324,1.3917,1.4508,1.5494,1.6423,1.7114,1.7767,0.0,1.7338,1.7021,1.7089,1.7748,1.8458,1.8987,1.9436,2.0008,2.0569,2.112,0.0,0.0,2.4259,2.559,2.6488,2.704,2.7897,2.8676,2.9345,2.9888,3.0278,3.0451,2.9097,2.8369,2.8,2.6381,2.5532,2.5216,2.5182,2.5149,2.5179,2.5417,2.5528,2.554,2.5547,2.4846,2.386,2.3109,2.2795,2.2364,2.0528,1.988,1.9851,2.03,2.0322,2.0515,2.1699,2.2367,2.2889,2.3518,2.4056,2.4428,2.4428,2.4357,2.4266,2.4155,2.4154,2.4152,2.402,2.4114,2.419,2.419,0.0,0.0,0.0,0.0,0.0,0.0,2.5912,0.0,0.0,0.0,0.0,0.0,0.0,0.0,2.6785,2.5691,0.0,2.5728,2.4327,2.3277,2.2602,2.1426,2.0669,2.0312,2.0312,2.0339,2.041,2.0476,2.0234,1.9785,1.9785,1.9766,1.9727,1.9707,2.0155,2.0785,2.0431,2.1216,2.2427,1.3729,1.3932,0.0,0.0,1.4356,0.0,1.5483,1.5965,1.6477,1.713,1.8534,1.9485,1.952,2.075,2.1048,1.9706,0.0,0.0,0.0,2.1379,2.1439,2.1165,2.1439,2.1933,2.2723,2.387,2.5077,2.6323,2.7401,2.7926,2.7954,2.8579,2.9163,2.9713,2.9924,3.0221,3.0452,2.9531,2.8728,2.8027,2.7098,2.6195,2.5409,2.539,2.539,2.5409,2.5467,2.5534,2.5592,2.5598,2.557,2.5236,2.3608,2.3009,2.253,2.0584,2.0012,1.9964,1.9847,1.9821,2.0186,2.1809,2.2299,2.2809,2.4426,2.4804,2.4804,2.4804,2.4654,2.4575,2.476,2.4495,2.4303,2.4495,2.4357,2.4247,2.4247,0.0,0.0,0.0,0.0,0.0,0.0,2.5354,2.5529,0.0,0.0,0.0,0.0,0.0,2.7219,2.5457,2.5341,2.5284,2.5207,2.4219,2.3358,2.2601,2.1043,2.0312,2.0312,2.0312,2.035,2.0392,2.0477,2.0527,2.0605,2.0605,2.0605,2.0605,2.0605,2.1058,2.1609,2.0783,2.2023,2.3995,0.0,0.0,1.586,1.633,1.6718,1.7355,1.8437,1.915,1.978,2.0334,2.0935,2.1412,2.1759,2.2136,2.2331,2.2288,2.1658,2.1549,2.2177,2.1961,2.2071,2.2643,2.2461,2.2574,2.3049,2.4506,2.5991,2.7501,2.8022,2.829,2.8298,2.9119,2.9551,2.9713,3.0128,3.0054,2.9552,2.8713,2.7947,2.7207,2.6213,2.5662,2.5466,2.5359,2.5322,2.5332,2.5466,2.5517,2.5532,2.5585,2.5187,2.4591,2.4148,2.3523,2.2619,2.0766,2.0115,1.9984,1.9954,1.988,2.0035,2.1116,2.2306,2.3483,2.4559,2.4804,2.4804,2.4804,2.476,2.4746,2.479,2.4716,2.467,2.4716,2.4685,2.4654,2.4654,2.47,0.0,0.0,2.4962,2.5065,2.5241,2.5398,2.5514,0.0,0.0,0.0,0.0,2.6638,2.6661,2.5515,2.5409,2.5063,2.4399,2.3496,2.2305,2.0889,2.0485,2.0312,2.0312,2.0312,2.035,2.0404,2.0428,2.049,2.0605,2.0605,2.0605,2.0664,2.1309,2.1659,2.1821,2.2265,2.3188,2.4146,1.7743,1.7774,1.7965,1.848,1.8958,1.9491,2.0116,2.0863,2.1444,2.1749,2.2187,2.2582,2.2853,2.2999,2.32,2.3414,2.286,2.2599,2.2853,2.2775,2.2867,2.3189,2.3153,2.3112,2.3189,2.4902,2.6565,2.8129,2.8489,2.8646,2.8591,2.9361,2.9765,2.9845,3.0228,2.9982,2.9252,2.8439,2.7667,2.6914,2.5963,2.5565,2.5541,2.5456,2.5447,2.5447,2.5519,2.5576,2.5603,2.5623,2.5366,2.4924,2.4487,2.4019,2.3368,2.1989,2.1485,2.1357,2.1339,2.1264,2.1424,2.2263,2.3397,2.4453,2.4929,2.5031,2.5031,2.5031,2.4962,2.4917,2.5,2.4896,2.4832,2.4877,2.4842,2.4804,2.4804,2.4855,0.0,2.4998,2.5088,2.5173,2.5303,2.5428,2.549,2.5498,0.0,0.0,2.5723,2.6113,2.6091,2.5522,2.5427,2.4986,2.411,2.2831,2.1562,2.0312,2.0312,2.0312,2.0312,2.0312,2.035,2.0396,2.0395,2.0477,2.0605,2.0605,2.0605,2.0644,2.1113,2.1758,2.2401,2.2485,2.3457,2.4703,1.9053,1.9525,1.9997,2.034,2.0863,2.1243,2.1243,2.1881,2.2354,2.2354,2.2937,2.3351,2.3379,2.3656,2.3821,2.3862,2.3617,2.3446,2.3401,2.3631,2.3653,2.3419,2.3631,2.3653,2.3401,2.528,2.7032,2.8585,2.8943,2.906,2.895,2.9495,2.9848,3.0037,3.0305,2.9944,2.9087,2.8407,2.7608,2.6738,2.5996,2.5658,2.5595,2.5599,2.5581,2.56,2.5601,2.5641,2.5696,2.5703,2.5703,2.5565,2.484,2.4608,2.4448,2.3702,2.3454,2.333,2.2991,2.2998,2.3253,2.3937,2.4697,2.5303,2.5303,2.5303,2.5303,2.5303,2.5163,2.5099,2.5264,2.5068,2.491,2.5041,2.4943,2.4888,2.4888,0.0,2.5046,2.5046,2.5203,2.5303,2.5303,2.5428,2.5492,2.551,2.5627,2.5703,0.0,2.5702,2.5648,2.5493,2.5321,2.4745,2.3725,2.212,2.0985,2.0312,2.0312,2.0312,2.0312,2.0312,2.0331,2.0396,2.0395,2.0477,2.0586,2.0605,2.0605,2.0605,2.0742,2.1738,2.3027,2.2422,2.3569,2.5323,2.0634,2.0958,2.1207,2.1285,2.1883,2.2339,2.2339,2.2975,2.3459,2.3459,2.3795,2.4096,2.4284,2.4337,2.4441,2.4601,2.4582,2.447,2.4319,2.4191,2.4172,2.4301,2.4191,2.4172,2.4301,2.6074,2.7844,2.9495,2.9551,2.957,2.9569,2.9826,3.003,3.0183,3.0388,2.9713,2.8361,2.8233,2.7291,2.5898,2.5684,2.5604,2.5592,2.5541,2.5515,2.5517,2.558,2.5619,2.5611,2.5689,2.5703,2.5683,2.5545,2.5506,2.5464,2.5333,2.5284,2.4934,2.3402,2.3482,2.4014,2.4072,2.4697,2.5303,2.5303,2.5303,2.5303,2.5303,2.5274,2.5264,2.5284,2.5253,2.5233,2.5253,2.5243,2.5222,2.5222,0.0,2.5253,2.5253,2.5274,2.5322,2.539,2.5447,2.5524,2.5581,2.5655,2.5703,2.5703,2.5696,2.5648,2.5493,2.4822,2.3647,2.1927,2.0966,2.0427,2.0312,2.0312,2.0312,2.0312,2.0312,2.0312,2.0319,2.0376,2.0438,2.0527,2.0586,2.0605,2.0664,2.1406,2.2266,2.3164,2.3769,2.4667,2.5533,2.179,2.2001,2.215,2.2373,2.2702,2.2919,2.2919,2.3374,2.3738,2.3846,2.4155,2.4445,2.4639,2.4654,2.47,2.479,2.4804,2.4785,2.4762,2.4604,2.4559,2.4654,2.4559,2.497,2.593,2.7229,2.8487,2.9696,2.9696,2.9765,2.9861,3.0034,3.02,3.0368,3.0491,2.968,2.8195,2.8195,2.7225,2.5703,2.5664,2.5644,2.5644,2.5613,2.5605,2.5601,2.564,2.5658,2.5656,2.5699,2.5703,2.5703,2.5703,2.5703,2.5703,2.5694,2.567,2.5455,2.4635,2.4655,2.487,2.4812,2.5082,2.5341,2.5303,2.5303,2.5303,2.5303,2.5303,2.5303,2.5303,2.5303,2.5303,2.5303,2.5303,0.0,0.0,2.5303,2.5303,2.5303,2.5303,2.5322,2.539,2.5468,2.553,2.5592,2.5668,2.5703,2.5703,2.5704,2.5649,2.5493,2.4184,2.308,2.2216,2.0946,2.0312,2.0312,2.0312,2.0312,2.0312,2.0312,2.0312,2.0292,2.0366,2.0437,2.0508,2.0566,2.0605,2.0644,2.1035,2.1719,2.2559,2.3398,2.4219,2.496,2.2617,2.2793,2.2957,2.3315,2.3446,2.3512,2.3541,2.3787,2.4004,2.4173,2.4403,2.4639,2.4828,2.4842,2.4869,2.4896,2.4929,2.4962,2.5065,2.4956,2.4902,2.4855,2.5031,2.5806,2.7263,2.8177,2.9045,2.9864,2.9864,2.9943,3.0109,3.02,3.0362,3.0519,3.0397,2.9544,2.8211,2.8018,2.7068,2.5703,2.5703,2.5703,2.5703,2.5703,2.5703,2.5703,2.5703,2.5703,2.5703,2.5703,2.5703,2.5703,2.5703,2.5703,2.5703,2.5703,2.5664,2.5625,2.5605,2.557,2.5519,2.5451,2.5408,2.5409,2.537,2.5341,2.5341,2.5322,2.5322,2.5322,2.5303,2.5303,2.5303,2.5303,0.0,0.0,0.0,2.5303,2.5226,2.5043,2.5187,2.5284,2.5168,2.5372,2.5557,2.5611,2.5473,2.5391,2.5391,2.5219,2.5056,2.4921,2.3547,2.2601,2.2216,2.0946,2.0312,2.0312,2.0312,2.0312,2.0312,2.0312,2.0312,2.0312,2.0369,2.0429,2.0484,2.0566,2.0605,2.0605,2.0605,2.1133,2.1992,2.2793,2.3613,2.4453,2.3141,2.3414,2.3699,2.3891,2.421,2.4458,2.4648,2.4712,2.4727,2.4741,2.4756,2.4828,2.4974,2.4986,2.5065,2.5243,2.5253,2.5264,2.5274,2.5264,2.5182,2.4998,2.5749,2.6606,2.7554,2.8548,2.9471,3.0343,3.0343,3.0355,3.0367,3.0444,3.052,3.0562,2.9873,2.9101,2.824,2.7438,2.6542,2.5703,2.5703,2.5703,2.5703,2.5703,2.5703,2.5703,2.5703,2.5703,2.5703,2.5703,2.5703,2.5703,2.5703,2.5703,2.5703,2.5703,2.5703,2.5684,2.5625,2.5605,2.5577,2.5507,2.5488,2.5486,2.5486,2.5486,2.5466,2.5409,2.539,2.537,2.5303,2.5303,2.5303,2.5303,0.0,0.0,2.5303,2.5303,2.5024,2.4283,2.4909,2.513,2.4457,2.513,2.5621,2.5697,2.4941,2.4492,2.4492,2.3801,2.3328,2.3182,2.2926,2.2043,2.0504,2.0369,2.0312,2.0312,2.0312,2.0312,2.0312,2.0312,2.0312,2.0312,2.0369,2.0405,2.0429,2.0542,2.0605,2.0605,2.0605,2.1133,2.1992,2.2793,2.3652,2.4512,2.3774,2.402,2.4229,2.4301,2.4524,2.4716,2.479,2.4804,2.4828,2.4917,2.4911,2.5012,2.522,2.5212,2.5252,2.5399,2.539,2.539,2.5428,2.5428,2.534,2.5192,2.6576,2.7497,2.7842,2.9233,3.016,3.0525,3.0487,3.0487,3.0506,3.0002,2.9809,2.9883,2.911,2.8291,2.7461,2.7148,2.6504,2.5703,2.5703,2.5703,2.5703,2.5703,2.5703,2.5703,2.5703,2.5703,2.5703,2.5703,2.5703,2.5703,2.5703,2.5703,2.5703,2.5703,2.5703,2.5684,2.5664,2.5664,2.5644,2.5577,2.5554,2.555,2.5505,2.5499,2.5499,2.5479,2.5451,2.5447,2.5428,2.5428,2.5428,2.5428,0.0,2.5428,2.5428,2.5428,2.5111,2.4255,2.4928,2.5168,2.438,2.4591,2.5045,2.5643,2.4394,2.3828,2.4375,2.3567,2.2804,2.2211,2.2051,2.1696,2.1062,2.0562,2.0312,2.0312,2.0312,2.0312,2.0312,2.0312,2.0312,2.0312,2.0331,2.036,2.0418,2.0502,2.0566,2.0605,2.0605,2.0801,2.1269,2.2598,2.334,2.3848,2.4338,2.4495,2.4607,2.4651,2.4766,2.4883,2.4955,2.4968,2.5006,2.5096,2.5138,2.5209,2.5418,2.5397,2.5395,2.5495,2.5464,2.544,2.5506,2.5514,2.5601,2.5757,2.7229,2.8153,2.8422,2.9814,3.054,3.0598,3.054,3.0557,3.0583,3.0002,2.9644,2.9456,2.8665,2.7812,2.6973,2.6719,2.625,2.5703,2.5703,2.5703,2.5703,2.5681,2.5665,2.5671,2.5662,2.5664,2.5664,2.5684,2.5703,2.5703,2.5703,2.5703,2.5703,2.5703,2.5703,2.5703,2.5703,2.5703,2.5684,2.5644,2.5625,2.5623,2.5573,2.5561,2.5561,2.5542,2.5537,2.5517,2.5495,2.5506,2.5506,2.5506,2.5506,2.5506,2.5506,2.5266,2.4775,2.3921,2.4598,2.4811,2.4005,2.4173,2.4608,2.5234,2.3691,2.2852,2.3184,2.2569,2.1905,2.1305,2.1185,2.1119,2.1119,2.0581,2.0312,2.0312,2.0312,2.0312,2.0312,2.0312,2.0312,2.0312,2.0312,2.0346,2.0405,2.0477,2.0547,2.0605,2.0605,2.0762,2.1172,2.2578,2.3301,2.3789,2.4804,2.4804,2.4842,2.4974,2.501,2.5077,2.5264,2.5303,2.5322,2.539,2.5409,2.5428,2.5486,2.5492,2.5505,2.5505,2.5499,2.5508,2.5493,2.5561,2.5951,2.6778,2.7633,2.8502,2.9377,3.0176,3.0586,3.0606,3.0606,3.0607,3.0595,3.0641,3.0244,2.9448,2.8645,2.7793,2.6934,2.6074,2.5703,2.5703,2.5703,2.5703,2.5681,2.5619,2.5601,2.559,2.5601,2.5605,2.5605,2.5684,2.5703,2.5703,2.5703,2.5703,2.5703,2.5703,2.5703,2.5703,2.5703,2.5703,2.5703,2.5703,2.5703,2.5703,2.5703,2.5703,2.5684,2.5605,2.5605,2.5582,2.5516,2.5493,2.5493,2.5493,2.5493,2.5493,2.5493,2.4749,2.3903,2.3101,2.376,2.3985,2.3176,2.3865,2.4375,2.4394,2.2832,2.1523,2.0644,2.0475,2.039,2.0396,2.0331,2.0312,2.0312,2.0312,2.0312,2.0312,2.0312,2.0312,2.0312,2.0312,2.0312,2.0312,2.0312,2.035,2.0419,2.0484,2.0547,2.0605,2.0605,2.1133,2.2012,2.2812,2.3652,2.4512,2.4804,2.4883,2.4949,2.4998,2.5111,2.5224,2.5284,2.5341,2.539,2.5409,2.5434,2.549,2.5563,2.5531,2.555,2.563,2.5599,2.558,2.5644,2.5658,2.6047,2.6894,2.7137,2.7945,2.9428,2.9709,3.0144,3.081,3.0712,3.0411,2.9874,2.9245,2.8519,2.7709,2.6851,2.6328,2.6074,2.5801,2.5703,2.5703,2.5659,2.5628,2.5628,2.5551,2.5538,2.5524,2.5526,2.5526,2.5538,2.5558,2.5558,2.5558,2.5558,2.5558,2.557,2.5623,2.5625,2.5644,2.5684,2.5703,2.5703,2.5703,2.5703,2.5703,2.5703,2.5703,2.5684,2.5664,2.5664,2.5664,2.5638,2.5636,2.5636,2.5636,2.5636,2.5636,2.5636,2.4894,2.4033,2.3233,2.3374,2.3188,2.2337,2.2496,2.2891,2.3516,2.2539,2.1491,2.0579,2.0443,2.0371,2.0331,2.0312,2.0312,2.0312,2.0312,2.0312,2.0312,2.0312,2.0312,2.0312,2.0312,2.0312,2.0312,2.0312,2.035,2.045,2.1087,2.1413,2.1504,2.1504,2.2012,2.2773,2.3066,2.3691,2.4512,2.5006,2.5072,2.5111,2.5111,2.5233,2.5341,2.5341,2.5409,2.5447,2.5486,2.5514,2.5564,2.5634,2.5593,2.5609,2.5685,2.5659,2.5659,2.5704,2.6019,2.6442,2.6978,2.7281,2.8112,2.9505,2.9881,3.0331,3.0898,3.082,3.0547,3.0098,2.9172,2.8301,2.748,2.6602,2.6016,2.5703,2.5703,2.5675,2.5667,2.5622,2.5582,2.5544,2.5488,2.5456,2.5466,2.5466,2.5462,2.5453,2.5492,2.5492,2.5492,2.5492,2.5492,2.5512,2.5541,2.5551,2.557,2.5609,2.5629,2.5634,2.5644,2.5684,2.5703,2.5703,2.5703,2.5703,2.5703,2.5703,2.5703,2.5703,2.5703,2.5703,2.5703,2.5703,2.5703,2.5703,2.4648,2.3711,2.3242,2.2891,2.248,2.1953,2.1894,2.1973,2.2168,2.1661,2.1089,2.052,2.0418,2.0347,2.0292,2.0312,2.0312,2.0312,2.0312,2.0312,2.0312,2.0312,2.0312,2.0312,2.0312,2.0312,2.0312,2.0312,2.0331,2.0423,2.1291,2.174,2.1894,2.2246,2.2871,2.3613,2.3652,2.4199,2.498,2.5303,2.5303,2.5303,2.5322,2.537,2.5409,2.5418,2.5457,2.5524,2.5582,2.5601,2.5641,2.5682,2.5703,2.5703,2.5703,2.5703,2.5703,2.5703,2.6523,2.6992,2.6992,2.791,2.8789,2.957,3.0371,3.082,3.0898,3.0898,3.0859,3.0762,2.9883,2.9023,2.8144,2.7266,2.6445,2.5703,2.5682,2.5667,2.5601,2.5582,2.5543,2.5486,2.5428,2.539,2.539,2.539,2.539,2.5409,2.5466,2.5486,2.5486,2.5486,2.5486,2.5486,2.5486,2.548,2.5493,2.5493,2.5493,2.5503,2.5576,2.5643,2.5683,2.5703,2.5703,2.5703,2.5703,2.5703,2.5703,2.5703,2.5703,2.5703,2.5703,2.5625,2.5605,2.5684,2.4141,2.3047,2.3184,2.2363,2.1816,2.1894,2.1973,2.168,2.0898,2.0774,2.0696,2.0608,2.0485,2.0381,2.0312,2.0312,2.0312,2.0312,2.0312,2.0312,2.0312,2.0312,2.0312,2.0312,2.0369,2.0369,2.0312,2.0465,2.0485,2.0493,2.1449,2.1893,2.2086,2.289,2.373,2.4492,2.4434,2.4941,2.5703,2.537,2.539,2.539,2.5447,2.5466,2.5474,2.548,2.5534,2.5582,2.5601,2.5643,2.5673,2.5703,2.5703,2.5703,2.5703,2.5703,2.5703,2.5703,2.6523,2.6992,2.6992,2.8496,2.9414,2.9609,2.9785,3.0215,3.0898,3.0898,3.0547,2.9863,2.8984,2.8125,2.7246,2.6367,2.5879,2.5703,2.5638,2.5605,2.5582,2.5486,2.5428,2.5409,2.5341,2.5322,2.5322,2.5322,2.5322,2.5322,2.5341,2.5341,2.5341,2.5341,2.5341,2.5341,2.5409,2.5428,2.5425,2.5492,2.5511,2.55,2.553,2.5529,2.5567,2.5682,2.5703,2.5703,2.5703,2.5703,2.5703,2.5703,2.5703,2.5703,2.5703,2.5137,2.4922,2.5605,2.3652,2.2402,2.3047,2.1797,2.1152,2.1836,2.2461,2.2773,2.2656,2.2577,2.2219,2.1471,2.135,2.1015,2.0331,2.0312,2.0312,2.0312,2.0312,2.0312,2.0312,2.0312,2.0312,2.0331,2.0946,2.0908,2.0369,2.1696,2.1908,2.1438,2.3006,2.3655,2.37,2.3946,2.457,2.5254,2.4629,2.4941,2.5703,2.5447,2.5443,2.5592,2.6045,2.6157,2.6168,2.6161,2.6223,2.6126,2.5692,2.5685,2.5703,2.5703,2.5703,2.5703,2.5703,2.6074,2.6328,2.6328,2.7539,2.8047,2.7637,2.9297,3.0039,2.9609,3.0019,3.0449,3.0898,3.0898,3.0664,3.0195,2.8906,2.8066,2.7558,2.6247,2.5654,2.5649,2.5583,2.5537,2.5505,2.5428,2.539,2.5341,2.5303,2.5303,2.5303,2.5303,2.5303,2.5303,2.5303,2.5303,2.5303,2.5303,2.5303,2.5303,2.5341,2.5341,2.537,2.5409,2.5409,2.5409,2.5447,2.5443,2.548,2.5587,2.5603,2.5611,2.5644,2.5644,2.5664,2.5684,2.5703,2.5703,2.5703,2.5312,2.5176,2.5644,2.3867,2.2676,2.3105,2.2012,2.1562,2.2441,2.2873,2.3106,2.3145,2.3057,2.2795,2.2301,2.2216,2.1957,2.1504,2.1485,2.1293,2.0889,2.1273,2.1273,2.0869,2.0869,2.0869,2.0889,2.1312,2.1062,2.0369,2.1639,2.1947,2.1688,2.3435,2.4177,2.4245,2.4696,2.5164,2.5547,2.5156,2.5312,2.5703,2.5707,2.5623,2.5843,2.6883,2.6974,2.697,2.7125,2.7062,2.6738,2.6016,2.5781,2.5703,2.5703,2.5703,2.5703,2.5703,2.6504,2.6992,2.6992,2.8633,2.9277,2.8555,3.0059,3.0566,2.9844,3.0527,3.0898,3.0898,3.0898,3.0898,3.0879,2.9277,2.8436,2.8209,2.6563,2.5726,2.5582,2.5511,2.5444,2.5409,2.539,2.5341,2.5303,2.5303,2.5303,2.5303,2.5303,2.5303,2.5303,2.5303,2.5303,2.5303,2.5303,2.5303,2.5303,2.5303,2.5303,2.5303,2.5303,2.5303,2.5303,2.537,2.539,2.5407,2.5441,2.5477,2.5527,2.5566,2.558,2.5602,2.5661,2.5661,2.5661,2.5661,2.5544,2.5505,2.5641,2.4216,2.322,2.3357,2.2731,2.2575,2.3298,2.3467,2.3515,2.3506,2.341,2.3266,2.314,2.3053,2.2947,2.2793,2.2793,2.2447,2.1735,2.2447,2.2504,2.1947,2.1947,2.187,2.1735,2.1889,2.1504,2.0773,2.1735,2.2062,2.2062,2.3639,2.4341,2.4476,2.5216,2.5531,2.5615,2.5683,2.5703,2.5703,2.6554,2.6111,2.611,2.7803,2.7476,2.724,2.8001,2.7479,2.6953,2.6836,2.6172,2.5703,2.5703,2.5703,2.5703,2.5703,2.6504,2.6992,2.6992,2.8633,2.9551,2.9434,3.0371,3.084,3.0723,3.084,3.0898,3.0898,3.0898,3.0898,3.0879,2.9883,2.899,2.8169,2.7181,2.6275,2.5505,2.5447,2.5418,2.539,2.5341,2.5303,2.5303,2.5303,2.5303,2.5303,2.5303,2.5303,2.5303,2.5303,2.5303,2.5303,2.5303,2.5303,2.5303,2.5303,2.5303,2.5303,2.5303,2.5303,2.5303,2.5303,2.5303,2.5313,2.5312,2.5418,2.5504,2.552,2.5505,2.5516,2.5535,2.5535,2.5535,2.5535,2.4888,2.4674,2.5418,2.4086,2.3283,2.3988,2.3969,2.3949,2.4047,2.4739,2.5182,2.5188,2.5091,2.4755,2.4072,2.3956,2.359,2.2812,2.2793,2.2735,2.262,2.2735,2.3129,2.3744,2.3744,2.336,2.2639,2.3398,2.3283,2.2543,2.412,2.4389,2.3821,2.4755,2.5178,2.5255,2.5428,2.5543,2.5608,2.5685,2.5703,2.5703,2.6868,2.6645,2.6945,2.8729,2.8711,2.8574,2.8965,2.8281,2.7559,2.7051,2.623,2.5703,2.5703,2.5703,2.5703,2.5703,2.6934,2.7734,2.7734,2.9355,3.0332,3.0332,3.0684,3.0898,3.0898,3.0898,3.0898,3.0898,3.0898,3.0898,3.0879,2.9966,2.9059,2.8155,2.7209,2.6304,2.5447,2.537,2.5341,2.5341,2.5303,2.5303,2.5303,2.5303,2.5303,2.5303,2.5303,2.5303,2.5303,2.5303,2.5303,2.5303,2.5303,2.5303,2.5303,2.5303,2.5303,2.5303,2.5303,2.5303,2.5303,2.5303,2.5303,2.5303,2.5303,2.5341,2.5409,2.5447,2.5434,2.5468,2.5488,2.5507,2.5507,2.5507,2.519,2.5054,2.5449,2.444,2.3806,2.4161,2.42,2.4382,2.4873,2.5248,2.5448,2.5438,2.539,2.5197,2.4832,2.4793,2.4582,2.4216,2.4197,2.3985,2.3533,2.3966,2.4159,2.411,2.4562,2.4332,2.3552,2.3918,2.3629,2.287,2.4101,2.4428,2.4168,2.4966,2.5322,2.5351,2.5432,2.5512,2.5617,2.5679,2.5703,2.5703]},{"header":{"parameterUnit":"m.s-1","parameterCategory":1,"la1":30.6,"la2":28.766,"lo1":-90.7593,"lo2":-88.6598,"dy":0.0162,"dx":0.0183,"nx":116,"ny":114,"refTime":"2023-09-05T12:00:00:Z","depth":0,"parameterNumber":3,"parameterNumberName":"V-component_of_WINDS"},"data":[0.0,0.0,0.0,0.0,0.0,0.0,0.0,0.0,0.0,0.0,0.0,0.0,0.0,0.0,0.0,0.0,0.0,0.0,0.0,0.0,0.0,0.0,0.0,0.0,0.0,0.0,0.0,0.0,0.0,0.0,0.0,0.0,0.0,0.0,0.0,0.0,0.0,0.0,0.0,0.0,0.0,0.0,0.0,0.0,0.0,0.0,0.0,0.0,0.0,0.0,0.0,0.0,0.0,0.0,0.0,0.0,0.0,0.0,0.0,0.0,0.0,0.0,0.0,0.0,0.0,0.0,0.0,0.0,0.0,0.0,0.0,0.0,0.0,0.0,0.0,0.0,0.0,0.0,0.0,0.0,0.0,0.0,0.0,0.0,0.0,0.0,0.0,0.0,0.0,0.0,0.0,0.0,0.0,0.0,0.0,0.0,0.0,0.0,0.0,0.0,0.0,0.0,0.0,0.0,0.0,0.0,0.0,0.0,0.0,0.0,0.0,0.0,0.0,0.0,0.0,0.0,0.0,0.0,0.0,0.0,0.0,0.0,0.0,0.0,0.0,0.0,0.0,0.0,0.0,0.0,0.0,0.0,0.0,0.0,0.0,0.0,0.0,0.0,0.0,0.0,0.0,0.0,0.0,0.0,0.0,0.0,0.0,0.0,0.0,0.0,0.0,0.0,0.0,0.0,0.0,0.0,0.0,0.0,0.0,0.0,0.0,0.0,0.0,0.0,0.0,0.0,0.0,0.0,0.0,0.0,0.0,0.0,0.0,0.0,0.0,0.0,0.0,0.0,0.0,0.0,0.0,0.0,0.0,0.0,0.0,0.0,0.0,0.0,0.0,0.0,0.0,0.0,0.0,0.0,0.0,0.0,0.0,0.0,0.0,0.0,0.0,0.0,0.0,0.0,0.0,0.0,0.0,0.0,0.0,0.0,0.0,0.0,0.0,0.0,0.0,0.0,0.0,0.0,0.0,0.0,0.0,0.0,0.0,0.0,0.0,0.0,0.0,0.0,0.0,0.0,0.0,0.0,0.0,0.0,0.0,0.0,0.0,0.0,0.0,0.0,0.0,0.0,0.0,0.0,0.0,0.0,0.0,0.0,0.0,0.0,0.0,0.0,0.0,0.0,0.0,0.0,0.0,0.0,0.0,0.0,0.0,0.0,0.0,0.0,0.0,0.0,0.0,0.0,0.0,0.0,0.0,0.0,0.0,0.0,0.0,0.0,0.0,0.0,0.0,0.0,0.0,0.0,0.0,0.0,0.0,0.0,0.0,0.0,0.0,0.0,0.0,0.0,0.0,0.0,0.0,0.0,0.0,0.0,0.0,0.0,0.0,0.0,0.0,0.0,0.0,0.0,0.0,0.0,0.0,0.0,0.0,0.0,0.0,0.0,0.0,0.0,0.0,0.0,0.0,0.0,0.0,0.0,0.0,0.0,0.0,0.0,0.0,0.0,0.0,0.0,0.0,0.0,0.0,0.0,0.0,0.0,0.0,0.0,0.0,0.0,0.0,0.0,0.0,0.0,0.0,0.0,0.0,0.0,0.0,0.0,0.0,0.0,0.0,0.0,0.0,0.0,0.0,0.0,0.0,0.0,0.0,0.0,0.0,0.0,0.0,0.0,0.0,0.0,0.0,0.0,0.0,0.0,0.0,0.0,0.0,0.0,0.0,0.0,0.0,0.0,0.0,0.0,0.0,0.0,0.0,0.0,0.0,0.0,0.0,0.0,0.0,0.0,0.0,0.0,0.0,0.0,0.0,0.0,0.0,0.0,0.0,0.0,0.0,0.0,0.0,0.0,0.0,0.0,0.0,0.0,0.0,0.0,0.0,0.0,0.0,0.0,0.0,0.0,0.0,0.0,0.0,0.0,0.0,0.0,0.0,0.0,0.0,0.0,0.0,0.0,0.0,0.0,0.0,0.0,0.0,0.0,0.0,0.0,0.0,0.0,0.0,0.0,0.0,0.0,0.0,0.0,0.0,0.0,0.0,0.0,0.0,0.0,0.0,0.0,0.0,0.0,0.0,0.0,0.0,0.0,0.0,0.0,0.0,0.0,0.0,0.0,0.0,0.0,0.0,0.0,0.0,0.0,0.0,0.0,0.0,0.0,0.0,0.0,0.0,0.0,0.0,0.0,0.0,0.0,0.0,0.0,0.0,0.0,0.0,0.0,0.0,0.0,0.0,0.0,0.0,0.0,0.0,0.0,0.0,0.0,0.0,0.0,0.0,0.0,0.0,0.0,0.0,0.0,0.0,0.0,0.0,0.0,0.0,0.0,0.0,0.0,0.0,0.0,0.0,0.0,0.0,0.0,0.0,0.0,0.0,0.0,0.0,0.0,0.0,0.0,0.0,0.0,0.0,0.0,0.0,0.0,0.0,0.0,0.0,0.0,0.0,0.0,0.0,0.0,0.0,0.0,0.0,0.0,0.0,0.0,0.0,0.0,0.0,0.0,0.0,0.0,0.0,0.0,0.0,0.0,0.0,0.0,0.0,0.0,0.0,0.0,0.0,0.0,0.0,0.0,0.0,0.0,0.0,0.0,0.0,0.0,0.0,0.0,0.0,0.0,0.0,0.0,0.0,0.0,0.0,0.0,0.0,0.0,0.0,0.0,0.0,0.0,0.0,0.0,0.0,0.0,0.0,0.0,0.0,0.0,0.0,0.0,0.0,0.0,0.0,0.0,0.0,0.0,0.0,0.0,0.0,0.0,0.0,0.0,0.0,0.0,0.0,0.0,0.0,0.0,0.0,0.0,0.0,0.0,0.0,0.0,0.0,0.0,0.0,0.0,0.0,0.0,0.0,0.0,0.0,0.0,0.0,0.0,0.0,0.0,0.0,0.0,0.0,0.0,0.0,0.0,0.0,0.0,0.0,0.0,0.0,0.0,0.0,0.0,0.0,0.0,0.0,0.0,0.0,0.0,0.0,0.0,0.0,0.0,0.0,0.0,0.0,0.0,0.0,0.0,0.0,0.0,0.0,0.0,0.0,0.0,0.0,0.0,0.0,0.0,0.0,0.0,0.0,0.0,0.0,0.0,0.0,0.0,0.0,0.0,0.0,0.0,0.0,0.0,0.0,0.0,0.0,0.0,0.0,0.0,0.0,0.0,0.0,0.0,0.0,0.0,0.0,0.0,0.0,0.0,0.0,0.0,0.0,0.0,0.0,0.0,0.0,0.0,0.0,0.0,0.0,0.0,0.0,0.0,0.0,0.0,0.0,0.0,0.0,0.0,0.0,0.0,0.0,0.0,0.0,0.0,0.0,0.0,0.0,0.0,0.0,0.0,0.0,0.0,0.0,0.0,0.0,0.0,0.0,0.0,0.0,0.0,0.0,0.0,0.0,0.0,0.0,0.0,0.0,0.0,0.0,0.0,0.0,0.0,0.0,0.0,0.0,0.0,0.0,0.0,0.0,0.0,0.0,0.0,0.0,0.0,0.0,0.0,0.0,0.0,0.0,0.0,0.0,0.0,0.0,0.0,0.0,0.0,0.0,0.0,0.0,0.0,0.0,0.0,0.0,0.0,0.0,0.0,0.0,0.0,0.0,0.0,0.0,0.0,0.0,0.0,0.0,0.0,0.0,0.0,0.0,0.0,0.0,0.0,0.0,0.0,0.0,0.0,0.0,0.0,0.0,0.0,0.0,0.0,0.0,0.0,0.0,0.0,0.0,0.0,0.0,0.0,0.0,0.0,0.0,0.0,0.0,0.0,0.0,0.0,0.0,0.0,0.0,0.0,0.0,0.0,0.0,0.0,0.0,0.0,0.0,0.0,0.0,0.0,0.0,0.0,0.0,0.0,0.0,0.0,0.0,0.0,0.0,0.0,0.0,0.0,0.0,0.0,0.0,0.0,0.0,0.0,0.0,0.0,0.0,0.0,0.0,0.0,0.0,0.0,0.0,0.0,0.0,0.0,0.0,0.0,0.0,0.0,0.0,0.0,0.0,0.0,0.0,0.0,0.0,0.0,0.0,0.0,0.0,0.0,0.0,0.0,0.0,0.0,0.0,0.0,0.0,0.0,0.0,0.0,0.0,0.0,0.0,0.0,0.0,0.0,0.0,0.0,0.0,0.0,0.0,0.0,0.0,0.0,0.0,0.0,0.0,0.0,0.0,0.0,0.0,0.0,0.0,0.0,0.0,0.0,0.0,0.0,0.0,0.0,0.0,0.0,0.0,0.0,0.0,0.0,0.0,0.0,0.0,0.0,0.0,0.0,0.0,0.0,0.0,0.0,0.0,0.0,0.0,0.0,0.0,0.0,0.0,0.0,0.0,0.0,0.0,0.0,0.0,0.0,0.0,0.0,0.0,0.0,0.0,0.0,0.0,0.0,0.0,0.0,0.0,0.0,0.0,0.0,0.0,0.0,0.0,0.0,0.0,0.0,0.0,0.0,0.0,0.0,0.0,0.0,0.0,0.0,0.0,0.0,0.0,0.0,0.0,0.0,0.0,0.0,0.0,0.0,0.0,0.0,0.0,0.0,0.0,0.0,0.0,0.0,0.0,0.0,0.0,0.0,0.0,0.0,0.0,0.0,0.0,0.0,0.0,0.0,0.0,0.0,0.0,0.0,0.0,0.0,0.0,0.0,0.0,0.0,0.0,0.0,0.0,0.0,0.0,0.0,0.0,0.0,0.0,0.0,0.0,0.0,0.0,0.0,0.0,0.0,0.0,0.0,0.0,0.0,0.0,0.0,0.0,0.0,0.0,0.0,0.0,0.0,0.0,0.0,0.0,0.0,0.0,0.0,0.0,0.0,0.0,0.0,0.0,0.0,0.0,0.0,0.0,0.0,0.0,0.0,0.0,0.0,0.0,0.0,0.0,0.0,0.0,0.0,0.0,0.0,0.0,0.0,0.0,0.0,0.0,0.0,0.0,0.0,0.0,0.0,0.0,0.0,0.0,0.0,0.0,0.0,0.0,0.0,0.0,0.0,0.0,0.0,0.0,0.0,0.0,0.0,0.0,0.0,0.0,0.0,0.0,0.0,0.0,0.0,0.0,0.0,0.0,0.0,0.0,0.0,0.0,0.0,0.0,0.0,0.0,0.0,0.0,0.0,0.0,0.0,0.0,0.0,0.0,0.0,0.0,0.0,0.0,0.0,0.0,0.0,0.0,0.0,0.0,0.0,0.0,0.0,0.0,0.0,0.0,0.0,0.0,0.0,0.0,0.0,0.0,0.0,0.0,0.0,0.0,0.0,0.0,0.0,0.0,0.0,0.0,0.0,0.0,0.0,0.0,0.0,0.0,0.0,0.0,0.0,0.0,0.0,0.0,0.0,0.0,0.0,0.0,0.0,0.0,0.0,0.0,0.0,0.0,0.0,0.0,0.0,0.0,0.0,0.0,0.0,0.0,0.0,0.0,0.0,0.0,0.0,0.0,0.0,0.0,0.0,0.0,0.0,0.0,0.0,0.0,0.0,0.0,0.0,0.0,0.0,0.0,0.0,0.0,0.0,0.0,0.0,0.0,0.0,0.0,0.0,0.0,0.0,0.0,0.0,0.0,0.0,0.0,0.0,0.0,0.0,0.0,0.0,0.0,0.0,0.0,0.0,0.0,0.0,0.0,0.0,0.0,0.0,0.0,0.0,0.0,0.0,0.0,0.0,0.0,0.0,0.0,0.0,0.0,0.0,0.0,0.0,0.0,0.0,0.0,0.0,0.0,0.0,0.0,0.0,0.0,0.0,0.0,0.0,0.0,0.0,0.0,0.0,0.0,0.0,0.0,0.0,0.0,0.0,0.0,0.0,0.0,0.0,0.0,0.0,0.0,0.0,0.0,0.0,0.0,0.0,0.0,0.0,0.0,0.0,0.0,0.0,0.0,0.0,0.0,0.0,0.0,0.0,0.0,0.0,0.0,0.0,0.0,0.0,0.0,0.0,0.0,0.0,0.0,0.0,0.0,0.0,0.0,0.0,0.0,0.0,0.0,0.0,0.0,0.0,0.0,0.0,0.0,0.0,0.0,0.0,0.0,0.0,0.0,0.0,0.0,0.0,0.0,0.0,0.0,0.0,0.0,0.0,0.0,0.0,0.0,0.0,0.0,0.0,0.0,0.0,0.0,0.0,0.0,0.0,0.0,0.0,0.0,0.0,0.0,0.0,0.0,0.0,-1.7041,0.0,0.0,0.0,0.0,0.0,0.0,0.0,0.0,0.0,0.0,0.0,0.0,0.0,0.0,0.0,0.0,0.0,0.0,0.0,0.0,0.0,0.0,0.0,0.0,0.0,0.0,0.0,0.0,0.0,0.0,0.0,0.0,0.0,0.0,0.0,0.0,0.0,0.0,-2.6015,-2.5471,-2.5391,-2.5738,-2.6091,-2.5902,-2.5272,0.0,0.0,0.0,0.0,0.0,0.0,0.0,0.0,0.0,0.0,0.0,0.0,0.0,0.0,0.0,0.0,0.0,0.0,0.0,0.0,0.0,0.0,0.0,0.0,0.0,0.0,0.0,0.0,0.0,0.0,0.0,0.0,0.0,0.0,0.0,0.0,0.0,0.0,0.0,0.0,0.0,0.0,0.0,0.0,0.0,0.0,0.0,0.0,0.0,0.0,0.0,0.0,0.0,0.0,0.0,0.0,0.0,0.0,0.0,0.0,0.0,0.0,0.0,0.0,0.0,0.0,0.0,0.0,0.0,0.0,0.0,-1.7998,0.0,0.0,0.0,0.0,0.0,0.0,0.0,0.0,0.0,0.0,0.0,0.0,0.0,0.0,0.0,0.0,0.0,0.0,0.0,0.0,0.0,0.0,0.0,-1.9038,-1.9728,-2.0765,-2.1811,-2.2521,0.0,0.0,0.0,0.0,0.0,0.0,-2.5084,-2.5284,-2.582,-2.6695,-2.6061,-2.5921,-2.6313,-2.6947,-2.6697,-2.5737,-2.6352,0.0,0.0,0.0,0.0,0.0,0.0,0.0,0.0,0.0,0.0,0.0,0.0,0.0,0.0,0.0,0.0,0.0,0.0,0.0,0.0,0.0,0.0,0.0,0.0,0.0,0.0,0.0,0.0,0.0,0.0,0.0,0.0,0.0,0.0,0.0,0.0,0.0,0.0,0.0,0.0,0.0,0.0,0.0,0.0,0.0,0.0,0.0,0.0,0.0,0.0,0.0,0.0,0.0,0.0,0.0,0.0,0.0,0.0,0.0,0.0,0.0,0.0,0.0,-2.04,-2.0664,-2.1016,-2.1016,-2.1016,-2.0986,-2.0557,-2.0234,-1.9971,0.0,0.0,0.0,0.0,0.0,0.0,0.0,0.0,0.0,0.0,0.0,0.0,0.0,0.0,0.0,0.0,0.0,0.0,0.0,0.0,0.0,0.0,-1.8391,-1.9353,-2.0221,-2.0863,-2.1782,-2.3052,0.0,0.0,0.0,0.0,0.0,-2.5425,-2.5347,-2.5776,-2.6709,-2.7713,-2.7823,-2.7067,-2.7318,-2.7553,-2.7699,-2.7292,-2.7551,-2.8242,0.0,0.0,0.0,0.0,0.0,0.0,0.0,0.0,0.0,0.0,0.0,0.0,0.0,0.0,0.0,0.0,0.0,0.0,0.0,0.0,0.0,0.0,0.0,0.0,0.0,0.0,0.0,0.0,0.0,0.0,0.0,0.0,0.0,0.0,0.0,0.0,0.0,0.0,0.0,0.0,0.0,-1.813,-1.7126,0.0,0.0,0.0,0.0,0.0,0.0,0.0,0.0,0.0,0.0,0.0,0.0,0.0,-1.7997,-1.8051,-2.0423,-2.1572,-2.1631,-2.2363,-2.2744,-2.2803,-2.2803,-2.2803,-2.2783,-2.2353,0.0,-2.0546,-2.1226,0.0,0.0,0.0,0.0,0.0,0.0,0.0,0.0,0.0,0.0,0.0,0.0,0.0,0.0,0.0,0.0,0.0,0.0,0.0,0.0,0.0,-1.7946,-1.8806,-1.9788,-2.067,-2.1666,-2.2785,-2.3469,0.0,0.0,0.0,-2.5182,-2.5262,-2.5666,-2.6171,-2.6813,-2.8341,-2.8428,-2.7211,-2.7752,-2.8106,-2.8283,-2.8452,-2.8753,-2.9078,-2.9108,0.0,0.0,0.0,0.0,0.0,0.0,0.0,0.0,0.0,0.0,0.0,0.0,0.0,0.0,0.0,0.0,0.0,0.0,0.0,0.0,0.0,0.0,0.0,0.0,0.0,0.0,0.0,0.0,0.0,0.0,0.0,0.0,0.0,0.0,0.0,0.0,0.0,0.0,0.0,-1.6777,-1.6221,-1.454,-1.4372,-1.3974,0.0,0.0,0.0,0.0,0.0,0.0,0.0,0.0,0.0,-1.6215,-1.8563,-2.0076,-2.0536,-2.1916,-2.2588,-2.2598,-2.2959,-2.3018,-2.2783,-2.2783,-2.2656,-2.2432,-2.2236,-2.1836,-2.136,-2.2164,-2.2746,-2.3073,0.0,0.0,0.0,0.0,-2.5264,-2.585,0.0,0.0,0.0,0.0,0.0,0.0,0.0,0.0,0.0,0.0,0.0,0.0,-1.6574,-1.7233,-1.8021,-1.9046,-2.0282,-2.1424,-2.2418,-2.3503,-2.4295,-2.4714,-2.5084,-2.5347,-2.5425,-2.6371,-2.6968,-2.7214,-2.8685,-2.8747,-2.7511,-2.8029,-2.845,-2.8745,-2.9458,-2.9842,-2.9988,-3.0771,-3.007,-2.8465,0.0,0.0,0.0,0.0,0.0,0.0,0.0,0.0,0.0,0.0,0.0,0.0,0.0,0.0,0.0,0.0,0.0,0.0,0.0,0.0,0.0,0.0,0.0,0.0,0.0,0.0,0.0,0.0,0.0,0.0,0.0,0.0,0.0,0.0,0.0,0.0,0.0,-1.5299,-1.5202,-1.3267,-1.3734,-1.3718,0.0,0.0,0.0,0.0,0.0,0.0,-1.3959,-1.5204,-1.6163,-1.6854,-1.9312,-2.0866,-2.1457,-2.2303,-2.2822,-2.2822,-2.2822,-2.2656,-2.2353,-2.2353,-2.2178,-2.1875,-2.1768,-2.2096,-2.2707,-2.3097,-2.3645,-2.429,-2.5072,-2.5326,-2.5445,-2.6525,-2.6968,-2.713,0.0,0.0,0.0,0.0,0.0,0.0,0.0,0.0,0.0,0.0,0.0,-1.4789,-1.4835,-1.5816,-1.685,-1.7816,-1.934,-2.0799,-2.2035,-2.3006,-2.3822,-2.4482,-2.4833,-2.5421,-2.6305,-2.7625,-2.8199,-2.8032,-2.8945,-2.9042,-2.8322,-2.8057,-2.8495,-2.9557,-3.0058,-3.0794,-3.1613,-3.0863,-3.0753,-3.0975,-2.9322,0.0,0.0,0.0,0.0,0.0,0.0,0.0,0.0,0.0,0.0,0.0,0.0,0.0,0.0,0.0,0.0,0.0,0.0,0.0,0.0,0.0,0.0,0.0,0.0,0.0,0.0,0.0,0.0,0.0,0.0,0.0,0.0,0.0,0.0,0.0,0.0,0.0,0.0,-1.5405,-1.4768,0.0,0.0,0.0,0.0,-1.2783,-1.3227,-1.3828,-1.4402,-1.4886,-1.5061,-1.5095,-1.7567,-1.8833,-1.8621,-2.0801,-2.1953,-2.1953,-2.1953,-2.1934,-2.1924,-2.1924,-2.1904,-2.1865,-2.1445,-2.258,-2.4804,-2.4314,-2.3919,-2.3726,-2.5228,-2.5779,-2.5779,-2.5876,-2.6186,-2.6502,0.0,0.0,0.0,0.0,0.0,0.0,0.0,0.0,-1.4789,-1.5005,-1.4835,-1.4698,-1.4698,-1.5398,-1.6151,-1.6837,-1.8625,-2.0236,-2.1558,-2.2976,-2.4099,-2.4851,-2.5114,-2.5775,-2.6892,-2.7121,-2.735,-2.7584,-2.7577,-2.7141,-2.6267,-2.633,-2.6863,-2.7844,-2.8518,-2.9828,-3.1621,-3.2727,-3.2674,-3.1784,-3.1503,-3.0119,0.0,0.0,0.0,0.0,0.0,0.0,0.0,0.0,0.0,0.0,0.0,0.0,0.0,0.0,0.0,0.0,0.0,0.0,0.0,0.0,0.0,0.0,0.0,0.0,0.0,0.0,0.0,0.0,0.0,0.0,0.0,0.0,0.0,0.0,0.0,0.0,0.0,-1.447,-1.5089,0.0,-1.2919,-1.2988,-1.3287,-1.3587,-1.4329,-1.4863,-1.507,-1.5972,-1.6639,-1.7129,-1.879,-2.0009,-2.0671,-2.1451,-2.1885,-2.1885,-2.1602,-2.1318,-2.1025,-2.0742,-2.0767,-2.1073,-2.092,-2.1649,-2.3017,-2.3477,-2.4716,-2.6514,-2.7103,-2.7262,-2.7262,-2.7262,-2.7381,-2.754,0.0,0.0,0.0,0.0,0.0,0.0,0.0,0.0,-1.4003,-1.3716,-1.3726,-1.3643,-1.3385,-1.4125,-1.4846,-1.5392,-1.7685,-1.9596,-2.0783,-2.2765,-2.421,-2.487,-2.572,-2.6374,-2.6777,-2.699,-2.7093,-2.7058,-2.6472,-2.5914,-2.5412,-2.5311,-2.5714,-2.6577,-2.744,-2.8923,-3.084,-3.2747,-3.3167,-3.2581,-3.3032,-3.1725,-2.9602,0.0,0.0,0.0,0.0,0.0,0.0,0.0,0.0,0.0,0.0,0.0,0.0,0.0,0.0,0.0,0.0,0.0,0.0,0.0,0.0,0.0,0.0,0.0,0.0,0.0,0.0,0.0,0.0,0.0,0.0,0.0,0.0,0.0,0.0,0.0,-1.6888,-1.4218,-1.5168,-1.5073,-1.273,-1.3267,-1.3915,-1.4208,-1.4863,-1.5251,-1.5251,-1.6389,-1.7148,-1.739,-1.8884,-1.9998,-2.0647,-2.0915,-2.1084,-2.1211,-2.0781,-2.042,-2.0127,-1.9834,-2.0046,-2.0603,-2.0603,-2.1296,-2.2389,-2.3077,-2.4626,-2.6753,-2.7118,-2.7256,-2.7256,-2.7256,-2.7271,-2.7352,0.0,0.0,0.0,0.0,0.0,0.0,0.0,-1.2832,-1.2598,-1.176,-1.1738,-1.1516,-1.0864,-1.1984,-1.2964,-1.3497,-1.6514,-1.8781,-1.9675,-2.2271,-2.402,-2.4497,-2.6529,-2.7139,-2.6035,-2.7342,-2.7545,-2.6557,-2.577,-2.557,-2.5924,-2.5144,-2.5198,-2.6038,-2.7,-2.8154,-2.9451,-3.0703,-3.2045,-3.3373,-3.3688,-3.2498,-3.0513,0.0,0.0,0.0,0.0,0.0,0.0,0.0,0.0,0.0,0.0,0.0,0.0,0.0,0.0,0.0,0.0,0.0,0.0,0.0,0.0,0.0,0.0,0.0,0.0,0.0,0.0,0.0,0.0,0.0,0.0,0.0,0.0,0.0,-1.6929,-1.732,-1.7051,-1.5085,-1.5174,-1.4719,-1.3042,-1.3635,-1.4188,-1.4469,-1.477,-1.5019,-1.5013,-1.5948,-1.6253,-1.5613,-1.7616,-1.8565,-1.8344,-1.8965,-1.9492,-1.9893,-1.9453,-1.9248,-1.9248,-1.9219,-1.9695,-2.0519,-2.0519,-2.1614,-2.325,-2.325,-2.3511,-2.4029,-2.5121,-2.5548,-2.5615,-2.5615,-2.5743,-2.5946,0.0,0.0,0.0,0.0,0.0,0.0,0.0,-1.207,-1.1873,-1.1149,-1.1057,-1.0797,-1.0105,-1.1206,-1.2076,-1.2205,-1.4549,-1.6679,-1.8264,-2.0409,-2.256,-2.4632,-2.5984,-2.6535,-2.6228,-2.6494,-2.6376,-2.5783,-2.5234,-2.4778,-2.4399,-2.4412,-2.4875,-2.565,-2.5972,-2.7108,-2.8798,-2.9379,-3.0562,-3.2147,-3.3582,-3.3794,-3.3237,0.0,0.0,0.0,0.0,0.0,0.0,0.0,0.0,0.0,0.0,0.0,0.0,0.0,0.0,0.0,0.0,0.0,0.0,0.0,0.0,0.0,0.0,0.0,0.0,0.0,0.0,0.0,0.0,0.0,0.0,0.0,0.0,-1.973,-1.8734,-1.8769,-1.8433,-1.7406,-1.7162,-1.625,-1.4304,-1.4504,-1.4515,-1.3874,-1.4162,-1.4562,-1.5072,-1.5381,-1.5986,-1.703,-1.7643,-1.8282,-1.901,-1.919,-1.9346,-1.9453,-1.8711,-1.8359,-1.834,-1.7715,-1.8185,-1.9482,-1.9482,-2.0473,-2.2021,-2.2021,-2.2064,-2.2334,-2.3853,-2.4797,-2.5257,-2.5257,-2.5633,-2.6092,0.0,0.0,0.0,0.0,0.0,0.0,0.0,-1.114,-1.0578,-0.9629,-0.9459,-0.9179,-0.8502,-0.9357,-1.0,-0.9969,-1.2053,-1.413,-1.5905,-1.9165,-2.186,-2.3747,-2.5308,-2.5932,-2.5511,-2.5973,-2.5887,-2.5244,-2.499,-2.4625,-2.4211,-2.4441,-2.4797,-2.52,-2.5353,-2.6255,-2.768,-2.7956,-2.9025,-3.0648,-3.1786,-3.2675,-3.3334,-3.3799,-3.3093,-3.1942,-3.2319,-3.2134,-3.1609,-3.074,0.0,0.0,0.0,0.0,0.0,0.0,0.0,0.0,0.0,0.0,0.0,0.0,0.0,0.0,0.0,0.0,0.0,0.0,0.0,0.0,0.0,0.0,0.0,0.0,-2.0823,-2.098,-1.9718,-1.9551,-1.9056,-1.7732,-1.7415,-1.6392,-1.4193,-1.463,-1.4734,-1.388,-1.4367,-1.4771,-1.5196,-1.551,-1.6013,-1.6821,-1.7321,-1.7835,-1.8486,-1.8311,-1.8311,-1.8477,-1.7803,-1.748,-1.7461,-1.7262,-1.7863,0.0,-1.9408,-2.0296,-2.1493,-2.1493,-2.1509,0.0,0.0,0.0,0.0,0.0,-2.4978,-2.5085,0.0,0.0,0.0,0.0,0.0,0.0,0.0,-1.0112,-0.9127,-0.7877,-0.7581,-0.725,-0.6588,-0.7154,-0.7499,-0.727,-0.919,-1.1325,-1.3423,-1.8035,-2.1146,-2.2189,-2.437,-2.5173,-2.4344,-2.5573,-2.5786,-2.4911,-2.4911,-2.4891,-2.4866,-2.4917,-2.491,-2.4875,-2.5113,-2.565,-2.6384,-2.6578,-2.754,-2.8945,-2.9062,-3.0177,-3.1831,-3.2614,-3.2435,-3.188,-3.2747,-3.3059,-3.2942,-3.2279,0.0,0.0,0.0,0.0,0.0,0.0,0.0,0.0,0.0,0.0,0.0,0.0,0.0,0.0,0.0,0.0,0.0,0.0,0.0,0.0,0.0,0.0,0.0,0.0,-2.1821,-2.1711,-2.0123,-1.9801,-1.8976,-1.7009,-1.6606,-1.5678,-1.3516,-1.4313,-1.4688,-1.4139,-1.4773,-1.5284,-1.5315,0.0,0.0,0.0,0.0,-1.7256,-1.7314,-1.6924,-1.6924,-1.7425,-1.6943,-1.6707,-1.6822,-1.7358,-1.8067,-1.8892,-1.9586,-2.0346,-2.1226,-2.1226,-2.1326,-2.1581,-2.2247,-2.2485,-2.2577,-2.3907,-2.3961,-2.3435,0.0,0.0,0.0,0.0,0.0,0.0,0.0,-0.9717,-0.8633,-0.7824,-0.7176,-0.6583,-0.6064,-0.689,-0.6789,-0.5234,-0.6187,-0.867,-1.2906,-1.5453,-1.7896,-2.0443,-2.2446,-2.3603,-2.3828,-2.4662,-2.5068,-2.4977,-2.4977,-2.505,-2.5208,-2.5225,-2.5219,-2.5213,-2.5317,-2.5444,-2.5615,-2.5712,-2.6344,-2.7262,-2.7291,-2.87,-3.0806,-3.1088,-3.107,-3.1047,-3.1858,-3.2143,-3.2221,-3.2775,-3.295,-3.2803,-3.1947,-3.2031,0.0,0.0,0.0,0.0,0.0,0.0,0.0,0.0,0.0,0.0,0.0,0.0,0.0,0.0,0.0,0.0,0.0,0.0,0.0,-2.2994,-2.2752,-2.2062,-2.0149,-1.8994,-1.8212,-1.7764,-1.6812,-1.5692,-1.4536,-1.4589,-1.441,-1.3433,-1.3897,-1.4405,-1.4827,-1.4932,-1.5305,-1.599,-1.6247,-1.6494,-1.6855,-1.6777,-1.7073,-1.7677,0.0,0.0,-1.734,-1.6667,-1.6778,-1.7498,-1.7662,-1.8363,-1.9469,-1.9469,-2.0019,-2.105,-2.2781,-2.3121,-2.2729,-2.351,-2.3391,-2.2768,0.0,0.0,0.0,0.0,0.0,0.0,0.0,-0.879,-0.7534,-0.7182,-0.6209,-0.5458,-0.525,-0.4952,-0.4433,-0.3416,-0.4483,-0.6196,-0.8623,-1.1807,-1.4627,-1.6954,-1.9289,-2.0965,-2.1886,-2.3058,-2.3841,-2.4195,-2.4562,-2.4776,-2.4852,-2.5013,-2.5077,-2.5051,-2.5123,-2.5154,-2.5147,-2.5195,-2.5437,-2.5789,-2.5793,-2.6553,-2.7822,-2.9446,-3.0047,-3.0164,-3.101,-3.1568,-3.1969,-3.2405,-3.3142,-3.3771,-3.3339,-3.3498,-3.3506,0.0,0.0,0.0,0.0,0.0,0.0,0.0,0.0,0.0,0.0,0.0,0.0,0.0,0.0,-2.861,-2.7111,0.0,-2.6725,-2.4575,-2.3857,-2.2788,-2.0454,-1.8966,-1.7685,-1.6801,-1.6133,-1.5262,-1.3961,-1.44,-1.4392,-1.3494,-1.397,-1.4481,-1.4715,-1.4501,-1.462,-1.5098,-1.5098,-1.5377,-1.5894,-1.5894,-1.6218,-1.6912,-1.645,-1.6385,-1.6724,-1.6593,-1.6753,-1.7157,-1.7784,-1.841,-1.9035,-1.9636,-2.0174,-2.0824,-2.2177,-2.2496,-2.226,-2.2554,-2.2248,-2.165,0.0,0.0,0.0,0.0,0.0,0.0,0.0,-0.7966,-0.6588,-0.6588,-0.5348,-0.4366,-0.4082,-0.3186,-0.24,-0.184,-0.3144,-0.4079,-0.4207,-0.7927,-1.1138,-1.3407,-1.5956,-1.7922,-1.9349,-2.0897,-2.2023,-2.2681,-2.3506,-2.3894,-2.3877,-2.4251,-2.4458,-2.4495,-2.4558,-2.4617,-2.4685,-2.4685,-2.466,-2.4622,-2.4622,-2.4613,-2.4881,-2.737,-2.8387,-2.8623,-2.9492,-3.021,-3.0803,-3.113,-3.2179,-3.3417,-3.3799,-3.392,-3.3794,-3.3145,-3.2955,0.0,0.0,0.0,0.0,0.0,0.0,0.0,0.0,-3.2713,-3.2508,-3.1811,-3.179,-3.144,-2.9795,-2.9068,-2.7931,-2.5589,-2.4497,-2.3018,-2.0472,-1.8859,-1.7348,-1.5598,-1.5256,-1.4644,-1.3141,-1.3936,-1.4256,-1.3626,-1.4267,-1.4619,-1.4541,-1.4297,-1.4152,-1.4152,-1.4258,-1.4612,-1.5289,-1.5278,-1.5577,-1.6204,-1.6126,-1.6131,-1.628,-1.6763,-1.7039,-1.7216,-1.8429,-1.899,-1.9078,-2.0075,-2.0486,-2.0582,-2.1119,-2.1306,-2.1321,-2.1455,-2.1081,-2.0513,0.0,0.0,0.0,0.0,0.0,0.0,0.0,0.0,-0.6588,-0.6588,-0.5348,-0.3968,-0.2621,-0.3535,-0.3142,-0.0502,-0.1615,-0.2648,-0.3138,-0.4509,-0.7244,-1.1597,-1.3205,-1.4906,-1.6756,-1.8159,-1.9264,-2.0121,-2.1218,-2.1829,-2.2002,-2.2536,-2.2983,-2.3378,-2.3389,-2.3578,-2.3916,-2.3916,-2.3916,-2.3916,-2.3916,-2.3916,-2.3953,-2.4302,-2.48,-2.5418,-2.6228,-2.6574,-2.6896,-2.8385,-2.9064,-2.9566,-3.1287,-3.184,-3.1859,-3.2083,-3.2091,-3.1852,-3.0937,-3.1281,-3.2502,-3.5019,-3.4741,-3.4918,0.0,-3.7877,-3.6004,-3.6059,-3.4691,-3.2779,-3.0578,-2.9187,-2.7495,-2.4845,-2.3675,-2.2122,-1.9278,-1.8155,-1.6992,-1.5482,-1.4821,-1.4246,-1.3523,-1.3562,-1.3601,-1.3539,-1.3941,-1.4043,-1.3672,-1.4124,-1.4374,-1.4374,-1.487,-1.5422,-1.5913,-1.5913,-1.6266,-1.695,-1.6478,-1.6609,-1.721,-1.6747,-1.6845,-1.7329,-1.8418,-1.8902,-1.8955,-1.9575,-1.9826,-1.9826,-1.9899,-1.9914,-1.9989,-2.0602,-2.0393,-1.9867,0.0,0.0,0.0,0.0,0.0,0.0,0.0,0.0,0.0,-0.6588,-0.5348,-0.3913,-0.2343,-0.2014,-0.1401,-0.0112,-0.0559,-0.1392,-0.2481,-0.3773,-0.5734,-0.8526,-0.9945,-1.1556,-1.3486,-1.5057,-1.6399,-1.75,-1.9201,-2.0035,-2.014,-2.0908,-2.1372,-2.1569,-2.1867,-2.2074,-2.226,-2.2555,-2.2859,-2.3092,-2.3092,-2.324,-2.3466,-2.3466,-2.3632,-2.3947,-2.4504,-2.5038,0.0,-2.6476,-2.7445,-2.8472,-2.949,-3.0209,-3.0636,-3.0331,-3.0653,-3.1136,-3.134,-3.2344,-3.3692,-3.5232,-3.6234,-3.7318,-3.9058,-3.8221,-3.6986,-3.6649,-3.5333,-3.3463,-3.0867,-2.9212,-2.7378,0.0,-2.3137,-2.1501,-1.9611,-1.8252,-1.7085,-1.6067,-1.5439,-1.4849,-1.4265,-1.3879,-1.3831,-1.4169,-1.4338,-1.437,-1.4227,-1.4445,-1.4577,-1.4577,-1.4813,-1.5195,-1.5764,-1.5776,-1.6103,-1.6769,-1.6848,-1.6832,-1.6751,-1.6808,-1.6926,-1.7093,-1.7533,-1.7905,-1.8234,-1.8661,-1.9104,-1.9538,-1.9739,-1.9838,-1.9882,-2.0323,-2.0279,-2.0089,0.0,0.0,0.0,0.0,0.0,0.0,0.0,0.0,0.0,0.0,-0.5238,-0.3749,-0.1786,-0.0615,0.0,0.0,0.0,-0.0448,-0.1506,-0.34,-0.4944,-0.6,-0.6961,-0.8416,-1.0359,-1.1987,-1.3337,-1.4458,-1.6494,-1.7594,-1.7801,-1.8626,-1.9228,-1.9705,-2.0049,-2.0353,-2.0653,-2.104,-2.1595,-2.222,-2.222,-2.2586,-2.3116,-2.2945,-2.2876,-2.2929,-2.3444,-2.4046,-2.462,-2.4799,-2.5688,-2.684,-2.738,-2.8131,-2.8734,-2.8492,-2.904,-2.9972,-3.0957,-3.2263,-3.3546,-3.443,-3.6431,-3.8118,-3.7806,-3.7723,-3.7363,-3.6155,-3.4835,-3.3162,-3.0736,-2.8722,-2.6747,-2.4567,-2.277,-2.1113,-1.9574,-1.8358,-1.7395,-1.6767,-1.6176,-1.5723,-1.5463,-1.4592,-1.4236,-1.4652,-1.4698,-1.4698,-1.4698,-1.488,-1.4971,-1.4971,-1.4969,-1.521,-1.5603,-1.5575,-1.581,-1.6223,-1.6716,-1.6731,-1.6242,-1.6797,-1.7,-1.6904,-1.7055,-1.739,-1.7861,-1.8099,-1.861,-1.9264,-1.9497,-1.9604,-1.9621,-1.9941,-1.9986,-1.9953,0.0,0.0,0.0,0.0,0.0,0.0,0.0,0.0,0.0,0.0,0.0,0.0,0.0,-0.0,0.0,0.0,0.0,-0.0,-0.0056,-0.2858,-0.4543,-0.4539,-0.459,-0.5612,-0.7647,-0.9043,-1.0089,-1.0864,-1.2755,-1.3978,-1.4654,-1.5203,-1.6303,-1.7866,-1.7904,-1.8464,-1.9461,-1.9476,-2.0167,-2.1237,-2.1237,-2.1953,-2.2955,-2.2271,-2.2032,-2.2151,-2.2929,-2.3253,-2.3271,-2.3271,-2.3289,-2.3542,-2.4563,-2.5152,-2.5634,-2.6668,-2.7405,-2.8128,-2.9196,-3.0089,-3.1137,-3.2817,-3.4839,-3.6389,-3.635,-3.7303,-3.7511,-3.5154,-3.3313,-3.1675,-3.0039,-2.7404,-2.5063,-2.3756,-2.2484,-2.0893,-1.8552,-1.8205,-1.7974,-1.742,-1.68,-1.6638,0.0,-1.5693,-1.4698,-1.4698,-1.4698,-1.4698,-1.4698,-1.5231,-1.5588,-1.5588,-1.5635,-1.5677,-1.5718,-1.5556,-1.5487,-1.5537,-1.5932,-1.6136,-1.6109,-1.6642,-1.6884,-1.6938,-1.7438,-1.7878,-1.8177,-1.8207,-1.8436,-1.8826,-1.8826,-1.8826,-1.8885,-1.9272,-1.9188,-1.8917,0.0,0.0,0.0,0.0,0.0,0.0,0.0,0.0,0.0,0.0,0.0,0.0,0.0,0.0,0.0,0.0,0.0,0.0,0.0,-0.095,-0.1953,-0.2947,-0.3962,-0.4842,-0.5508,-0.5979,-0.7023,-0.8619,-1.082,-1.2004,-1.2264,-1.3501,-1.4735,-1.582,-1.6197,-1.7107,-1.8432,-1.8762,-1.9824,-2.1184,-2.0801,-2.1327,-2.2173,-2.1181,-2.128,-2.1936,0.0,-2.1447,-2.1824,-2.23,-2.246,-2.2617,-2.346,-2.392,-2.4257,-2.497,-2.5558,-2.6217,-2.7142,-2.8138,-2.9296,-3.1047,-3.2404,-3.3557,-3.4453,-3.4737,-3.4492,-3.331,-3.1925,-3.0241,-2.798,-2.6145,-2.4292,-2.2363,-2.1173,-2.0081,-1.8855,-1.8383,-1.7935,-1.7418,-1.7136,0.0,0.0,0.0,0.0,-1.5901,-1.5876,-1.5876,-1.5876,-1.6107,-1.615,-1.6055,-1.6081,-1.6049,-1.5962,-1.5935,-1.5914,-1.5901,-1.6,-1.6189,-1.6485,-1.6254,-1.6293,-1.6517,-1.6694,-1.6967,-1.7286,-1.7498,-1.7973,-1.8561,-1.8772,-1.8875,-1.8884,-1.9232,-1.8934,-1.8552,0.0,0.0,0.0,0.0,0.0,0.0,0.0,0.0,0.0,0.0,0.0,0.0,0.0,0.0,0.0,0.0,0.0,0.0,0.0,0.0,-0.0447,-0.1395,-0.2373,-0.3124,-0.3671,-0.4198,-0.5173,-0.6597,-0.8429,-0.9556,-1.0064,-1.1511,-1.2912,-1.4243,-1.5034,-1.6236,-1.7718,-1.8031,-1.9006,-2.0311,-2.0134,-2.0657,-2.147,-2.0705,-2.0907,0.0,-2.0413,-2.0152,-2.0389,-2.1399,-2.1694,-2.1811,-2.2451,-2.2902,-2.3338,-2.3859,-2.4345,-2.4924,-2.5888,-2.6713,-2.7692,-2.9218,-3.0195,-3.1016,-3.1853,-3.2037,-3.183,-3.1086,-3.0081,-2.873,-2.6784,-2.5411,-2.3984,-2.2261,-2.1239,-2.0326,-1.9302,-1.8849,-1.8436,-1.7949,-1.7852,-1.7741,0.0,0.0,0.0,-1.6791,-1.6827,-1.6734,-1.6514,-1.6459,-1.6314,-1.6009,-1.5978,-1.5908,-1.5804,-1.5772,-1.5831,-1.5985,-1.607,-1.6263,-1.6547,-1.6279,-1.6274,-1.6474,-1.6474,-1.6686,-1.7002,-1.7311,-1.7783,-1.8353,-1.8676,-1.8788,-1.881,-1.8982,-1.8749,-1.847,0.0,0.0,0.0,0.0,0.0,0.0,0.0,0.0,0.0,0.0,0.0,0.0,0.0,0.0,0.0,0.0,0.0,0.0,0.0,0.0,0.0,0.0,0.0,-0.0647,-0.2056,-0.3498,-0.4403,-0.4702,-0.5671,-0.6799,-0.8036,-0.9209,-1.0975,-1.3134,-1.4234,-1.5688,-1.7213,-1.7191,-1.7771,-1.8772,-1.9216,-1.9984,-2.0781,-2.0726,-2.0726,-2.0671,-2.0014,-1.9412,-1.9182,-2.0478,-2.0942,-2.1023,-2.143,-2.2074,-2.2762,-2.3276,-2.3697,-2.421,-2.53,-2.5811,-2.627,-2.736,-2.8237,-2.8795,-2.8785,-2.9369,-2.9655,-2.8673,-2.7959,-2.7277,-2.6399,-2.52,-2.4075,-2.3257,-2.2552,-2.1542,-1.9909,-1.9641,-1.9465,-1.8988,-1.8907,-1.8865,0.0,0.0,0.0,-1.7475,0.0,-1.7183,-1.6546,-1.6415,-1.61,-1.5533,-1.5391,-1.5318,-1.5324,-1.5205,-1.5374,-1.5827,-1.6163,-1.6328,-1.6355,-1.6659,-1.6815,-1.6815,-1.6815,-1.7027,-1.7375,-1.762,-1.7924,-1.8249,-1.8489,-1.8585,-1.8604,-1.8622,-1.8623,-1.8642,0.0,0.0,0.0,0.0,0.0,0.0,0.0,0.0,0.0,0.0,0.0,0.0,0.0,0.0,0.0,0.0,0.0,0.0,0.0,0.0,0.0,0.0,0.0,-0.0183,-0.0547,-0.0917,-0.1961,-0.3676,-0.4804,-0.5852,-0.686,-0.8589,-1.0069,-1.1196,-1.2181,-1.4003,-1.6305,-1.5972,-1.7066,-1.8954,-1.8701,-1.8972,-1.9547,-1.9263,-1.9709,-2.0335,-1.9522,-1.9692,-2.0293,-2.003,-2.0167,-2.0471,-2.1007,-2.1652,-2.2272,-2.2426,-2.3006,-2.3755,-2.4284,-2.4601,-2.4892,-2.5427,-2.5826,-2.6265,-2.6897,-2.7342,-2.7673,-2.7798,-2.7235,-2.6461,-2.5702,-2.4992,-2.4063,-2.262,-2.2465,-2.2117,-2.0827,-2.0333,-1.9929,-1.9465,-1.9094,-1.8736,-1.8327,-1.8659,0.0,0.0,-1.8124,-1.7652,-1.697,-1.6905,-1.6564,-1.5899,-1.5849,-1.5776,-1.5667,-1.5901,-1.6037,-1.6163,-1.6501,-1.6659,-1.6686,-1.6763,-1.6942,-1.7175,-1.7175,-1.7469,-1.798,-1.8044,-1.8232,-1.8508,-1.8566,-1.8585,-1.8623,-1.8825,-1.8964,-1.9075,0.0,0.0,0.0,0.0,0.0,0.0,0.0,0.0,0.0,0.0,0.0,0.0,0.0,0.0,0.0,0.0,0.0,0.0,0.0,0.0,0.0,0.0,0.0,0.0,0.0,0.0,-0.0953,-0.2818,-0.4446,-0.5449,-0.5888,-0.7572,-0.9012,-1.0271,-1.1261,-1.3211,-1.5747,-1.551,-1.6387,0.0,0.0,-1.8068,-1.8126,-1.8338,-1.8744,-1.9084,-1.8908,-1.9381,-1.9894,-1.922,-1.9257,-1.9672,-2.0234,-2.0799,-2.1299,-2.1529,-2.2231,-2.2928,-2.3117,-2.3473,-2.3931,-2.4338,-2.4526,-2.4803,-2.5524,-2.588,-2.6142,-2.644,-2.6164,-2.5736,-2.5248,-2.5282,-2.4928,-2.342,-2.3515,-2.3294,-2.1954,-2.1231,-2.0634,-1.9974,-1.9671,-1.9325,-1.8841,-1.9094,-1.9229,0.0,-1.875,-1.8048,-1.7155,-1.7026,-1.6571,-1.5633,-1.5792,-1.589,-1.5799,-1.6136,-1.6301,-1.6301,-1.6894,-1.7191,-1.7215,-1.7459,-1.7704,-1.7859,0.0,-1.8069,-1.8391,-1.8508,-1.868,-1.8876,-1.8996,-1.9061,-1.9136,-1.9298,-1.9397,-1.942,0.0,0.0,0.0,0.0,0.0,0.0,0.0,0.0,0.0,0.0,0.0,0.0,0.0,0.0,0.0,0.0,0.0,0.0,0.0,0.0,0.0,0.0,0.0,0.0,0.0,0.0,-0.073,-0.2184,-0.4312,-0.5239,-0.5135,-0.641,-0.7956,-0.9586,-1.0782,-1.2734,-1.5112,-1.5058,-1.5472,-1.6257,-1.7083,-1.7153,-1.6808,0.0,-1.7888,-1.7612,-1.8298,-1.8662,-1.871,-1.8201,-1.8341,-1.8793,-1.9259,-1.9667,-2.0104,-2.0585,-2.1256,-2.1864,-2.1905,-2.2426,-2.3112,-2.3674,-2.3835,-2.3989,-2.4505,-2.4822,-2.5024,-2.505,-2.5128,-2.5145,-2.504,-2.5753,-2.5964,-2.4729,-2.4867,-2.4549,-2.2969,-2.2142,-2.1383,-2.0618,-2.0434,-2.0227,-1.9818,-1.9782,-1.9782,-1.9782,-1.9257,-1.845,-1.7296,-1.7088,-1.6492,-1.5359,-1.5711,-1.5926,-1.5926,-1.6274,-1.6421,-1.6448,-1.7325,-1.7776,-1.7798,-1.8336,-1.8585,-1.8585,0.0,0.0,-1.866,-1.8931,-1.9113,-1.9276,-1.9536,-1.9707,-1.979,-1.9677,-1.9651,-1.953,0.0,0.0,0.0,0.0,0.0,0.0,0.0,0.0,0.0,0.0,-0.5289,-0.4472,0.0,0.0,0.0,0.0,0.0,0.0,0.0,0.0,0.0,0.0,0.0,0.0,0.0,0.0,-0.073,-0.2184,-0.4045,-0.5035,-0.5135,-0.6213,-0.7292,-0.8333,-0.9297,-1.0866,-1.2923,-1.2554,-1.3521,-1.5139,-1.5349,-1.5702,-1.6316,-1.712,0.0,0.0,-1.7668,-1.7795,-1.7702,-1.7191,-1.7612,-1.8326,-1.8363,-1.8655,-1.9075,-1.9148,-1.9832,-2.0606,-2.0877,-2.1354,-2.1956,-2.2658,-2.2971,-2.3191,-2.3626,-2.4149,-2.4568,-2.4735,-2.4949,-2.5132,-2.5165,-2.5754,-2.5793,-2.4406,-2.4732,-2.4685,-2.3302,-2.2466,-2.1955,-2.1824,-2.1258,-2.0698,-2.0261,-2.0193,0.0,0.0,0.0,-1.8818,-1.8036,-1.7772,-1.7289,-1.6528,-1.6581,-1.6633,-1.6633,-1.6977,-1.7126,-1.7134,-1.7788,-1.8107,-1.8128,-1.845,-1.8585,-1.8585,-1.8585,0.0,-1.8949,-1.9111,-1.9313,-1.955,-1.9701,-1.9786,-1.9715,-1.8994,-1.8825,-1.8859,0.0,0.0,0.0,0.0,0.0,0.0,0.0,-0.8156,-0.745,-0.6696,-0.5664,-0.4971,-0.481,-0.3523,-0.196,0.0,0.0,0.0,0.0,0.0,0.0,0.0,0.0,0.0,0.0,0.0,-0.0784,-0.2444,0.0,-0.4961,-0.5135,-0.5737,-0.6465,-0.7372,-0.8226,-0.963,-1.1397,-1.1522,-1.2432,-1.3943,-1.4005,-1.4441,-1.5194,0.0,0.0,0.0,-1.7094,-1.7411,-1.7801,-1.7044,-1.6958,-1.7198,-1.7462,-1.7786,-1.809,-1.8363,-1.8941,-1.9516,-1.9667,-2.003,-2.0591,-2.142,-2.1687,-2.2,-2.2852,-2.3446,-2.3933,-2.4257,-2.4662,-2.4985,-2.5071,-2.5705,-2.5917,-2.5064,-2.5115,-2.4881,-2.3863,-2.298,-2.2279,-2.1903,-2.1535,-2.115,-2.0715,-2.0649,-2.0508,-2.0129,0.0,-1.9083,-1.8586,-1.7749,-1.7141,-1.6805,-1.6789,-1.6876,-1.7011,-1.7342,-1.7367,-1.7091,-1.8124,-1.8374,-1.7967,-1.8645,-1.9014,-1.913,-1.913,0.0,-1.9415,-1.9494,-1.9638,-1.9813,-1.988,-1.9715,-1.9393,-1.8964,-1.859,-1.816,0.0,0.0,0.0,0.0,0.0,0.0,0.0,-0.8315,-0.7616,-0.6696,-0.6091,-0.5528,-0.4907,-0.4997,-0.404,0.0,0.0,0.0,0.0,0.0,0.0,0.0,0.0,0.0,0.0,0.0,0.0,-0.2121,-0.4084,0.0,0.0,0.0,0.0,0.0,-0.75,-0.8742,-1.0102,-1.0742,-1.16,0.0,0.0,-1.3228,0.0,0.0,0.0,0.0,0.0,-1.6478,-1.717,-1.6279,-1.5797,-1.5628,-1.6026,-1.6435,-1.6828,-1.7259,-1.7825,-1.8282,-1.8282,-1.8697,-1.9313,-2.01,-2.0283,-2.0575,-2.168,-2.2348,-2.2873,-2.3368,-2.3969,-2.4492,-2.4803,-2.541,-2.5792,-2.5565,-2.5384,-2.5041,-2.4419,-2.3517,-2.266,-2.2079,-2.1757,-2.1491,-2.1259,-2.1086,0.0,-2.0267,0.0,0.0,-1.8789,-1.7704,-1.7134,-1.7166,-1.7183,-1.7294,-1.7507,-1.7764,-1.7683,-1.7275,-1.8485,-1.8689,-1.8055,-1.8974,-1.9476,-1.9649,-1.9649,0.0,0.0,-1.9851,-1.9928,-2.003,-1.9869,-1.9522,-1.9062,-1.8696,-1.8127,-1.7433,0.0,0.0,0.0,0.0,0.0,0.0,0.0,-0.8752,-0.8209,-0.6804,-0.6534,-0.6081,-0.4987,-0.5032,-0.503,0.0,0.0,0.0,0.0,0.0,0.0,0.0,0.0,0.0,0.0,0.0,0.0,-0.0257,-0.3704,0.0,0.0,0.0,0.0,0.0,0.0,-0.7976,-0.8794,-0.9545,0.0,0.0,0.0,0.0,0.0,0.0,0.0,0.0,0.0,-1.3811,-1.3964,-1.3501,-1.3436,-1.3505,-1.3258,-1.3981,-1.4971,-1.5005,-1.5772,-1.6621,-1.6621,-1.741,-1.8338,-1.8852,-1.8972,-1.9104,-1.9567,-2.035,-2.1098,-2.1705,-2.2485,-2.3353,-2.4281,-2.4614,-2.4794,-2.4941,-2.506,-2.5034,-2.4794,-2.4035,-2.3464,-2.3334,-2.2285,-2.1715,-2.1984,-2.1381,-2.107,0.0,0.0,0.0,-1.8306,-1.8151,-1.8191,-1.8432,-1.8432,-1.8452,-1.8471,-1.8491,-1.8475,-1.846,-1.8959,-1.9149,-1.9091,-1.955,-1.9755,-1.9786,-1.9786,0.0,0.0,-2.002,-2.0129,-2.0123,-1.9438,-1.915,-1.8924,-1.7398,-1.6782,-1.6592,0.0,0.0,0.0,0.0,0.0,0.0,-0.8804,-0.8427,-0.783,-0.6875,-0.6275,-0.5694,-0.5005,-0.4925,-0.5113,-0.5352,0.0,0.0,0.0,0.0,0.0,0.0,0.0,0.0,0.0,0.0,0.0,-0.0,-0.2554,0.0,0.0,0.0,0.0,0.0,0.0,-0.7196,-0.7881,-0.8501,0.0,0.0,0.0,0.0,0.0,0.0,0.0,0.0,0.0,0.0,-1.3551,-1.3133,-1.2872,-1.2719,-1.2376,-1.2422,-1.2847,-1.3789,-1.4402,-1.4846,-1.5252,-1.5728,-1.6182,-1.6712,-1.6811,-1.7114,-1.819,-1.8855,-1.9501,-2.04,-2.1247,-2.1979,-2.25,-2.3173,-2.3742,-2.4062,-2.4161,-2.4288,-2.4521,-2.3877,-2.3399,-2.3552,-2.2782,-2.2307,0.0,0.0,-2.1961,0.0,0.0,0.0,-1.8806,-1.8108,-1.7977,-1.8567,-1.82,-1.827,-1.8843,-1.9008,-1.888,-1.8492,-1.9212,-1.9313,-1.8858,-1.9538,-1.991,-1.9985,-2.0025,0.0,0.0,-1.9692,-1.951,-1.9451,-1.8633,-1.8018,-1.752,-1.6856,-1.6288,-1.583,0.0,0.0,0.0,0.0,0.0,-0.8804,-0.8804,-0.8438,-0.7816,-0.691,-0.6341,-0.5676,-0.4946,-0.4894,-0.5026,-0.5287,-0.5397,0.0,0.0,0.0,0.0,0.0,0.0,0.0,0.0,0.0,0.0,-0.0,-0.1685,-0.3505,0.0,0.0,-0.5237,-0.5128,0.0,0.0,0.0,0.0,0.0,0.0,0.0,0.0,0.0,0.0,0.0,0.0,0.0,0.0,0.0,0.0,0.0,-1.1557,-1.1191,-1.0919,-1.0966,-1.2421,-1.2974,-1.3212,-1.3658,-1.395,-1.4264,-1.4824,-1.4959,-1.528,-1.661,-1.7329,-1.7983,-1.8876,-1.978,-2.0542,-2.0878,-2.1623,-2.2306,-2.2681,-2.3047,-2.3468,-2.4007,-2.3712,-2.3498,-2.3678,0.0,-2.2694,0.0,-2.2744,0.0,0.0,0.0,0.0,0.0,-1.8362,-1.8133,-1.8925,-1.8507,-1.8566,-1.9225,-1.9411,-1.9276,-1.8821,-1.9507,-1.9574,-1.9063,-1.9722,-2.0076,-2.0178,0.0,0.0,0.0,-1.9482,-1.9141,-1.9044,-1.7917,-1.714,-1.6604,-1.6318,-1.5862,-1.536,0.0,0.0,0.0,0.0,0.0,0.0,-0.8804,-0.8997,-0.857,-0.6836,-0.689,-0.6459,-0.4865,-0.4826,-0.4979,-0.5075,-0.5301,0.0,0.0,0.0,0.0,0.0,0.0,0.0,0.0,0.0,0.0,-0.0,-0.148,-0.3281,-0.5368,-0.5212,-0.5131,-0.5125,0.0,0.0,0.0,0.0,0.0,0.0,0.0,0.0,0.0,0.0,0.0,0.0,0.0,0.0,0.0,0.0,0.0,0.0,0.0,-0.9245,-0.9446,-1.0518,-1.1232,-1.1702,-1.1751,-1.2203,-1.2867,-1.3533,-1.3695,-1.3903,-1.4595,-1.5608,-1.6553,-1.7047,-1.8043,-1.9038,-1.9774,-2.0083,-2.0347,-2.0687,-2.172,-2.2703,-2.324,-2.3702,-2.3961,-2.3894,-2.3061,-2.2688,-2.3147,-2.2483,0.0,0.0,0.0,0.0,0.0,-1.9092,-1.9016,-1.976,-1.9778,-1.979,-1.9778,-1.979,-1.979,-1.979,-1.9924,-2.0021,-2.0086,-2.0227,-2.0334,0.0,0.0,0.0,0.0,-1.9558,-1.9231,-1.912,-1.7392,-1.6706,-1.6588,-1.5663,-1.5318,-1.5296,0.0,0.0,0.0,0.0,0.0,0.0,0.0,-0.8009,-0.7269,-0.685,-0.5961,-0.5178,-0.4882,-0.4891,-0.4924,-0.496,-0.4089,0.0,0.0,0.0,0.0,0.0,0.0,0.0,0.0,0.0,0.0,-0.0,-0.0441,-0.2205,-0.5034,-0.5216,-0.5205,-0.5128,-0.5332,-0.5586,0.0,0.0,0.0,0.0,0.0,0.0,0.0,0.0,0.0,0.0,0.0,0.0,0.0,0.0,0.0,0.0,0.0,0.0,0.0,-0.7872,-0.9096,-1.0493,-1.0948,-1.1232,-1.1472,-1.1679,-1.1729,-1.1868,-1.2493,-1.2934,-1.3471,-1.4575,-1.5008,-1.5532,-1.6697,-1.6718,-1.7197,-1.9163,-1.8897,-1.9233,-2.1436,-2.1972,-2.2448,-2.3199,-2.3636,-2.3573,0.0,0.0,0.0,0.0,0.0,0.0,0.0,-1.9847,-1.9774,-1.9864,-1.9476,-1.9471,-1.9934,-2.0126,-2.0164,-2.0059,-2.0159,-2.0226,-2.0245,-2.0276,0.0,0.0,0.0,0.0,0.0,-1.8679,-1.7971,-1.7337,-1.6198,-1.5734,-1.5713,-1.5405,-1.5304,-1.5294,0.0,0.0,0.0,0.0,0.0,0.0,0.0,-0.7913,-0.7115,-0.6834,-0.5798,-0.5019,-0.4872,-0.4884,-0.4927,-0.4903,-0.3572,0.0,0.0,0.0,0.0,0.0,0.0,0.0,0.0,0.0,0.0,0.0,0.0,-0.1049,-0.3109,-0.4482,-0.5168,-0.5202,-0.5077,-0.5275,0.0,0.0,0.0,0.0,0.0,0.0,-0.8538,0.0,0.0,0.0,0.0,0.0,0.0,0.0,0.0,0.0,0.0,0.0,0.0,0.0,-0.754,-0.8751,-0.9429,-0.9629,-0.9681,-0.9931,-1.0033,-1.012,-1.0479,-1.0972,-1.146,-1.2059,-1.2473,-1.3124,-1.415,-1.418,-1.4541,-1.6293,-1.4825,-1.4694,-1.8127,-1.9547,0.0,-2.2635,0.0,0.0,0.0,0.0,0.0,0.0,0.0,0.0,0.0,-2.0241,-2.0181,-2.0057,-1.9683,-1.969,-2.0106,-2.0286,-2.0324,-2.0241,-2.0273,-2.0304,-2.0291,-2.0292,0.0,0.0,0.0,0.0,0.0,-1.7904,-1.7083,-1.6499,-1.5637,-1.5274,-1.5216,-1.5204,-1.5165,-1.5143,0.0,0.0,0.0,0.0,0.0,0.0,0.0,-0.8373,-0.7716,-0.6722,-0.6211,-0.5596,-0.4803,-0.4816,-0.4914,-0.4906,0.0,0.0,0.0,0.0,0.0,0.0,0.0,0.0,0.0,0.0,0.0,0.0,0.0,0.0,-0.0059,-0.3287,-0.4991,-0.5339,-0.5064,-0.5006,0.0,0.0,0.0,0.0,0.0,0.0,0.0,0.0,0.0,0.0,0.0,0.0,0.0,0.0,0.0,0.0,0.0,0.0,0.0,0.0,0.0,0.0,0.0,-0.7616,-0.7771,-0.837,-0.8574,-0.8561,-0.8528,-0.9526,0.0,-0.9634,-1.0458,-1.1438,-1.1855,-1.1774,-1.1724,-1.1792,-0.958,-0.9122,-1.2681,-1.5671,0.0,0.0,-2.3739,0.0,0.0,0.0,0.0,0.0,0.0,0.0,0.0,-2.0269,-2.025,-2.0191,-2.0191,-2.0193,-2.0214,-2.0214,-2.0194,-2.0135,-2.0174,-2.0183,-2.0185,-2.024,0.0,0.0,0.0,0.0,0.0,-1.7247,-1.6541,-1.6406,-1.5593,-1.5196,-1.5084,-1.5011,-1.4957,-1.4904,0.0,0.0,0.0,0.0,0.0,0.0,0.0,0.0,0.0,0.0,-0.5593,-0.484,-0.4735,-0.4721,-0.4863,0.0,0.0,0.0,0.0,0.0,0.0,0.0,0.0,0.0,0.0,0.0,0.0,0.0,0.0,0.0,-0.0059,-0.3477,-0.5069,-0.5148,-0.5241,-0.5238,0.0,0.0,0.0,0.0,0.0,0.0,0.0,0.0,0.0,0.0,-0.7637,-0.7699,0.0,0.0,0.0,0.0,0.0,0.0,0.0,0.0,-0.4967,-0.5187,-0.6064,0.0,-0.6907,-0.7063,-0.7111,-0.7111,0.0,-0.7357,-0.7835,-0.8732,-0.862,-0.7939,-0.6509,-0.4988,-0.377,-0.3118,-0.3294,-0.2327,0.1182,-0.4509,0.0,-2.3689,-2.3892,0.0,0.0,0.0,0.0,0.0,0.0,0.0,0.0,-1.9962,-1.9762,-1.9104,-1.9085,-1.9193,-1.9463,-1.9463,-1.9109,-1.8459,-1.8937,-1.9143,-1.9161,-1.9687,0.0,0.0,0.0,0.0,-1.6864,-1.6455,-1.5898,-1.528,-1.5063,-1.4963,-1.4957,-1.4919,-1.4911,-1.4886,0.0,0.0,0.0,0.0,0.0,0.0,0.0,0.0,0.0,0.0,0.0,-0.4577,-0.4674,-0.4755,0.0,0.0,0.0,0.0,0.0,0.0,0.0,0.0,0.0,0.0,0.0,0.0,0.0,0.0,0.0,0.0,-0.0057,-0.1898,-0.3549,-0.5034,-0.5287,-0.5317,0.0,0.0,0.0,0.0,-0.525,0.0,0.0,0.0,0.0,0.0,-0.6916,-0.6793,0.0,-0.6376,-0.5727,-0.5069,0.0,0.0,0.0,0.0,-0.4484,-0.4311,-0.344,-0.4371,-0.5769,-0.646,-0.6579,-0.641,-0.5795,-0.5614,-0.5592,-0.5404,-0.5008,-0.4162,-0.2589,-0.0989,0.0941,0.3548,0.4142,0.0,0.0,0.0,-0.6034,-1.615,-1.7648,0.0,0.0,0.0,0.0,0.0,0.0,0.0,0.0,-1.9056,-1.8852,-1.8483,-1.8036,-1.8006,-1.8382,-1.8363,-1.8144,-1.7661,-1.8003,-1.8165,-1.8184,-1.8928,-1.8836,0.0,0.0,0.0,-1.6658,-1.5913,-1.5536,-1.5404,-1.5027,-1.485,-1.4804,-1.4804,-1.4766,-1.4687,0.0,0.0,0.0,0.0,0.0,0.0,0.0,0.0,0.0,0.0,0.0,0.0,0.0,0.0,0.0,0.0,0.0,0.0,0.0,0.0,0.0,0.0,0.0,0.0,0.0,0.0,0.0,0.0,0.0,0.0,0.0,0.0,-0.1485,-0.418,-0.4718,-0.5168,0.0,0.0,-0.5247,0.0,-0.5223,0.0,0.0,0.0,0.0,0.0,0.0,0.0,0.0,-0.5686,-0.5026,-0.4196,-0.4428,0.0,0.0,0.0,0.0,0.0,-0.0721,-0.1549,-0.3547,-0.5187,-0.5593,-0.5254,-0.4086,-0.3788,-0.3324,-0.1608,-0.1103,-0.0605,0.0498,0.1822,0.408,0.8075,0.0,0.0,0.6611,0.5288,0.2544,-0.3644,0.0,0.0,0.0,0.0,0.0,0.0,0.0,0.0,0.0,-1.7641,-1.7522,-1.7618,-1.6851,-1.6546,-1.6803,-1.7016,-1.7065,-1.6971,-1.7045,-1.7091,-1.7149,-1.7933,-1.7847,0.0,0.0,0.0,-1.6778,-1.5527,-1.5339,-1.5751,-1.5057,-1.4708,-1.4577,-1.4577,-1.4508,-1.4387,0.0,0.0,0.0,0.0,0.0,0.0,0.0,0.0,0.0,0.0,0.0,0.0,0.0,0.0,0.0,0.0,0.0,0.0,0.0,0.0,0.0,0.0,0.0,0.0,0.0,0.0,0.0,0.0,0.0,0.0,0.0,0.0,-0.0289,-0.0795,-0.2402,-0.3986,-0.5393,-0.5365,-0.5369,-0.5389,-0.5365,0.0,0.0,0.0,0.0,0.0,0.0,0.0,0.0,-0.4986,-0.3749,-0.2792,-0.4104,0.0,0.0,0.0,0.0,0.0,-0.0111,0.1499,0.2449,-0.0331,-0.0993,-0.0939,-0.0718,-0.0718,-0.0607,-0.0277,0.0443,0.1607,0.3456,0.5638,0.7494,0.8501,0.0,1.4398,0.0,0.0,1.4604,0.0,0.0,0.0,0.0,0.0,0.0,0.0,0.0,0.0,0.0,-1.5443,-1.5363,-1.4984,-1.4846,-1.4544,-1.4094,-1.5221,-1.554,-1.5017,-1.5441,-1.5709,-1.5895,-1.6472,-1.6356,0.0,0.0,-1.6026,-1.4966,-1.5397,-1.516,-1.4477,-1.4368,-1.4196,-1.402,-1.402,-1.4024,-1.3983,0.0,0.0,0.0,0.0,0.0,0.0,0.0,0.0,0.0,0.0,0.0,0.0,0.0,0.0,0.0,0.0,0.0,0.0,0.0,0.0,0.0,0.0,0.0,0.0,0.0,0.0,0.0,0.0,0.0,0.0,0.0,0.0,0.0,-0.0062,-0.0873,-0.1671,-0.2547,-0.3556,-0.3961,-0.3961,0.0,0.0,0.0,0.0,0.0,0.0,0.0,0.0,0.0,0.0,-0.2232,-0.1002,-0.0892,0.0,0.0,0.0,0.0,0.0,0.3049,0.4226,0.4963,0.386,0.2984,0.2447,0.2447,0.2447,0.2556,0.3101,0.3978,0.47,0.5003,0.6638,0.8179,0.8663,0.0,1.3952,1.3149,1.4369,0.0,0.0,0.0,0.0,0.0,0.0,0.0,0.0,0.0,0.0,0.0,0.0,-1.3868,-1.3911,-1.3415,-1.3163,-1.3177,-1.3679,-1.4032,-1.4217,-1.4441,-1.4795,-1.5282,-1.5559,-1.5511,-1.5217,0.0,-1.5429,-1.4819,-1.4747,-1.4706,-1.4641,-1.4199,-1.3983,-1.3913,-1.3913,-1.3824,-1.3736,0.0,0.0,0.0,0.0,0.0,0.0,0.0,0.0,0.0,0.0,0.0,0.0,0.0,0.0,0.0,0.0,0.0,0.0,0.0,0.0,0.0316,0.105,0.1042,0.0741,0.0,0.0,0.0,0.0,0.0,0.0,0.0,0.0,0.0,0.0,0.0,0.0,-0.0134,-0.2414,-0.3353,-0.3286,0.0,0.0,0.0,0.0,0.0,0.0,0.0,0.0,0.0,0.0,0.0,0.0,0.0,0.0,0.0,0.2554,0.3727,0.5191,0.6055,0.6431,0.6637,0.6999,0.6046,0.4982,0.4982,0.4982,0.5254,0.6109,0.6864,0.7122,0.6392,0.7529,0.0,0.961,1.141,1.2596,1.2201,0.0,0.0,0.0,0.0,0.0,0.0,0.0,0.0,0.0,0.0,0.0,0.0,0.0,-1.2396,-1.2753,-1.2146,-1.2081,-1.2609,-1.2392,-1.2755,-1.3674,-1.3691,-1.402,-1.4593,-1.4674,-1.4689,-1.4689,-1.4945,-1.4973,-1.479,-1.4353,-1.4379,-1.4619,-1.4053,-1.3813,-1.3768,-1.3768,-1.3696,-1.3539,0.0,0.0,0.0,0.0,0.0,0.0,0.0,0.0,0.0,0.0,0.0,0.0,0.0,0.0,0.0,0.0,0.0,0.0,0.0,0.0,0.1237,0.4027,0.4162,0.2844,0.0059,0.0,0.0,0.0,0.0,0.0,0.0,0.0,0.0,0.0,0.0,0.0,-0.0202,-0.3708,-0.5205,-0.5068,-0.3355,0.0,0.0,0.0,0.0,0.0,0.0,0.0,0.0,0.0,0.0,0.0,0.0,0.0,0.4473,0.5352,0.5977,0.6597,0.7287,0.7958,0.8515,0.8515,0.7505,0.6426,0.6426,0.6426,0.6637,0.7351,0.7553,0.7759,0.8358,0.9614,1.1028,1.237,1.2218,1.1775,0.0,0.0,0.0,0.0,0.0,0.0,0.0,0.0,0.0,0.0,0.0,0.0,0.0,0.0,0.0,-1.0543,-1.0821,-1.1236,-1.177,-1.1527,-1.1923,-1.297,-1.3035,-1.3191,-1.3413,-1.3497,-1.3579,-1.3754,-1.4563,-1.4553,-1.4037,-1.4722,-1.4385,-1.3446,-1.3572,-1.3557,-1.3446,-1.3446,-1.343,-1.3379,0.0,0.0,0.0,0.0,0.0,0.0,0.0,0.0,0.0,0.0,0.0,0.0,0.0,0.0,0.0,0.0,0.0,0.0,0.0,0.1767,0.3337,0.4452,0.4478,0.3975,0.2799,0.1856,0.1341,0.1341,0.1341,0.1341,0.1341,0.0457,0.0,0.0,0.0,0.0,-0.0256,-0.3851,-0.5415,-0.5346,-0.4401,-0.4351,0.0,0.0,0.0,0.0,0.0,0.0,0.0,0.0,0.2963,0.449,0.4487,0.4805,0.5171,0.5555,0.6396,0.7435,0.8547,0.9078,0.9599,1.0872,1.0489,0.946,0.8168,0.8475,0.9096,0.946,0.9867,1.0456,1.1567,1.1023,1.0995,1.2672,1.1809,1.0841,0.0,0.0,0.0,0.0,0.0,0.0,0.0,0.0,0.0,0.0,0.0,0.0,0.0,0.0,0.0,-0.9995,-1.0383,-1.0784,-1.1205,-1.1089,-1.1259,-1.1657,-1.2193,-1.2822,-1.3527,-1.3104,-1.3174,-1.3663,-1.3536,-1.3322,-1.3125,-1.3427,-1.327,-1.2875,-1.2949,-1.2947,-1.2908,-1.2908,-1.3167,-1.3505,0.0,0.0,0.0,0.0,0.0,0.0,0.0,0.0,0.0,0.0,0.0,0.0,0.0,0.0,0.0,0.0,0.0,0.0,0.1285,0.3328,0.4502,0.4507,0.4478,0.4482,0.4487,0.3463,0.2901,0.2905,0.2905,0.2905,0.2907,0.1888,0.093,0.0,0.0,0.0,-0.0185,-0.2652,-0.4281,-0.5251,-0.5044,-0.4879,0.0,0.0,0.0,0.0,0.0,0.0,0.0,0.0,0.2788,0.4536,0.4746,0.5117,0.5647,0.6288,0.734,0.8632,1.0179,1.0806,1.137,1.2924,1.3256,1.2752,1.1012,1.1025,1.1517,1.1603,1.2175,1.2867,1.3538,1.2379,0.0,0.0,1.155,0.0,0.0,0.0,0.0,0.0,0.0,0.0,0.0,0.0,0.0,0.0,0.0,0.0,0.0,0.0,0.0,0.0,-0.9983,-1.0409,-1.0739,-1.0643,-1.0705,-1.0897,-1.1365,-1.2076,-1.3057,-1.2645,-1.2788,-1.3336,-1.2819,-1.261,-1.261,-1.261,-1.261,-1.2607,-1.2732,-1.2705,-1.2642,-1.2847,-1.3211,-1.3589,0.0,0.0,0.0,0.0,0.0,0.0,0.0,0.0,0.0,0.0,0.0,0.0,0.0,0.0,0.0,0.0,0.0,0.0,0.3999,0.4458,0.4504,0.448,0.448,0.4473,0.4519,0.4519,0.4473,0.4497,0.4497,0.4497,0.4497,0.4511,0.2913,0.0,0.0,0.0,-0.0,-0.0,-0.1907,-0.4887,-0.5064,-0.4959,-0.4691,0.0,0.0,0.0,0.0,0.0,0.0,0.0,0.449,0.4639,0.5273,0.5487,0.5914,0.8041,0.9179,1.0183,1.226,1.3263,1.3956,1.456,1.5564,1.6089,1.496,1.412,1.3598,1.371,1.425,1.4514,1.3956,1.3815,0.0,1.3017,0.0,0.0,0.0,0.0,0.0,0.0,0.0,0.0,0.0,0.0,0.0,0.0,0.0,0.0,0.0,0.0,0.0,0.0,-0.949,-1.0046,-1.0371,-1.0072,-1.0223,-1.0873,-1.0556,-1.0837,-1.1685,-1.1958,-1.2273,-1.2591,-1.2591,-1.2591,-1.2591,-1.2591,-1.2591,-1.2616,-1.304,-1.2947,-1.2671,-1.3334,-1.3589,-1.3563,0.0,0.0,0.0,0.0,0.0,0.0,0.0,0.0,0.0,0.0,0.0,0.0,0.0,0.0,0.0,0.0,0.0,0.0,-0.1902,0.2124,0.4497,0.449,0.4477,0.4522,0.4519,0.4519,0.4522,0.4473,0.4473,0.4473,0.4473,0.4478,0.3449,0.1529,0.0465,0.0,-0.0058,-0.112,-0.2081,-0.3098,-0.4346,-0.4793,-0.4677,0.0,0.0,0.0,0.0,0.0,0.0,0.0,0.0,0.0,0.5273,0.5873,0.6524,0.7652,0.9155,1.0822,1.231,1.327,1.4143,1.5599,1.5908,1.5971,1.6446,1.6654,1.6619,1.6236,1.5704,1.552,1.6071,1.4903,0.0,0.0,0.0,0.0,0.0,0.0,0.0,0.0,0.0,0.0,0.0,0.0,0.0,0.0,0.0,0.0,0.0,0.0,0.0,0.0,-0.8899,-0.9185,-0.928,-0.9475,-0.9659,-0.9855,-0.9983,-1.0421,-1.1136,-1.1227,-1.1318,-1.1408,-1.1408,-1.1505,-1.168,-1.168,-1.168,-1.1695,-1.1815,-1.1793,-1.1753,-1.2158,-1.2924,-1.37,0.0,0.0,0.0,0.0,0.0,0.0,0.0,0.0,0.0,0.0,-0.6416,-0.5814,0.0,0.0,0.0,0.0,0.0,0.0,0.0,0.1561,0.3863,0.448,0.4525,0.4519,0.4519,0.4519,0.4519,0.4519,0.4519,0.4519,0.4519,0.4509,0.3993,0.3021,0.0912,0.0,-0.0112,-0.2231,-0.3113,-0.3225,-0.4203,-0.4606,-0.4589,0.0,0.0,0.0,0.0,0.0,0.0,0.0,0.0,0.0,0.5655,0.6258,0.6907,0.8488,0.9835,1.1199,1.2992,1.3799,1.4549,1.6107,1.6398,1.6562,1.7693,1.7867,1.7733,1.7572,1.6873,1.6262,1.6225,1.525,0.0,0.0,0.0,0.0,0.0,0.0,0.0,0.0,0.0,0.0,0.0,0.0,0.0,0.0,0.0,0.0,0.0,0.0,0.0,0.0,-0.8634,-0.8789,-0.8789,-0.9035,-0.9155,-0.9155,-0.9357,-0.9661,-1.0084,-1.0508,-1.0763,-1.0897,-1.0897,-1.0991,-1.1127,-1.1127,-1.1127,-1.1178,-1.1419,-1.1376,-1.1215,-1.1682,-1.2332,-1.3045,0.0,0.0,0.0,0.0,0.0,0.0,0.0,0.0,0.0,0.0,-0.7074,-0.6312,0.0,0.0,0.0,0.0,0.0,0.0,0.0,0.0,0.3012,0.4463,0.4519,0.4519,0.4519,0.4519,0.4519,0.4519,0.4519,0.4519,0.4519,0.4473,0.4484,0.4379,0.1507,0.0112,-0.0168,-0.3088,-0.4392,-0.4494,-0.4484,-0.4525,-0.4519,-0.4519,0.0,0.0,0.0,0.0,0.0,0.0,0.0,0.0,0.615,0.6642,0.7219,0.9931,1.0762,1.1349,1.3924,1.4652,1.4971,1.6207,1.6951,1.7626,1.865,1.8145,1.7585,1.8066,1.7706,1.6786,1.5141,1.5149,1.4518,0.0,0.0,0.0,0.0,0.0,0.0,0.0,0.0,0.0,0.0,0.0,0.0,0.0,0.0,0.0,0.0,0.0,0.0,-0.8138,-0.8456,-0.864,-0.864,-0.8734,-0.8761,0.0,-0.8789,-0.8789,-0.8844,-0.9855,-1.0483,-1.0801,-1.0849,-1.0849,-1.0849,-1.0849,-1.0849,-1.0928,-1.1529,-1.138,-1.0942,-1.1568,-1.1855,-1.1955,0.0,0.0,0.0,0.0,0.0,0.0,0.0,0.0,0.0,0.0,0.0,0.0,0.0,0.0,0.0,0.0,0.0,0.0,0.0,0.0,0.4147,0.4477,0.4522,0.4519,0.4519,0.4519,0.4519,0.4519,0.4519,0.4519,0.4519,0.4519,0.4473,0.4425,0.2567,0.106,-0.0112,-0.1955,-0.3416,-0.4494,-0.4473,-0.4519,-0.4519,-0.4473,-0.4484,0.0,0.0,0.0,0.0,0.0,0.0,0.0,0.6312,0.702,0.7824,0.9488,1.0364,1.1249,1.3365,1.4297,1.4971,1.6207,1.7229,1.8106,1.8727,1.8727,1.8574,1.8688,1.7987,1.705,1.6176,1.5156,0.0,0.0,0.0,0.0,0.0,0.0,0.0,0.0,0.0,0.0,0.0,0.0,0.0,0.0,0.0,0.0,0.0,0.0,0.0,-0.6871,-0.7257,-0.7453,-0.7453,-0.8088,-0.8421,0.0,-0.8679,-0.8789,-0.8816,-0.9357,-0.979,-1.0122,-1.0385,-1.0508,-1.0508,-1.0508,-1.0508,-1.0521,-1.0666,-1.0639,-1.057,-1.0962,-1.1443,-1.1873,0.0,0.0,0.0,0.0,0.0,0.0,0.0,0.0,0.0,0.0,0.0,0.0,0.0,0.0,0.0,0.0,0.0,0.0,0.0,0.0,0.449,0.4473,0.4791,0.5003,0.5003,0.5003,0.5003,0.5003,0.468,0.4519,0.4519,0.4519,0.4525,0.4477,0.3633,0.2063,-0.0056,-0.0836,-0.2456,-0.4494,-0.4477,-0.4522,-0.4519,-0.4473,-0.403,-0.3471,-0.4225,0.0,0.0,0.0,0.0,0.0,0.0,0.0,0.7605,0.9688,1.0517,1.1299,1.3564,1.4446,1.4971,1.6207,1.6909,1.7544,1.8341,1.8341,1.8224,1.8458,1.8066,1.7098,1.5164,0.0,0.0,0.0,0.0,0.0,0.0,0.0,0.0,0.0,0.0,0.0,0.0,0.0,0.0,0.0,0.0,0.0,0.0,-0.5782,-0.6098,-0.6488,-0.6691,-0.6811,-0.6811,-0.7413,-0.7715,-0.7744,-0.8099,-0.8382,-0.8578,-0.9155,-0.9502,-0.9686,-1.0021,-1.016,-1.016,-1.016,-1.016,-1.016,-1.016,-1.016,-1.0185,-1.0373,-1.0646,-1.0938,0.0,0.0,0.0,0.0,0.0,0.0,0.0,0.0,0.0,0.0,0.0,0.0,0.0,0.0,0.0,0.0,0.0,0.0,0.0,0.0,0.0,0.4519,0.5164,0.5487,0.5487,0.5651,0.5706,0.5706,0.5113,0.4791,0.468,0.468,0.4632,0.4477,0.4473,0.3123,0.0725,0.0223,-0.1448,-0.3755,-0.4314,-0.4477,-0.4522,-0.4477,-0.3577,-0.2454,-0.3368,-0.1228,0.2341,0.3925,0.0,0.0,0.0,0.0,0.7278,0.9879,1.072,1.1299,1.3726,1.4595,1.5152,1.6324,1.6637,1.6879,1.7867,1.7747,1.7504,1.7773,1.7894,1.7006,1.395,0.0,0.0,0.0,0.0,0.0,0.0,0.0,0.0,0.0,0.0,0.0,0.0,0.0,0.0,0.0,0.0,0.0,-0.5086,-0.547,-0.5882,-0.6275,-0.6366,-0.6397,-0.6397,-0.6781,-0.7029,-0.7098,-0.751,-0.786,-0.8233,-0.891,-0.9235,-0.9316,-0.9581,-0.9712,-0.9712,-0.979,-0.9828,-0.9816,-0.988,-0.9905,-0.9905,-0.9905,-0.9905,-0.9968,0.0,0.0,0.0,0.0,0.0,0.0,0.0,0.0,0.0,0.0,-0.7777,-0.7176,0.0,0.0,0.0,0.0,0.0,0.0,0.2007,0.0,0.0,0.4519,0.5164,0.5487,0.5487,0.6145,0.648,0.648,0.6367,0.5987,0.5378,0.5378,0.5058,0.4519,0.4498,0.4281,0.3744,0.1113,-0.0223,-0.0835,-0.3469,-0.4487,-0.4477,-0.449,-0.3805,-0.2672,-0.1172,0.0334,0.1889,0.3863,0.486,0.0,0.0,0.0,0.7877,0.9444,1.0364,1.1107,1.2619,1.4228,1.5764,1.6883,1.7188,1.7353,1.7947,1.8027,1.772,0.0,1.7037,1.6802,0.0,0.0,0.0,0.0,0.0,0.0,0.0,0.0,0.0,0.0,0.0,0.0,0.0,0.0,0.0,0.0,0.0,0.0,-0.4628,-0.4756,-0.4979,-0.546,-0.5797,-0.5975,-0.5975,-0.6366,-0.6768,-0.7116,-0.751,-0.7725,-0.7783,-0.8251,-0.8606,-0.8899,-0.8926,-0.8953,-0.8981,-0.9316,-0.9461,-0.9502,-0.979,-0.9905,-0.9905,-0.9905,-0.9905,-0.9905,0.0,0.0,0.0,0.0,0.0,0.0,0.0,0.0,0.0,0.0,0.0,-0.7771,0.0,0.0,0.0,-0.4605,-0.3074,-0.0556,0.3244,0.4138,0.4688,0.5058,0.5764,0.6308,0.674,0.7069,0.7235,0.7235,0.6804,0.6421,0.6145,0.6524,0.6145,0.5054,0.5042,0.4824,0.4395,0.306,0.1557,-0.0111,-0.1448,-0.2676,-0.3741,-0.4262,-0.4203,-0.3741,-0.2854,-0.1171,0.1056,0.3638,0.4705,0.5069,0.5769,0.0,0.0,0.0,1.0238,1.1258,1.3301,1.471,1.5808,1.6655,1.6837,1.6993,1.7544,1.7435,1.705,1.6519,1.6348,0.0,0.0,0.0,0.0,0.0,0.0,0.0,0.0,0.0,0.0,0.0,0.0,0.0,0.0,0.0,0.0,0.0,0.0,-0.3453,-0.3844,-0.4113,-0.4344,-0.4576,-0.4947,-0.5163,-0.5163,-0.5813,-0.6366,-0.6768,-0.6948,-0.7038,-0.7038,-0.7452,-0.7945,-0.8523,-0.8706,-0.8789,-0.8816,-0.8981,-0.9062,-0.9062,-0.9224,-0.9277,-0.9277,-0.9277,-0.9277,-0.9351,0.0,0.0,0.0,0.0,0.0,0.0,0.0,0.0,0.0,0.0,0.0,0.0,0.0,0.0,0.0,0.0,-0.3074,-0.0445,0.3641,0.4255,0.4794,0.5487,0.6199,0.6966,0.767,0.7883,0.799,0.799,0.745,0.7074,0.6912,0.7616,0.7283,0.6032,0.5869,0.537,0.4761,0.4577,0.3181,0.1058,0.0334,-0.089,-0.2395,-0.3922,-0.449,-0.4484,-0.4501,-0.274,0.0,0.2512,0.3863,0.4639,0.5378,0.6086,0.0,0.0,0.0,1.1349,1.3784,1.4778,1.532,1.6095,1.6281,1.6411,1.6993,1.6655,1.6269,0.0,1.5652,0.0,0.0,0.0,0.0,0.0,0.0,0.0,0.0,0.0,0.0,0.0,0.0,0.0,0.0,0.0,0.0,0.0,0.0,-0.3134,-0.3159,-0.349,-0.3761,-0.3993,-0.428,-0.4505,-0.4602,-0.5477,-0.6068,-0.6336,-0.6457,-0.6488,-0.651,-0.6811,-0.7266,-0.7859,-0.8315,-0.8512,-0.8512,-0.8623,-0.8679,-0.8679,-0.8761,-0.8789,-0.8789,-0.8789,-0.8789,-0.8911,0.0,0.0,0.0,0.0,0.0,0.0,0.0,0.0,0.0,0.0,0.0,0.0,-0.6696,-0.5982,-0.5285,-0.4549,-0.3074,-0.089,0.2119,0.368,0.4787,0.5487,0.6199,0.0,0.767,0.8374,0.8752,0.8752,0.8699,0.8321,0.767,0.8374,0.8321,0.7557,0.6858,0.6145,0.5433,0.4746,0.4428,0.4039,0.1173,-0.0056,-0.0447,-0.3416,-0.449,-0.448,-0.4494,-0.3183,-0.1276,-0.0167,0.212,0.4639,0.5588,0.6185,0.6912,0.0,0.0,0.0,1.3273,1.3862,1.4179,1.5353,1.5632,1.5808,1.6411,0.0,1.5632,1.562,0.0,0.0,0.0,0.0,0.0,0.0,0.0,0.0,0.0,0.0,0.0,0.0,0.0,0.0,0.0,0.0,0.0,0.0,0.0,-0.2719,-0.2732,-0.2761,-0.3159,-0.3961,-0.4026,-0.4215,-0.4602,-0.5477,-0.5913,-0.5944,-0.6305,-0.6488,-0.6518,-0.6518,-0.654,-0.6631,-0.7412,-0.7754,-0.7783,-0.8176,-0.8319,-0.8365,-0.8679,-0.8789,-0.8789,-0.8789,-0.8789,-0.8856,0.0,0.0,0.0,0.0,0.0,0.0,0.0,0.0,0.0,0.0,0.0,0.0,0.0,-0.6891,-0.5769,-0.4629,-0.2232,0.0892,0.475,0.4705,0.5026,0.615,0.648,0.6966,0.767,0.883,0.9465,0.9465,0.9465,0.9302,0.9026,0.9302,0.9302,0.8974,0.7818,0.7176,0.6848,0.6154,0.5336,0.434,0.227,0.0832,-0.0223,-0.2232,-0.3635,-0.448,-0.4484,-0.3408,-0.1725,-0.0446,0.2009,0.4553,0.4908,0.595,0.7532,0.9496,1.072,1.1805,1.3379,1.3815,1.4003,1.4824,1.5017,1.5062,1.5299,1.5197,1.4915,1.4503,0.0,0.0,0.0,0.0,0.0,0.0,0.0,0.0,0.0,0.0,0.0,0.0,0.0,0.0,0.0,0.0,0.0,0.0,0.0,0.0,-0.1802,-0.2377,-0.2852,-0.3154,-0.3401,-0.3881,-0.4602,-0.4915,-0.5232,-0.5522,-0.5672,-0.5734,-0.5734,-0.6006,-0.6121,-0.6152,-0.6969,-0.7305,-0.7334,-0.7734,-0.7928,-0.7928,-0.8052,-0.8109,-0.8109,-0.8109,-0.8109,-0.8199,0.0,0.0,0.0,0.0,0.0,0.0,0.0,0.0,0.0,-1.1065,0.0,0.0,0.0,0.0,-0.6058,-0.3911,-0.2321,0.0222,0.4128,0.5045,0.5593,0.5864,0.6367,0.6966,0.767,0.8613,0.9347,0.9814,0.9814,0.9814,0.9814,1.0012,1.0012,0.9762,0.9072,0.8593,0.8324,0.732,0.6548,0.5761,0.3741,0.1763,-0.011,-0.1111,-0.2734,-0.449,-0.4601,-0.3899,-0.2738,-0.1241,0.0674,0.2625,0.3456,0.5614,0.8164,0.9644,1.0746,1.1715,1.2841,1.3294,1.3647,1.4247,1.4376,1.4468,1.4652,1.456,1.4283,1.3862,0.0,0.0,0.0,0.0,0.0,0.0,0.0,0.0,0.0,0.0,0.0,0.0,0.0,0.0,0.0,0.0,0.0,0.0,0.0,0.0,-0.1277,-0.1898,-0.2364,-0.2693,-0.3105,-0.3588,-0.4172,-0.4468,-0.4762,-0.5055,-0.5214,-0.5309,-0.5316,-0.5585,-0.5703,-0.5734,-0.6397,-0.6841,-0.7118,-0.7539,-0.7695,-0.7695,-0.7695,-0.7695,-0.7695,-0.7695,-0.7695,-0.7813,0.0,0.0,0.0,0.0,0.0,0.0,0.0,0.0,-1.1116,-1.1765,0.0,0.0,0.0,0.0,0.0,-0.2765,-0.3431,-0.2909,-0.0167,0.4515,0.6435,0.4707,0.5864,0.6912,0.761,0.7723,0.8402,0.9762,0.9814,0.9814,0.9865,1.0517,1.0517,0.9917,1.061,1.0527,0.9768,0.8325,0.8122,0.8489,0.5766,0.2846,0.0109,0.0111,-0.1785,-0.4465,-0.4796,-0.4747,0.0,-0.2789,0.0,0.0,0.1381,0.519,0.8684,0.8718,0.9666,1.0914,0.0,0.0,0.0,1.3637,1.3779,1.3909,1.4514,0.0,1.3721,1.3721,0.0,0.0,0.0,0.0,0.0,0.0,0.0,0.0,0.0,0.0,0.0,0.0,0.0,0.0,0.0,0.0,0.0,0.0,0.0,-0.0384,-0.1208,-0.1307,-0.1769,-0.2686,-0.3068,-0.3294,-0.329,-0.414,-0.457,-0.4596,-0.5055,-0.5277,-0.5246,-0.5277,-0.5284,-0.5309,-0.5703,-0.6336,-0.7089,-0.75,-0.7666,-0.7666,-0.7695,-0.7695,-0.7695,-0.7695,-0.7695,-0.7763,0.0,0.0,0.0,0.0,0.0,-1.255,-1.2608,-1.2414,-1.2483,0.0,0.0,0.0,-1.2358,-1.3163,-1.2129,-0.8692,-0.3948,-0.0833,-0.0055,0.1277,0.3735,0.7455,0.6623,0.5851,0.5412,0.7888,0.9124,0.9006,1.0041,1.0517,1.0517,1.1216,1.1697,1.1984,1.2677,1.3297,1.3765,1.1523,1.0124,0.9423,0.9533,0.7012,0.3217,0.3084,0.0739,0.0,0.0,-0.485,-0.4819,0.0,-0.4054,-0.3218,0.115,0.3934,0.6077,0.8094,0.8992,0.9658,1.1349,0.0,0.0,0.0,0.0,0.0,0.0,0.0,0.0,0.0,0.0,0.0,0.0,0.0,0.0,0.0,0.0,0.0,0.0,0.0,0.0,0.0,0.0,0.0,0.0,0.0,0.0,0.0,0.0,-0.0115,-0.0329,-0.1583,-0.2435,-0.2693,-0.2823,-0.2878,-0.286,-0.3388,-0.3816,-0.4183,-0.4602,-0.4634,-0.4382,-0.4666,-0.4794,-0.4826,-0.5219,-0.5712,-0.6275,-0.6969,-0.7275,-0.7305,-0.7598,-0.7695,-0.7695,-0.7695,-0.7695,-0.7763,0.0,0.0,0.0,0.0,0.0,-1.3236,-1.3276,-1.3246,-1.3464,0.0,0.0,0.0,-1.4434,-1.584,-1.6014,-1.4538,-0.7199,-0.1928,-0.0138,0.0,0.1556,0.499,0.5222,0.532,0.5399,0.6817,0.814,0.9325,0.9725,1.0391,1.1216,1.1616,1.215,1.2822,1.3521,1.4424,1.5404,1.4176,1.3074,1.2089,1.1648,0.9837,0.7197,0.5109,0.2442,0.0,0.0,0.0,-0.5787,-0.5824,-0.543,0.0,0.0,0.161,0.4242,0.6357,0.7759,0.8881,0.979,1.0426,1.0914,1.1458,0.0,0.0,1.2295,1.1882,0.0,0.0,0.0,0.0,0.0,0.0,0.0,0.0,0.0,0.0,0.0,0.0,0.0,0.0,0.0,0.0,0.0,0.0605,0.0,0.0,0.0,0.0,0.0,-0.1015,-0.1741,-0.212,-0.2107,-0.2314,-0.2709,-0.2933,-0.3261,-0.3723,-0.4145,-0.4215,-0.3993,-0.4248,-0.4441,-0.4596,-0.4845,-0.5226,-0.5703,-0.6336,-0.6691,-0.688,-0.7294,-0.7451,-0.7471,-0.7637,-0.7695,-0.7734,0.0,0.0,-1.434,-1.32,-1.3552,-1.3993,-1.3971,-1.4064,-1.44,0.0,-1.4718,-1.4786,-1.5844,-1.7124,-1.8204,-1.8992,-1.2329,-0.6118,-0.1419,-0.1317,-0.1254,-0.0953,0.1465,0.3536,0.5187,0.4714,0.6112,0.9597,0.9173,0.9865,1.1619,1.1832,1.2297,1.3062,1.37,1.4642,1.5855,1.6469,1.6426,1.5632,1.3016,1.1789,1.1149,0.0,0.4089,0.1565,-0.4995,-0.7255,-0.7175,-0.7413,-0.6587,0.0,0.0,0.0,0.0,0.3862,0.6138,0.8016,0.7653,0.8919,1.023,0.9731,1.0061,0.0,1.1408,1.1107,1.0864,0.0,0.0,0.0,0.0,0.0,0.0,0.0,0.0,0.0,0.0,0.0,0.0,0.0,0.0,0.0,0.3604,0.1396,0.0,0.0,0.0,0.0,0.0,0.0,-0.0364,-0.1125,-0.1172,-0.1542,-0.239,-0.261,-0.2867,-0.3229,-0.3658,-0.3858,-0.3863,-0.3896,-0.4118,-0.4468,-0.4468,-0.4756,-0.5246,-0.5609,-0.6029,-0.6488,-0.6867,-0.7047,-0.7089,-0.7471,-0.7666,-0.7714,0.0,-1.4606,-1.4468,-1.3732,-1.4549,-1.5161,-1.4975,-1.5825,-1.6902,-1.8221,-1.8422,-1.772,-1.5813,-1.7352,-1.8106,-1.7081,-1.8045,-1.5669,-0.8431,-0.9485,-0.9285,-0.6777,-0.6966,-0.5982,-0.3619,0.1369,0.4567,0.5843,0.9165,1.0653,1.0401,1.1977,1.3266,1.4354,1.4903,1.6059,1.7652,1.8565,1.8693,1.8023,1.5647,1.3758,1.2157,1.0665,0.7439,0.3085,-0.1392,-0.5608,-0.9032,-0.8795,-0.9019,-0.8756,0.0,0.0,0.0,0.2025,0.0,0.4807,0.6897,0.741,0.7682,0.0,0.0,0.0,0.9944,1.0033,1.0012,0.0,0.0,0.0,0.0,0.0,0.0,0.0,0.0,0.0,0.0,0.0,0.0,0.0,0.0,0.0,0.351,0.142,0.0,0.0,0.0,0.0,0.0,0.0,-0.0073,-0.0255,-0.0242,-0.0336,-0.0537,-0.1981,-0.2723,-0.2826,-0.2904,-0.2966,-0.2977,-0.3298,-0.349,-0.3551,-0.3551,-0.4006,-0.473,-0.482,-0.532,-0.6068,-0.6457,-0.6609,-0.6669,-0.7059,-0.7467,-0.788,-1.6368,-1.6507,-1.6278,-1.4891,-1.5973,-1.6933,-1.6617,-1.7051,-1.7924,-1.9263,-1.9265,-1.8278,-1.6003,-1.6956,-1.7302,-1.6212,-1.7113,-1.6581,-1.3809,-1.53,-1.6494,-1.6968,-1.6194,-1.4295,-1.1255,-0.6196,-0.2211,0.064,0.5702,0.9299,1.1457,1.1782,1.2743,1.4283,1.5452,1.6671,1.8032,1.9126,1.9728,1.9783,1.7846,0.0,1.4171,1.2735,1.0802,0.8075,0.19,-0.5121,-1.1431,-1.1224,-1.1076,0.0,-0.9204,-0.7413,-0.5117,0.0,0.0433,0.211,0.0,0.0,0.0,0.6567,0.0,0.0,0.0,0.8947,0.8974,0.9658,0.9263,0.8586,0.0,0.0,0.0,0.0,0.0,0.0,0.0,0.0,0.0,0.0,0.0,0.0,0.2728,0.2156,0.156,0.0942,0.0877,0.091,0.091,0.0326,0.0,0.0,0.0,0.0,0.0,-0.091,-0.1587,-0.2014,-0.248,-0.2683,-0.2723,-0.2911,-0.3097,-0.329,-0.329,-0.3686,-0.4312,-0.4505,-0.4852,-0.532,-0.5967,-0.6213,-0.6244,-0.6661,-0.7032,-0.7394,-1.8384,-1.8633,-1.8413,-1.6426,-1.7673,-1.8757,-1.8337,-1.8367,-1.8628,-1.9154,-1.8743,-1.7607,-1.556,-1.5651,-1.5647,-1.506,-1.4124,-1.4528,-1.6815,-1.8775,-2.12,-2.4183,-2.2772,-2.0694,-1.8078,-1.3719,-0.95,-0.5296,0.1481,0.705,1.1364,1.1227,1.2058,1.3788,1.5592,1.7124,1.8398,1.9447,2.0395,2.1102,0.0,1.8134,1.655,1.4462,1.3668,1.2426,0.3372,-0.5612,-1.3237,-1.3297,-1.2812,-1.2272,-1.2589,-1.0598,0.0,0.0,0.0,0.0,0.0,0.0,0.0,0.0,0.0,0.6514,0.0,0.0,0.0,0.8967,0.8778,0.0,0.0,0.0,0.0,0.0,0.0,0.0,0.0,0.0,0.0,0.0,0.0,0.0,0.0,0.2957,0.3295,0.2296,0.2242,0.2189,0.217,0.1216,0.0591,0.0335,0.012,0.0,0.0,0.0,-0.0354,-0.1071,-0.1814,-0.2356,-0.2696,-0.2686,-0.2878,-0.3196,-0.3196,-0.3425,-0.3891,-0.421,-0.4436,-0.4692,-0.5477,-0.5797,-0.5828,-0.6292,-0.6658,-0.6931,-2.003,-1.9725,-1.9435,-1.8364,-1.9434,-2.0288,-1.975,-2.0276,-2.0028,-1.8075,-1.7566,-1.6239,-1.3225,-1.2627,-1.2382,-1.2274,-1.2517,-1.3464,-1.5332,-1.8545,-2.0063,-1.934,-2.1759,-2.3302,-2.3748,-1.671,-1.2629,-1.1713,-0.1383,0.448,0.6073,1.0191,1.2598,1.3524,1.5425,1.7801,2.0378,2.0717,2.1277,0.0,2.1068,2.0011,0.0,1.709,1.5002,1.1546,0.0348,-0.7678,-1.3017,0.0,-1.4025,-1.4032,0.0,-1.1554,-1.0623,-0.777,0.0,0.0,0.0,0.0,0.0,0.0,0.3319,0.0,0.0,0.0,0.675,0.6907,0.0,0.0,0.0,0.0,0.0,0.0,0.0,0.0,0.0,0.0,0.0,0.0,0.0,0.0,0.0,0.327,0.392,0.3751,0.3748,0.3642,0.3419,0.3281,0.271,0.1633,0.056,0.0,0.0,0.0,-0.0035,-0.0134,-0.0269,-0.1142,-0.2696,-0.2696,-0.2723,-0.2779,-0.2779,-0.3006,-0.3392,-0.3421,-0.3914,-0.466,-0.5182,-0.5372,-0.5431,-0.608,-0.662,-0.7062,-2.2047,-2.1715,-2.1399,-2.0543,-2.1204,-2.1763,-2.151,-2.0757,-1.8898,-1.5247,-1.4463,-1.3161,-1.0264,-0.9816,-0.9928,-1.0492,-1.0685,-1.1737,0.0,-1.6764,-1.8713,-1.9456,-2.2264,-2.4214,-2.5032,-2.3511,-2.0769,-1.6857,-0.9506,-0.2993,0.262,0.7334,1.117,1.4146,1.6392,1.8796,2.1175,2.1909,2.2557,0.0,0.0,2.1936,0.0,1.8746,1.5799,1.2051,0.5661,-0.1773,-0.9072,0.0,-1.4129,0.0,0.0,0.0,0.0,-1.0555,0.0,0.0,0.0,0.0,0.0,0.0,0.0,0.0,0.3304,0.0,0.5601,0.0,0.0,0.0,0.0,0.0,0.0,0.0,0.3917,0.0,0.0,0.0,0.0,0.0,0.0,0.0,0.0,0.0,0.0,0.0,0.3983,0.3956,0.3843,0.3787,0.3494,0.2847,0.2352,0.1404,0.0,0.0,0.0,0.0,0.0,-0.0403,-0.1176,-0.2222,-0.2693,-0.269,-0.269,-0.2782,-0.297,-0.3196,-0.3519,-0.3914,-0.4628,-0.5055,-0.5322,-0.5605,-0.5941,-0.6314,-2.3832,-2.3546,-2.3119,-2.2417,-2.2698,-2.2686,-2.1723,-1.9756,-1.6893,-1.2821,-1.1577,-1.0264,-0.8072,-0.8139,-0.8733,-0.9772,-1.0108,-1.1375,0.0,0.0,-1.8408,-2.0611,-2.329,0.0,-2.5803,-2.7807,-2.6866,-2.2834,-1.6437,-0.9849,-0.3053,0.3693,0.9624,1.4693,1.7226,1.9847,2.2419,2.3051,2.3719,2.4316,2.3629,2.3022,2.2265,1.9737,1.6851,1.3629,0.9669,0.2652,-0.5625,-1.1068,-1.3773,0.0,-1.4744,0.0,0.0,0.0,0.0,0.0,-0.7222,0.0,0.0,0.0,0.0,0.0,0.0,0.0,0.0,0.0,0.0,0.0,0.0,0.0,0.4236,0.2508,0.0,0.3,0.0,0.0,0.0,0.0,0.0,0.0,0.0,0.0,0.0,0.4141,0.4141,0.4124,0.4033,0.3986,0.3923,0.3723,0.3643,0.2761,0.1023,0.0326,0.0,0.0,0.0,0.0,-0.0034,-0.1377,-0.2153,-0.2456,-0.263,-0.269,-0.2712,-0.3003,-0.3196,-0.336,-0.4011,-0.4596,-0.5125,-0.5339,-0.5531,-0.5765,-2.521,-2.4818,-2.4259,-2.3659,-2.3672,-2.2678,-1.9501,-1.6892,-1.4262,-1.151,-0.9699,-0.8221,-0.726,0.0,0.0,0.0,0.0,-1.3268,-1.6483,0.0,-1.9787,0.0,0.0,-2.6472,0.0,-2.7167,-2.8278,-3.0557,-2.0063,-1.4203,-1.2474,-0.0637,0.8417,1.479,1.7486,2.0977,2.4825,2.4149,2.4529,2.5406,2.3833,2.2767,2.1905,0.0,1.8432,1.6328,0.9228,0.0,0.0,-1.0665,-1.2881,0.0,0.0,0.0,0.0,0.0,0.0,0.0,0.0,0.0,0.0,-0.7241,0.0,0.0,0.0,0.0,0.0166,0.0,0.0,0.0,0.0,0.0,0.0666,0.2006,0.1059,0.0,0.0,0.0,0.0,0.0,0.0,0.0,0.0,0.0,0.0,0.4505,0.4505,0.4389,0.4197,0.4187,0.412,0.3969,0.3733,0.3543,0.3483,0.1152,0.0,0.0,0.0,0.0,-0.0,-0.0067,-0.0737,-0.1845,-0.2456,-0.269,-0.2712,-0.2716,-0.294,-0.329,-0.3323,-0.3881,-0.4696,-0.5423,-0.5705,-0.5798,-2.5226,-2.4846,-2.4462,-2.4346,-2.3707,-2.2042,-1.8574,-1.5724,0.0,0.0,-0.8863,0.0,0.0,-0.7389,-0.8398,0.0,0.0,-1.36,-1.661,-1.8499,0.0,0.0,0.0,-2.6268,0.0,0.0,-2.8139,-2.8648,-2.491,-1.9871,-1.3517,-0.2303,0.7453,1.5637,1.7893,2.1201,2.513,2.5228,2.5547,0.0,0.0,2.3199,2.2371,0.0,0.0,1.8082,1.3772,0.841,0.0,-0.4113,-0.9226,-1.2978,-1.3794,-1.4354,-1.4687,-1.4608,-1.4014,0.0,0.0,0.0,-1.0047,-0.9085,0.0,0.0,0.0,0.0,0.0,0.0,0.0,0.0,0.0,-0.3,-0.279,-0.2287,-0.1785,-0.1282,0.0,0.0,0.0,0.0,0.0,0.0,0.0,0.0,0.0,0.4519,0.4519,0.4494,0.4392,0.4389,0.4324,0.4123,0.4022,0.388,0.3589,0.2768,0.1991,0.1196,0.0374,0.0,0.0,0.0,-0.0235,-0.067,-0.2086,-0.2696,-0.269,-0.2683,-0.2779,-0.294,-0.3196,-0.3486,-0.3853,-0.4657,-0.5278,-0.5798,-2.5261,-2.5018,-2.4833,-2.4866,-2.3509,-2.1299,0.0,0.0,0.0,0.0,-0.8765,0.0,-0.6242,0.0,-0.9215,0.0,-1.2138,-1.481,-1.7361,-1.9318,0.0,-2.4053,-2.5236,0.0,0.0,0.0,0.0,-2.8349,-2.7549,-2.3606,-1.6618,-0.6934,0.3603,1.4579,1.8349,2.1968,2.5259,2.5944,2.6185,0.0,0.0,2.3317,0.0,0.0,2.0541,1.8963,0.0,1.1846,0.5968,-0.102,-0.7206,-1.2153,-1.3348,-1.4147,-1.488,-1.5688,-1.5342,-1.4585,-1.415,-1.3371,0.0,-1.1053,-1.0101,0.0,-0.7874,0.0,0.0,0.0,0.0,0.0,0.0,0.0,-0.5195,-0.5022,-0.3895,-0.3005,0.0,-0.1283,0.0,0.0,0.0,0.0,0.0,0.0,0.4477,0.4525,0.4519,0.4519,0.0,0.0,0.4419,0.4328,0.422,0.4052,0.3814,0.3668,0.3223,0.244,0.1667,0.0826,0.0,0.0,0.0,-0.0067,-0.1241,-0.2119,-0.2696,-0.269,-0.2683,-0.2712,-0.297,-0.3163,-0.3429,-0.44,-0.5302,-0.6079,-2.537,-2.5394,-2.5348,0.0,-2.3091,0.0,0.0,0.0,-1.1961,0.0,-0.9162,-0.8059,-0.5508,-0.9323,-1.1391,-0.9647,-1.3408,-1.6726,-1.8715,-2.0484,0.0,0.0,-2.665,-2.7695,-2.9287,0.0,0.0,0.0,-2.7958,-2.5349,-2.2009,-1.4052,-0.2582,1.1652,1.8575,2.2934,2.5057,2.609,2.6265,2.5766,2.4413,2.3133,2.1995,2.1274,2.0293,1.9043,1.6855,1.2701,0.6962,-0.1241,-0.679,-1.06,-1.2878,-1.4089,-1.4926,-1.6163,-1.6522,-1.6225,-1.5015,-1.4677,-1.4336,-1.3047,0.0,0.0,0.0,0.0,-0.8573,0.0,0.0,0.0,0.0,0.0,0.0,-0.6013,-0.5136,-0.4553,-0.4487,0.0,0.0,0.0,0.0,0.0,0.0,0.2679,0.4421,0.448,0.4532,0.4525,0.0,0.0,0.4581,0.4574,0.4381,0.4256,0.4246,0.3811,0.3599,0.3588,0.3613,0.2401,0.0182,0.0073,0.0,0.0,0.0,-0.104,-0.2696,-0.2696,-0.269,-0.2712,-0.2712,-0.2944,-0.346,-0.4649,-0.5707,-0.6534,-2.5446,-2.5351,-2.5116,0.0,-2.2285,-2.0083,0.0,0.0,0.0,0.0,-0.9039,-0.6991,-0.6731,-0.8558,-0.9577,-0.9114,-1.3076,0.0,0.0,0.0,0.0,-2.576,-2.7021,-2.8237,-2.9507,-2.9441,-2.9667,-3.0193,0.0,-2.5189,-2.4596,-1.4174,-0.3171,0.8043,1.5295,1.9939,2.2468,2.3538,2.41,2.4163,2.3545,2.2655,0.0,0.0,2.0618,1.9697,1.6917,1.4519,1.1419,0.3224,-0.4498,-1.0797,-1.1804,-1.333,-1.4926,-1.6163,-1.6522,-1.6423,-1.6083,-1.5696,-1.505,-1.3767,-1.2869,-1.1997,0.0,0.0,0.0,0.0,0.0,0.0,0.0,0.0,0.0,-0.6519,-0.5756,-0.5046,-0.4556,0.0,0.0,-0.0279,0.0,0.0,0.1502,0.2343,0.3292,0.4408,0.4568,0.4582,0.4522,0.0,0.0,0.5222,0.5175,0.5091,0.502,0.4257,0.3839,0.3734,0.3662,0.3269,0.261,0.0811,0.0,0.0,0.0,-0.1043,-0.271,-0.27,-0.2696,-0.2693,-0.2683,-0.3113,-0.3777,-0.475,-0.5408,-0.5876,-2.6236,-2.5827,0.0,-2.5083,0.0,0.0,-1.9244,-1.63,0.0,-1.2865,-1.0876,0.0,-0.8334,-0.9847,-1.0809,-1.051,-1.3928,0.0,-1.8549,0.0,0.0,-2.6138,-2.7422,-2.87,-3.0012,-2.9933,0.0,-3.0083,0.0,-2.5785,-2.4182,-1.6646,-0.7568,0.2717,1.0938,1.7023,2.1261,2.2659,2.317,2.2959,2.2325,2.1501,0.0,1.9947,1.9228,1.819,1.5362,1.4337,1.2949,0.4143,-0.3723,-1.0,-1.0531,-1.2397,-1.4503,-1.5419,-1.5664,-1.5788,-1.6008,-1.5688,-1.5039,-1.4343,-1.3679,-1.3024,-1.2288,-1.1625,-1.1183,0.0,0.0,0.0,0.0,0.0,0.0,-0.723,-0.6475,-0.576,0.0,0.0,0.0,0.0,-0.0823,0.0,0.0,0.2284,0.3415,0.4411,0.4548,0.472,0.0,0.0,0.0,0.5987,0.5982,0.5766,0.5394,0.4778,0.4266,0.3887,0.3691,0.3598,0.3523,0.1647,0.051,0.0,0.0,-0.0571,-0.1585,-0.2365,-0.2703,-0.2696,-0.2686,-0.2963,-0.3415,-0.4064,-0.4752,-0.5431,-2.7477,-2.6709,0.0,0.0,0.0,0.0,0.0,-1.7868,0.0,-1.322,0.0,-1.2297,-0.9798,-1.1682,-1.2986,-1.2594,0.0,-1.769,-1.9602,-2.2186,-2.4532,-2.6579,-2.7808,-2.8997,-3.0254,-3.0401,-3.0164,0.0,0.0,-2.6402,-2.2627,-1.9682,-1.3016,-0.3118,0.6029,1.3921,2.0568,2.2278,2.2599,2.1896,2.0892,2.0005,1.9178,1.8246,1.7139,1.5838,1.3134,1.2735,1.2216,0.3169,-0.3661,-0.8547,-0.9256,-1.1384,-1.3794,-1.4323,-1.4596,-1.4789,-1.532,-1.5096,-1.4698,-1.4606,-1.419,-1.3779,-1.3684,-1.318,-1.2608,-1.208,-1.1814,-1.1316,0.0,0.0,0.0,-0.8037,0.0,0.0,0.0,0.0,0.0,0.0,0.0,0.0,0.0,0.0,0.3951,0.4418,0.4511,0.4775,0.0,0.0,0.0,0.6593,0.6696,0.0,0.5651,0.0,0.4751,0.4016,0.3721,0.3594,0.3576,0.2534,0.1303,0.0,0.0,0.0,-0.0136,-0.183,-0.2606,-0.2696,-0.2686,-0.2712,-0.2746,-0.3101,-0.3913,-0.4924,-2.8973,-2.7982,0.0,0.0,0.0,-2.4912,-2.2951,-1.9542,-1.6195,-1.3451,-1.2049,-1.0902,-0.9798,-1.0616,-1.1755,-1.2869,-1.5375,0.0,0.0,0.0,0.0,-2.6005,-2.8036,-2.8942,-2.8552,-2.9351,-2.9303,0.0,0.0,-2.5462,-2.3544,-1.9443,-1.3782,-0.6823,0.1234,0.9751,1.8107,1.9699,0.0,2.0246,1.9587,1.8609,1.7558,1.6866,1.6161,1.5081,1.1874,1.031,0.8779,0.2915,-0.2599,-0.72,-0.8404,-1.0714,-1.311,-1.3695,-1.4239,-1.4698,-1.4835,-1.4789,-1.456,-1.4097,-1.3862,-1.3684,-1.3152,-1.2491,-1.2129,-1.2618,-1.1792,-1.0914,-1.0669,0.0,0.0,0.0,0.0,0.0,0.0,0.0,0.0,0.0,0.0,-0.1351,0.0,0.0,0.0,0.4138,0.4584,0.0,0.0,0.0,0.0,0.0,0.7182,0.0,0.0,0.0,0.4751,0.4016,0.3721,0.3594,0.3583,0.3382,0.21,0.0,0.0,0.0,-0.0072,-0.1132,-0.1988,-0.2696,-0.2686,-0.2712,-0.2716,-0.2779,-0.3093,-0.366,-2.921,0.0,0.0,0.0,0.0,0.0,0.0,-2.1814,0.0,-1.588,-1.3527,-1.2281,-1.2541,-1.2686,-1.3697,-1.599,-1.7557,-1.9402,-2.173,-2.3506,-2.491,-2.5901,-2.7576,-2.8476,-2.8519,-2.8851,-2.8842,-2.8411,0.0,0.0,-2.3359,-1.9708,-1.5615,-1.0793,0.0,0.88,0.0,0.0,0.0,1.7784,1.7111,1.665,1.6273,1.568,1.5024,1.4034,1.1054,0.9416,0.7887,0.2389,-0.2181,-0.5735,-0.7142,-0.9482,-1.1899,-1.2483,-1.3205,-1.3836,-1.4154,-1.4014,-1.3705,-1.342,-1.3324,-1.3238,-1.2978,-1.2618,-1.2344,-1.2344,-1.1774,-1.1216,-1.0864,-0.9969,0.0,0.0,0.0,0.0,0.0,0.0,0.0,0.0,0.0,0.0,0.0,0.0,0.0,0.0,0.0,0.0,0.0,0.0,0.0,0.0,0.0,0.0,0.0,0.0,0.0,0.4553,0.3901,0.3588,0.3609,0.3619,0.295,0.178,0.0539,0.0,-0.0038,-0.0466,-0.1449,-0.2696,-0.269,-0.2686,-0.2723,-0.2771,-0.2937,-0.3271,0.0,-2.9466,0.0,0.0,-2.8258,0.0,-2.5414,-2.3833,-2.1639,-1.8143,-1.5833,-1.4768,-1.5498,-1.541,-1.6455,-1.9235,-1.986,-2.1043,-2.3217,-2.3953,-2.4815,-2.5918,-2.679,-2.7577,-2.8305,-2.7971,-2.7877,0.0,0.0,0.0,-2.2656,-2.0206,-1.6774,0.0,0.0,0.0,0.0,0.0,1.4874,1.5408,1.4738,1.457,1.462,1.4079,1.3429,1.2484,1.0073,0.8783,0.7419,0.1891,-0.2172,-0.5115,-0.623,-0.8449,-1.0655,-1.1165,-1.1963,-1.2754,-1.3246,-1.3132,-1.2881,-1.2881,-1.2881,-1.2871,-1.2715,-1.2666,-1.2461,-1.1724,-1.1566,-1.1366,-1.0712,-1.0261,0.0,0.0,0.0,0.0,0.0,0.0,0.0,0.0,0.0,0.0,-0.0725,0.0,0.0,0.0,0.0,0.0,0.0,0.0,0.0,0.0,0.0,0.835,0.7805,0.0,0.601,0.0,0.4253,0.3784,0.3622,0.3595,0.3588,0.3496,0.1335,0.0235,0.0,0.0,-0.0847,-0.2153,-0.2563,-0.2693,-0.2703,-0.2852,-0.2998,-0.3162,0.0,0.0,0.0,0.0,0.0,0.0,-2.7521,-2.4792,-2.1638,-1.841,-1.7851,-1.7483,-1.6816,-1.7281,-1.8484,-2.0466,-2.097,-2.2139,-2.4388,-2.4225,-2.4568,-2.5764,-2.5797,-2.5974,-2.6343,-2.585,-2.5436,0.0,0.0,-2.3477,0.0,0.0,0.0,0.0,0.0,0.0,0.0,1.1939,1.3444,1.4011,1.3434,1.2706,1.1987,1.139,1.0754,0.9931,0.8332,0.7351,0.6098,0.1702,-0.2737,-0.641,-0.6533,-0.8119,-0.9909,-0.9961,-1.0914,-1.1913,-1.1963,-1.2442,-1.2881,-1.2881,-1.2881,-1.2715,-1.208,-1.1913,-1.1724,-1.1015,-1.0914,-1.0669,-1.0012,-1.0364,-1.0517,0.0,0.0,0.0,0.0,0.0,-0.6534,-0.6421,0.0,0.0,0.0,-0.0783,0.0,0.0,0.0,0.0,0.0,0.0,0.0,0.712,0.0,0.8058,0.8131,0.7663,0.0,0.5091,0.4879,0.4381,0.3581,0.3612,0.3612,0.352,0.2207,0.0991,0.0,0.0,-0.0106,-0.0403,-0.205,-0.2696,-0.2713,-0.2856,-0.2998,-0.3141,0.0,0.0,0.0,0.0,0.0,0.0,0.0,-2.5469,-2.3649,-2.1473,-1.9824,-1.8989,-1.9327,-1.9468,-2.032,-2.22,-2.2197,-2.2721,-2.4241,-2.3749,-2.3678,-2.4264,-2.4032,-2.4223,-2.5057,-2.4033,-2.3906,0.0,0.0,0.0,0.0,0.0,0.0,0.0,0.0,0.1357,0.5766,0.8199,0.9735,1.0565,1.0644,1.0621,1.0487,1.0207,0.971,0.9006,0.7859,0.7074,0.5917,0.1568,-0.2336,-0.54,-0.5638,-0.6872,-0.8329,-0.8665,-0.9675,-1.0686,-1.0919,-1.1182,-1.1456,-1.158,-1.1642,-1.1584,-1.1266,-1.1216,-1.1015,-1.0364,-1.0218,-1.0269,-1.0364,-1.0312,-1.0269,0.0,0.0,0.0,0.0,0.0,0.0,-0.6696,0.0,-0.4498,0.0,0.0,0.0,0.0,0.0,0.0,0.0,0.0,0.0,0.7168,0.0,0.8111,0.8788,0.7909,0.6895,0.577,0.5175,0.4438,0.3581,0.3581,0.322,0.2457,0.1231,0.0457,0.0,0.0,-0.0444,-0.1162,-0.1868,-0.2481,-0.2968,-0.3078,-0.3208,-0.332,-2.9959,0.0,-3.0228,0.0,-2.8838,-2.827,-2.6422,-2.5609,-2.4794,-2.3664,-2.1616,-2.0545,-2.1256,-2.1344,-2.1776,-2.2802,-2.2636,-2.2682,-2.316,-2.257,-2.2355,-2.2693,-2.2162,0.0,-2.3471,-2.2072,-2.1928,-2.322,-2.1602,0.0,0.0,0.0,0.0,0.0,-0.6213,-0.19,0.3372,0.5203,0.6675,0.7832,0.8417,0.8677,0.8808,0.8808,0.8508,0.7953,0.7192,0.6484,0.5358,0.1359,-0.1988,-0.4556,-0.5034,-0.5967,-0.7043,-0.7637,-0.8565,-0.946,-0.9865,-1.012,-1.0306,-1.0623,-1.0656,-1.0631,-1.0543,-1.0517,-1.0312,-0.9666,-0.9666,-0.9969,-1.0415,-1.0261,-1.0167,-1.0466,0.0,0.0,0.0,0.0,0.0,0.0,-0.6072,-0.4809,-0.306,-0.1139,0.0,0.0,0.0,0.0,0.0,0.0,0.0,0.0,0.0,0.0,0.0,0.7882,0.6968,0.5868,0.5472,0.4671,0.3581,0.3585,0.2951,0.1741,0.0538,0.0,0.0,0.0,-0.0506,-0.1339,-0.2048,-0.2703,-0.3268,-0.3297,-0.3378,-0.3482,-3.0102,-2.9857,-2.9656,-2.8836,-2.7338,-2.6163,-2.5856,-2.5079,-2.4388,-2.4037,-2.3165,-2.2439,-2.2129,-2.2736,-2.2776,-2.1805,-2.2022,-2.1859,-2.1095,-2.0619,-2.0645,0.0,0.0,-2.0415,-2.1393,-1.9865,-1.9197,-1.9485,0.0,0.0,-1.7567,0.0,-1.1982,-1.0302,-0.5925,-0.1578,0.265,0.3626,0.4975,0.6552,0.7101,0.7027,0.6637,0.6637,0.6642,0.6534,0.6064,0.5285,0.3975,0.1013,-0.2005,-0.4577,-0.5133,-0.5695,-0.631,-0.6948,-0.7598,-0.8238,-0.8781,-0.9382,-0.9969,-1.0337,-1.0381,-1.0287,-0.9893,-0.9814,-0.9614,-0.8956,-0.9361,-0.9814,-0.9814,-1.0364,-1.0559,-0.9917,0.0,0.0,0.0,0.0,0.0,-0.767,-0.5797,-0.4488,-0.4498,0.0,0.0,0.0,0.0,0.0,0.0,0.0,0.0,0.5966,0.5887,0.0,0.7146,0.752,0.6832,0.514,0.5819,0.5264,0.3581,0.3592,0.2957,0.1741,0.0538,0.0,0.0,0.0,-0.0,-0.0275,-0.2637,-0.3598,-0.3578,-0.3429,-0.3488,-0.3598,-2.8067,-2.7569,-2.6932,-2.5948,-2.5335,-2.4533,-2.3218,-2.2641,-2.2218,-2.1759,-2.1328,-2.0821,-2.0073,-2.0877,-2.1376,0.0,-2.0782,-2.0368,0.0,-1.9426,-1.9011,-1.8328,-1.7818,-1.7868,-1.8612,-1.7626,-1.7484,-1.8371,0.0,0.0,0.0,-1.3229,-1.1145,-0.9488,-0.7167,-0.3982,-0.0331,0.0573,0.2857,0.5703,0.5477,0.5298,0.5202,0.5701,0.5873,0.5764,0.5144,0.4079,0.2443,-0.0494,-0.2683,-0.4182,-0.4365,-0.4849,-0.5286,-0.5286,-0.6002,-0.6893,-0.7224,-0.777,-0.8347,-0.8634,-0.8888,-0.9026,-0.8882,-0.8961,-0.9061,-0.8857,-0.8962,-0.9263,-0.971,-0.9614,-0.951,-0.9762,-0.9413,0.0,0.0,0.0,0.0,-0.7074,-0.6362,-0.5546,0.0,-0.2675,0.0,0.0,0.0,0.0,0.0,0.0,0.0,0.0,0.5474,0.0,0.7089,0.6924,0.6258,0.5091,0.5243,0.4721,0.3581,0.3585,0.2951,0.1739,0.0536,0.0,0.0,0.0,0.0,-0.0082,-0.0861,-0.2134,-0.3581,-0.3537,-0.3598,-0.3731,-2.6074,-2.5305,-2.4433,-2.3756,-2.3235,-2.2479,-2.1206,-2.0714,-2.0344,-1.9878,-1.922,-1.8563,-1.7955,-1.8001,0.0,-1.8921,-1.8656,-1.8167,-1.7441,-1.7063,-1.6651,-1.6093,-1.5632,-1.5641,-1.6206,0.0,0.0,-1.6286,-1.5991,-1.537,-1.4378,-1.2202,-1.0296,-0.8692,-0.7521,-0.5543,-0.3066,-0.1589,0.0743,0.3376,0.3708,0.4101,0.456,0.4952,0.5117,0.5066,0.4653,0.3872,0.2516,-0.1004,-0.3106,-0.4153,-0.4023,-0.4225,-0.4499,-0.441,-0.4957,-0.5598,-0.6013,-0.6408,-0.6765,-0.7103,-0.7322,-0.7548,-0.7698,-0.7874,-0.7996,-0.7996,-0.8209,-0.8415,-0.8554,-0.8732,-0.885,-0.8981,-0.8896,-0.8804,-0.8804,0.0,0.0,0.0,0.0,0.0,0.0,-0.3815,0.0,0.0,0.0,0.0,0.0,0.0,0.0,0.4663,0.4994,0.0,0.6117,0.6009,0.5535,0.4701,0.4505,0.4111,0.3581,0.3581,0.3176,0.237,0.0715,0.0,0.0,0.0,0.0,0.0,0.0,-0.1277,-0.3106,-0.3465,-0.3741,-0.3955,-2.4143,-2.3073,0.0,0.0,-2.1084,0.0,-1.9728,-1.9111,-1.8542,-1.8209,-1.6835,-1.5849,-1.5807,-1.4462,-1.413,-1.5605,0.0,0.0,0.0,-1.395,-1.3856,-1.4411,-1.3856,-1.3772,-1.413,-1.3851,-1.3616,-1.3557,-1.3143,-1.2948,-1.2887,-1.1114,-0.9476,-0.7962,-0.7046,-0.6148,-0.5233,-0.2844,-0.1129,0.0183,0.1954,0.3332,0.4366,0.4477,0.4477,0.448,0.4376,0.433,0.3711,-0.0614,-0.314,-0.445,-0.4004,-0.3799,-0.3821,-0.4235,-0.4391,-0.4517,-0.5087,-0.5265,-0.5409,-0.5844,-0.5975,-0.6112,-0.6488,-0.6588,-0.6588,-0.6588,-0.7128,-0.7396,-0.675,-0.7723,-0.8427,-0.7723,-0.8209,-0.8646,-0.8646,0.0,0.0,0.0,0.0,0.0,0.0,-0.4986,-0.3304,0.0,0.0,0.0,0.0,0.0,0.2801,0.4432,0.4525,0.4515,0.4501,0.4983,0.4805,0.3985,0.371,0.3581,0.3581,0.3581,0.3588,0.3458,0.1118,0.009,0.0,0.0,0.0,0.0,0.0,-0.0827,-0.2176,-0.3245,-0.3883,-0.4177,0.0,0.0,-2.0028,-1.9722,-1.898,-1.813,-1.7344,-1.6283,-1.5384,-1.491,-1.4054,-1.3315,-1.2817,-1.2397,-1.2125,-1.2039,-1.2949,-1.3205,-1.2483,-1.2743,-1.2551,-1.1787,-1.2006,-1.2003,-1.1681,-1.2085,-1.2606,-1.3117,-1.2403,-1.2081,-1.2012,-0.9673,-0.8404,-0.7962,-0.6404,-0.557,-0.5277,-0.3335,-0.1526,0.0119,0.1718,0.2471,0.2845,0.4073,0.4522,0.4353,0.3183,0.2738,0.2402,0.0223,-0.2314,-0.4281,-0.3018,-0.2472,-0.2477,-0.3475,-0.4092,-0.443,-0.4561,-0.4957,-0.5368,-0.5559,-0.5873,-0.6237,-0.6523,-0.6588,-0.6588,-0.6588,-0.675,-0.6804,-0.6642,-0.6912,-0.7074,-0.6912,-0.702,-0.7128,-0.7128,-0.6966,0.0,0.0,-0.5706,-0.5328,-0.4849,-0.465,-0.3699,0.0,0.0,0.0,0.0,0.0349,0.1747,0.4442,0.448,0.4419,0.4247,0.4302,0.4084,0.3683,0.3612,0.3581,0.3581,0.3581,0.3588,0.3506,0.2012,0.085,0.0,0.0,0.0,0.0,0.0,-0.0236,-0.081,-0.3377,-0.4141,-0.3986,-1.9027,-1.8486,-1.7887,-1.7384,-1.6773,-1.6211,-1.5716,-1.454,-1.3596,-1.3328,-1.2425,-1.1693,-1.1332,-1.1032,-1.0695,-1.0364,-1.1273,-1.1702,-1.1332,-1.1355,-1.1215,-1.0813,-1.0797,-1.0839,-1.0813,-1.1152,-1.1689,-1.2451,-1.1655,-1.1212,-1.119,-0.8977,-0.7767,-0.7372,-0.6013,-0.5422,-0.529,-0.3492,-0.1632,0.0059,0.085,0.2012,0.3363,0.4203,0.4487,0.4373,0.353,0.235,0.1062,0.028,-0.1108,-0.24,-0.225,-0.1996,-0.2044,-0.3237,-0.3788,-0.4055,-0.4148,-0.4423,-0.4701,-0.4885,-0.5187,-0.5477,-0.5584,-0.5664,-0.5664,-0.5664,-0.5878,-0.5982,-0.5714,-0.615,-0.648,-0.6145,-0.6367,-0.6588,-0.6588,-0.6312,0.0,-0.5542,-0.5218,-0.4893,-0.4519,-0.4484,-0.3866,-0.2343,0.0,0.0,0.0,0.0,0.1082,0.336,0.4141,0.4406,0.4197,0.4026,0.3802,0.3581,0.3581,0.3581,0.3581,0.3581,0.3588,0.3551,0.2324,0.1118,0.0,0.0,0.0,0.0,0.0,0.0,-0.0195,-0.1819,-0.288,-0.3582,-1.6931,-1.6384,-1.5835,-1.5327,-1.4676,-1.4261,-1.4261,-1.3148,-1.2327,-1.2327,-1.1249,-1.0458,-1.0348,-0.9799,-0.9444,-0.934,-0.9843,-1.0195,-1.0297,-0.9909,-0.9858,-1.0305,-0.9909,-0.9858,-1.0297,-1.0214,-1.0512,-1.126,-1.0534,-1.0148,-1.011,-0.8527,-0.7442,-0.6728,-0.5822,-0.5415,-0.5325,-0.374,-0.1931,0.0,0.0,0.1513,0.3825,0.4054,0.4166,0.4169,0.4399,0.2865,0.0617,0.0168,0.0,-0.0223,-0.1465,-0.1721,-0.1763,-0.2963,-0.3348,-0.3383,-0.3539,-0.3745,-0.3996,-0.4167,-0.4355,-0.4519,-0.4519,-0.4519,-0.4519,-0.4519,-0.4948,-0.5164,-0.4625,-0.55,-0.6095,-0.5437,-0.5873,-0.6263,-0.6263,0.0,-0.5324,-0.5324,-0.4842,-0.4519,-0.4519,-0.4484,-0.3981,-0.2625,-0.0951,0.0,0.0,0.0224,0.0896,0.2174,0.3671,0.4308,0.413,0.39,0.37,0.3581,0.3581,0.3581,0.3581,0.3581,0.3585,0.3551,0.2324,0.1118,0.0,0.0,0.0,0.0,0.0,0.0,0.0,0.0,-0.1081,-0.2717,-1.5129,-1.4539,-1.4103,-1.4021,-1.2954,-1.2192,-1.2192,-1.1082,-1.0261,-1.0261,-0.9614,-0.889,-0.8243,-0.8084,-0.7765,-0.7171,-0.7165,-0.754,-0.8137,-0.8685,-0.8738,-0.819,-0.8685,-0.8738,-0.819,-0.7972,-0.805,-0.8597,-0.8474,-0.8409,-0.8339,-0.7367,-0.6933,-0.6968,-0.5907,-0.5373,-0.5384,-0.5105,-0.3049,0.0,0.0,0.0279,0.0838,0.2066,0.2569,0.2738,0.4051,0.4172,0.3429,0.0841,0.0,-0.0056,-0.0279,-0.0334,-0.05,-0.1716,-0.2101,-0.2072,-0.2099,-0.3144,-0.418,-0.419,-0.4355,-0.4519,-0.4519,-0.4519,-0.4519,-0.4519,-0.457,-0.4625,-0.4515,-0.468,-0.4791,-0.468,-0.4736,-0.4846,-0.4846,0.0,-0.468,-0.468,-0.457,-0.4522,-0.4477,-0.4487,-0.4386,-0.4166,-0.1569,0.0,0.0,0.1178,0.1962,0.2174,0.3433,0.401,0.3866,0.3697,0.3602,0.3581,0.3581,0.3581,0.3581,0.3581,0.3581,0.3537,0.2322,0.1116,0.0,0.0,0.0,0.0,0.0,0.0,0.0,0.0,-0.0215,-0.0836,-1.3223,-1.283,-1.2532,-1.2211,-1.163,-1.124,-1.124,-1.0407,-0.9651,-0.9273,-0.8613,-0.7943,-0.7182,-0.7128,-0.6966,-0.6642,-0.6588,-0.6583,-0.6519,-0.723,-0.745,-0.7128,-0.745,-0.7575,-0.7497,-0.7423,-0.7633,-0.8027,-0.8027,-0.7767,-0.7307,-0.7003,-0.6626,-0.6109,-0.4625,-0.4502,-0.5417,-0.5417,-0.3282,0.0,0.0,0.0,0.0056,0.0783,0.1006,0.1118,0.1793,0.2076,0.185,0.0449,0.0,0.0,0.0,0.0,-0.0112,-0.0673,-0.084,-0.0833,-0.0806,-0.2537,-0.4385,-0.4375,-0.4423,-0.4525,-0.4519,-0.4519,-0.4519,-0.4519,-0.4519,-0.4519,-0.4519,-0.4519,-0.4519,-0.4519,-0.4519,0.0,0.0,-0.4519,-0.4519,-0.4519,-0.4519,-0.4522,-0.4477,-0.3749,-0.3588,-0.4455,-0.1682,0.0,0.0,0.1403,0.2188,0.2174,0.3345,0.3966,0.3917,0.3693,0.3581,0.3581,0.3581,0.3581,0.3581,0.3581,0.3581,0.3578,0.2998,0.1698,0.0,0.0,0.0,0.0,0.0,0.0,0.0,0.0,0.0,-0.0218,-1.1711,-1.1364,-1.1073,-1.0442,-1.0195,-1.0041,-0.9872,-0.937,-0.8856,-0.8265,-0.7753,-0.7182,-0.6421,-0.6367,-0.6258,-0.615,-0.61,-0.5878,-0.5328,-0.5819,-0.6209,-0.6312,-0.6415,-0.6614,-0.6987,-0.696,-0.7107,-0.7377,-0.7377,-0.7051,-0.64,-0.6626,-0.6039,-0.4697,-0.3732,-0.3628,-0.4153,-0.4125,-0.2547,0.0,0.0,0.0,0.0,0.0,0.0,0.0,0.0,0.0,0.0,0.0,0.0,0.0,0.0,0.0,0.0,0.0,0.0,0.0,0.0,-0.1676,-0.353,-0.386,-0.4252,-0.448,-0.4473,-0.4525,-0.4525,-0.4522,-0.4522,-0.4522,-0.4519,-0.4519,-0.4519,-0.4519,0.0,0.0,0.0,-0.4519,-0.4505,-0.4416,-0.4498,-0.4515,-0.4494,-0.3453,-0.2912,-0.3429,-0.1335,0.0,0.0,0.1322,0.2247,0.2619,0.3519,0.3985,0.3917,0.3693,0.3581,0.3581,0.3581,0.3581,0.3581,0.3581,0.3581,0.3581,0.3592,0.2373,0.0402,0.0135,0.0,0.0,0.0,0.0,0.0,0.0,0.0,0.0,-1.0914,-1.0364,-0.9695,-0.8992,-0.8336,-0.7711,-0.7009,-0.6853,-0.6799,-0.6745,-0.6691,-0.6421,-0.5651,-0.5597,-0.5328,-0.4736,-0.468,-0.4625,-0.457,-0.4625,-0.4952,-0.5542,-0.5767,-0.5959,-0.6108,-0.5549,-0.5396,-0.5624,-0.5624,-0.5557,-0.5491,-0.5505,-0.4561,-0.2943,-0.4531,-0.338,-0.037,-0.0419,-0.0232,0.0,0.0,0.0,0.0,0.0,0.0,0.0,0.0,0.0,0.0,0.0,0.0,0.0,0.0,0.0,0.0,0.0,0.0,0.0,0.0,-0.0168,-0.067,-0.2007,-0.3469,-0.4494,-0.4494,-0.4494,-0.449,-0.448,-0.4477,-0.4473,-0.4519,-0.4519,-0.4519,-0.4519,0.0,0.0,-0.4519,-0.4519,-0.4412,-0.4227,-0.4392,-0.4488,-0.4478,-0.4375,-0.3203,-0.0561,-0.0109,0.0,0.0,0.1143,0.2452,0.3827,0.3939,0.3887,0.3615,0.3592,0.3581,0.3581,0.3581,0.3581,0.3581,0.3581,0.3581,0.3581,0.3592,0.2868,0.1563,0.0448,0.0,0.0,0.0,0.0,0.0,0.0,0.0,0.0,-0.9666,-0.8981,-0.8402,-0.8131,-0.7498,-0.6912,-0.6642,-0.6588,-0.6421,-0.5982,-0.5923,-0.566,-0.4959,-0.4901,-0.4794,-0.4536,-0.4477,-0.4477,-0.4484,-0.4484,-0.4639,-0.4897,-0.5046,-0.522,-0.5286,-0.5286,-0.5318,-0.5382,-0.5376,-0.5376,-0.5379,-0.5425,-0.5055,-0.4333,-0.2739,-0.1297,0.0,0.0,0.0,0.0,0.0,0.0,0.0,0.0,0.0,0.0,0.0,0.0,0.0,0.0,0.0,0.0,0.0,0.0,0.0,0.0,0.0,0.0,0.0,0.0,-0.0112,-0.067,-0.1283,-0.1955,-0.285,-0.3074,-0.3074,-0.3072,-0.386,-0.4487,-0.4484,-0.4484,-0.4484,-0.4484,0.0,-0.4484,-0.4484,-0.4484,-0.4484,-0.4386,-0.4283,-0.4268,-0.4464,-0.4502,-0.3242,-0.0224,0.0,0.0,0.0,0.1132,0.2397,0.3717,0.3839,0.3826,0.3714,0.3626,0.3581,0.3581,0.3581,0.3581,0.3581,0.3581,0.3581,0.3581,0.3585,0.2907,0.1697,0.0492,0.0,0.0,0.0,0.0,0.0,0.0,0.0,0.0,-0.8203,-0.7723,-0.7289,-0.7069,-0.6578,-0.6204,-0.5991,-0.5937,-0.5773,-0.5277,-0.5171,-0.5014,-0.4539,-0.4079,-0.3965,-0.4438,-0.4033,-0.3802,-0.3755,-0.4212,-0.4284,-0.3792,-0.4374,-0.4774,-0.482,-0.4655,-0.4564,-0.4573,-0.4564,-0.484,-0.5393,-0.5425,-0.5427,-0.526,-0.1628,0.0,0.0,0.0,0.0,0.0,0.0,0.0,0.0112,0.1065,0.1401,0.1289,0.0336,0.0,0.0,0.0,0.0,0.0,0.0,0.0,0.0,0.0,0.0,0.0,0.0,0.0,0.0,0.0,0.0,-0.028,-0.1284,-0.1507,-0.1507,-0.1506,-0.2347,-0.3246,-0.3697,-0.3755,-0.3755,-0.3755,-0.3755,-0.3755,-0.3755,-0.3776,-0.3758,-0.3789,-0.4006,-0.4152,-0.4233,-0.3559,-0.2207,-0.0165,0.0,0.0,0.0,0.1133,0.2351,0.3565,0.3688,0.3724,0.3724,0.3629,0.3581,0.3581,0.3581,0.3581,0.3581,0.3581,0.3581,0.3581,0.3581,0.3132,0.2235,0.067,0.0,0.0,0.0,0.0,0.0,0.0,0.0,0.0,-0.6588,-0.6588,-0.6367,-0.5651,-0.5487,-0.5273,-0.4625,-0.4519,-0.4522,-0.4477,-0.448,-0.4484,-0.4494,-0.313,-0.285,-0.4383,-0.3074,-0.2232,-0.2174,-0.3649,-0.382,-0.2284,-0.3638,-0.4578,-0.4916,-0.3438,-0.2676,-0.2678,-0.2678,-0.3623,-0.5326,-0.5403,-0.5401,-0.5192,-0.1627,0.0,0.0,0.0,0.0,0.0,0.0,0.0056,0.0336,0.3373,0.4514,0.411,0.1118,0.0,0.0,0.0,0.0,0.0,0.0,0.0,0.0,0.0,0.0,0.0,0.0,0.0,0.0,0.0,0.0,0.0,0.0,0.0,0.0,0.0,0.0,-0.0447,-0.1896,-0.2174,-0.2174,-0.2174,-0.2174,-0.2174,-0.2174,-0.2165,-0.2196,-0.2174,-0.3551,-0.4229,-0.3619,-0.1407,0.0,0.0,0.0,0.0,0.0045,0.1163,0.2368,0.3551,0.3585,0.3581,0.3581,0.3581,0.3581,0.3581,0.3581,0.3581,0.3581,0.3581,0.3581,0.3581,0.3581,0.3588,0.3417,0.0984,0.0,0.0,0.0,0.0,0.0,0.0,0.0,0.0,-0.6588,-0.6204,-0.576,-0.5542,-0.5109,-0.4732,-0.4515,-0.4525,-0.4477,-0.448,-0.3574,-0.3299,-0.4392,-0.3135,-0.2798,-0.4347,-0.4054,-0.3368,-0.2244,-0.3663,-0.3835,-0.2294,-0.166,-0.2383,-0.4595,-0.4573,-0.3368,-0.0807,-0.0804,-0.1062,-0.1696,-0.424,-0.4072,-0.1573,-0.0469,0.0,0.0,0.0,0.0,0.0168,0.2301,0.3147,0.3147,0.2968,0.3532,0.4386,0.3474,0.2458,0.1562,0.1563,0.1563,0.1563,0.1563,0.1563,0.134,0.028,0.0,0.0,0.0,0.0,0.0,0.0,0.0,0.0,0.0,0.0,0.0,0.0,0.0,-0.0112,-0.0559,-0.0671,-0.0671,-0.0671,-0.0671,-0.0671,-0.0671,-0.0652,-0.0682,-0.0659,-0.1072,-0.1266,-0.1073,-0.0442,0.0,0.0,0.0,0.075,0.2436,0.2059,0.2366,0.3585,0.3581,0.3581,0.3581,0.3581,0.3581,0.3581,0.3581,0.3581,0.3581,0.3581,0.3581,0.3581,0.3581,0.3588,0.3468,0.1891,0.0748,0.0,0.0,0.0,0.0,0.0,0.0,0.0,-0.5773,-0.5386,-0.5109,-0.5109,-0.4791,-0.4525,-0.4525,-0.448,-0.4487,-0.4494,-0.3699,-0.3026,-0.2751,-0.1902,-0.1679,-0.2643,-0.2697,-0.2301,-0.1403,-0.2219,-0.2313,-0.1355,-0.0476,-0.0859,-0.2711,-0.3075,-0.2187,0.0,0.0,0.0,-0.0066,-0.2232,-0.2103,0.0,0.0,0.0,0.0,0.0,0.0672,0.1964,0.3772,0.4511,0.4389,0.3469,0.3691,0.449,0.449,0.3919,0.3125,0.313,0.313,0.313,0.313,0.313,0.2963,0.2066,0.1339,0.0893,0.0894,0.0895,0.0727,0.0168,0.0,0.0,0.0,0.0,0.0,0.0,0.0,0.0,0.0,0.0,0.0,0.0,0.0,0.0,0.0,0.0,0.0,0.0,0.0,0.0,0.0,0.0,0.0,0.0,0.0898,0.2077,0.3526,0.2915,0.286,0.3578,0.3581,0.3581,0.3581,0.3581,0.3581,0.3581,0.3581,0.3581,0.3581,0.3581,0.3581,0.3581,0.3581,0.3585,0.3509,0.2567,0.1282,0.0,0.0,0.0,0.0,0.0,0.0,0.0,-0.4519,-0.4519,-0.4519,-0.4522,-0.4473,-0.448,-0.4311,-0.4432,-0.4501,-0.4511,-0.4284,-0.3035,-0.028,0.0,0.0,0.0,0.0,0.0,0.0,0.0,0.0,0.0,0.0,0.0,0.0,0.0,0.0,0.0,0.0,0.0,0.0,0.0,0.0,0.0,0.0,0.0,0.0,0.028,0.1964,0.4514,0.4511,0.4504,0.4494,0.4484,0.4477,0.4477,0.4477,0.4477,0.448,0.449,0.4494,0.4494,0.4494,0.4494,0.4494,0.4494,0.3524,0.2399,0.2399,0.2399,0.2063,0.0726,0.028,0.0168,0.0056,0.0,0.0,0.0,0.0,0.0,0.0,0.0,0.0,0.0,0.0,0.0,0.0,0.0,0.0,0.0,0.0,0.0,0.0,0.0,0.0,0.0,0.2275,0.3649,0.3587,0.3612,0.364,0.3581,0.3581,0.3581,0.3581,0.3581,0.3581,0.3581,0.3581,0.3581,0.3581,0.3592,0.3592,0.3581,0.3609,0.3612,0.3567,0.3015,0.1867,0.0386,0.01,0.0,0.0,0.0,0.0,0.0,-0.4473,-0.4477,-0.4477,-0.4487,-0.449,-0.4092,-0.2903,-0.3702,-0.4511,-0.4514,-0.2469,-0.0728,-0.0056,0.0,0.0,0.0,0.0,0.0,0.0,0.0,0.0,0.0,0.0,0.0,0.0,0.0,0.0,0.0,0.0,0.0,0.0,0.0,0.0,0.0,0.0,0.0,0.0168,0.2525,0.3884,0.4511,0.4494,0.4484,0.448,0.4525,0.4522,0.4522,0.4522,0.4522,0.4522,0.4525,0.4525,0.4525,0.4525,0.4525,0.4525,0.448,0.4255,0.4027,0.3981,0.3984,0.3925,0.3588,0.2627,0.1396,0.028,0.0,0.0,0.0,0.0,0.0,0.0,0.0,0.0,0.0,0.0,0.0,0.0,0.0,0.0,0.0,0.0,0.0,0.0,0.0,0.0,0.0,0.2672,0.4118,0.3641,0.3765,0.3753,0.3585,0.3581,0.3581,0.3581,0.3581,0.3581,0.3581,0.3581,0.3581,0.3585,0.3693,0.3687,0.3592,0.3826,0.3863,0.3828,0.3695,0.3588,0.3278,0.0941,0.0,0.0,0.0,0.0,0.0,-0.4487,-0.3916,-0.3426,-0.3429,-0.4026,-0.4203,-0.3444,-0.2756,-0.2343,-0.2361,-0.0953,0.0,0.0,0.0,0.0,0.0,0.0,0.0,0.0,0.0,0.0,0.0,0.0,0.0,0.0,0.0,0.0,0.0,0.0,0.0,0.0,0.0,0.0,0.006,0.149,0.2132,0.2188,0.3028,0.3816,0.4497,0.4484,0.4477,0.4525,0.4519,0.4519,0.4519,0.4519,0.4519,0.4519,0.4519,0.4519,0.4519,0.4519,0.4519,0.4519,0.4525,0.4525,0.4473,0.448,0.448,0.448,0.4487,0.3916,0.2903,0.1397,0.1062,0.0838,0.0168,0.0,0.0,0.0,0.0,0.0,0.0,0.0,0.0,0.0,0.0,0.0,0.0,0.0,0.0,0.0,0.1299,0.2123,0.2127,0.3497,0.4225,0.3882,0.3917,0.3921,0.3792,0.3788,0.3754,0.3683,0.3751,0.3751,0.368,0.368,0.368,0.3683,0.3758,0.3714,0.3592,0.3816,0.387,0.3873,0.3974,0.4154,0.422,0.2705,0.1264,0.0,0.0,0.0,0.0,-0.4475,-0.3487,-0.2431,-0.1939,-0.2895,-0.373,-0.3752,-0.1596,0.0,0.0,0.0,0.0,0.0,0.0,0.0,0.0,0.0,0.0,0.0,0.0,0.0,0.0,0.0,0.0,0.0,0.0,0.0,0.0,0.0,0.0,0.0,0.0,0.0248,0.0862,0.3379,0.4478,0.4396,0.3132,0.335,0.448,0.4477,0.4525,0.4519,0.4519,0.4519,0.4519,0.4519,0.4519,0.4519,0.4519,0.4519,0.4519,0.4519,0.4519,0.4519,0.4519,0.4519,0.4519,0.4519,0.4519,0.4519,0.4473,0.4477,0.4138,0.2899,0.2565,0.2233,0.1004,0.0558,0.0391,0.0392,0.0392,0.0392,0.0392,0.039,0.039,0.0392,0.037,0.0355,0.0357,0.0397,0.0394,0.0356,0.2622,0.4199,0.4463,0.4339,0.426,0.4184,0.4117,0.4046,0.4019,0.4019,0.3958,0.3832,0.3958,0.3968,0.387,0.387,0.3856,0.3832,0.386,0.3792,0.3663,0.3832,0.389,0.389,0.4168,0.4237,0.4261,0.4446,0.2965,0.0727,0.0168,0.0,0.0,-0.4265,-0.4311,-0.338,-0.0728,-0.048,-0.0594,-0.0611,-0.024,0.0,0.0,0.0,0.0,0.0,0.0,0.0,0.0,0.0,0.0,0.0,0.0,0.0,0.0,0.0,0.0,0.0,0.0,0.0,0.0,0.0,0.0,0.0,0.0,0.1392,0.3896,0.4305,0.4515,0.4497,0.4258,0.4311,0.4477,0.4525,0.4519,0.4519,0.4519,0.4519,0.4519,0.4519,0.4519,0.4519,0.4519,0.4519,0.4519,0.4519,0.4519,0.4519,0.4519,0.4519,0.4519,0.4519,0.4519,0.4519,0.4519,0.4519,0.4463,0.4236,0.4196,0.4154,0.3928,0.285,0.1896,0.1898,0.1898,0.1898,0.1898,0.1904,0.1888,0.1889,0.1896,0.1884,0.1888,0.1886,0.1885,0.1893,0.2273,0.3092,0.4385,0.4481,0.4365,0.419,0.417,0.4107,0.4022,0.4019,0.4009,0.3988,0.4009,0.4026,0.4133,0.4133,0.4066,0.3992,0.4073,0.4053,0.3975,0.4253,0.43,0.4147,0.4365,0.444,0.4453,0.4484,0.4274,0.3599,0.0953,0.0,0.0,-0.1879,-0.198,-0.1589,-0.0251,0.0,0.0,0.0,0.0,0.0,0.0,0.0,0.0,0.0,0.0,0.0,0.0,0.0,0.0,0.0,0.0,0.0,0.0,0.0,0.0,0.0,0.0,0.0,0.0,0.0,0.0,0.0067,0.2095,0.3568,0.4522,0.4614,0.4579,0.4487,0.4473,0.4525,0.4525,0.4519,0.4519,0.4519,0.4519,0.4519,0.4519,0.4519,0.4519,0.4519,0.4519,0.4519,0.4519,0.4519,0.4519,0.4519,0.4519,0.4519,0.4519,0.4519,0.4519,0.4519,0.4519,0.4519,0.4519,0.4519,0.4525,0.448,0.4487,0.3971,0.3466,0.3469,0.3471,0.3471,0.3471,0.3484,0.3465,0.3463,0.3489,0.3505,0.3503,0.3509,0.3481,0.3496,0.3492,0.3747,0.4428,0.4477,0.4443,0.4379,0.4372,0.4334,0.427,0.4267,0.4229,0.4097,0.4226,0.426,0.4197,0.4331,0.429,0.41,0.4164,0.4113,0.4033,0.425,0.4307,0.4207,0.4402,0.4522,0.447,0.3858,0.2963,0.1847,0.0504,0.0,0.0]}]]